[[{"header":{"parameterUnit":"m.s-1","parameterCategory":1,"la1":31.0,"la2":29.5877,"lo1":-88.7671,"lo2":-86.6584,"dy":0.0162,"dx":0.0185,"nx":115,"ny":88,"refTime":"2023-09-18T06:00:00:Z","depth":0,"parameterNumber":2,"parameterNumberName":"U-component_of_WINDS"},"data":[0.0,0.0,0.0,0.0,0.0,0.0,0.0,0.0,0.0,0.0,0.0,0.0,0.0,0.0,0.0,0.0,0.0,0.0,0.0,0.0,0.0,0.0,0.0,0.0,0.0,0.0,0.0,0.0,0.0,0.0,0.0,0.0,0.0,0.0,0.0,0.0,0.0,0.0,0.0,0.0,0.0,0.0,0.0,0.0,0.0,0.0,0.0,0.0,0.0,0.0,0.0,0.0,0.0,0.0,0.0,0.0,0.0,0.0,0.0,0.0,0.0,0.0,0.0,0.0,0.0,0.0,0.0,0.0,0.0,0.0,0.0,0.0,0.0,0.0,0.0,0.0,0.0,0.0,0.0,0.0,0.0,0.0,0.0,0.0,0.0,0.0,0.0,0.0,0.0,0.0,0.0,0.0,0.0,0.0,0.0,0.0,0.0,0.0,0.0,0.0,0.0,0.0,0.0,0.0,0.0,0.0,0.0,0.0,0.0,0.0,0.0,0.0,0.0,0.0,0.0,0.0,0.0,0.0,0.0,0.0,0.0,0.0,0.0,0.0,0.0,0.0,0.0,0.0,0.0,0.0,0.0,0.0,0.0,0.0,0.0,0.0,0.0,0.0,0.0,0.0,0.0,0.0,0.0,0.0,0.0,0.0,0.0,0.0,0.0,0.0,0.0,0.0,0.0,0.0,0.0,0.0,0.0,0.0,0.0,0.0,0.0,0.0,0.0,0.0,0.0,0.0,0.0,0.0,0.0,0.0,0.0,0.0,0.0,0.0,0.0,0.0,0.0,0.0,0.0,0.0,0.0,0.0,0.0,0.0,0.0,0.0,0.0,0.0,0.0,0.0,0.0,0.0,0.0,0.0,0.0,0.0,0.0,0.0,0.0,0.0,0.0,0.0,0.0,0.0,0.0,0.0,0.0,0.0,0.0,0.0,0.0,0.0,0.0,0.0,0.0,0.0,0.0,0.0,0.0,0.0,0.0,0.0,0.0,0.0,0.0,0.0,0.0,0.0,0.0,0.0,0.0,0.0,0.0,0.0,0.0,0.0,0.0,0.0,0.0,0.0,0.0,0.0,0.0,0.0,0.0,0.0,0.0,0.0,0.0,0.0,0.0,0.0,0.0,0.0,0.0,0.0,0.0,0.0,0.0,0.0,0.0,0.0,0.0,0.0,0.0,0.0,0.0,0.0,0.0,0.0,0.0,0.0,0.0,0.0,0.0,0.0,0.0,0.0,0.0,0.0,0.0,0.0,0.0,0.0,0.0,0.0,0.0,0.0,0.0,0.0,0.0,0.0,0.0,0.0,0.0,0.0,0.0,0.0,0.0,0.0,0.0,0.0,0.0,0.0,0.0,0.0,0.0,0.0,0.0,0.0,0.0,0.0,0.0,0.0,0.0,0.0,0.0,0.0,0.0,0.0,0.0,0.0,0.0,0.0,0.0,0.0,0.0,0.0,0.0,0.0,0.0,0.0,0.0,0.0,0.0,0.0,0.0,0.0,0.0,0.0,0.0,0.0,0.0,0.0,0.0,0.0,0.0,0.0,0.0,0.0,0.0,0.0,0.0,0.0,0.0,0.0,0.0,0.0,0.0,0.0,0.0,0.0,0.0,0.0,0.0,0.0,0.0,0.0,0.0,0.0,0.0,0.0,0.0,0.0,0.0,0.0,0.0,0.0,0.0,0.0,0.0,0.0,0.0,0.0,0.0,0.0,0.0,0.0,0.0,0.0,0.0,0.0,0.0,0.0,0.0,0.0,0.0,0.0,0.0,0.0,0.0,0.0,0.0,0.0,0.0,0.0,0.0,0.0,0.0,0.0,0.0,0.0,0.0,0.0,0.0,0.0,0.0,0.0,0.0,0.0,0.0,0.0,0.0,0.0,0.0,0.0,0.0,0.0,0.0,0.0,0.0,0.0,0.0,0.0,0.0,0.0,0.0,0.0,0.0,0.0,0.0,0.0,0.0,0.0,0.0,0.0,0.0,0.0,0.0,0.0,0.0,0.0,0.0,0.0,0.0,0.0,0.0,0.0,0.0,0.0,0.0,0.0,0.0,0.0,0.0,0.0,0.0,0.0,0.0,0.0,0.0,0.0,0.0,0.0,0.0,0.0,0.0,0.0,0.0,0.0,0.0,0.0,0.0,0.0,0.0,0.0,0.0,0.0,0.0,0.0,0.0,0.0,0.0,0.0,0.0,0.0,0.0,0.0,0.0,0.0,0.0,0.0,0.0,0.0,0.0,0.0,0.0,0.0,0.0,0.0,0.0,0.0,0.0,0.0,0.0,0.0,0.0,0.0,0.0,0.0,0.0,0.0,0.0,0.0,0.0,0.0,0.0,0.0,0.0,0.0,0.0,0.0,0.0,0.0,0.0,0.0,0.0,0.0,0.0,0.0,0.0,0.0,0.0,0.0,0.0,0.0,0.0,0.0,0.0,0.0,0.0,0.0,0.0,0.0,0.0,0.0,0.0,0.0,0.0,0.0,0.0,0.0,0.0,0.0,0.0,0.0,0.0,0.0,0.0,0.0,0.0,0.0,0.0,0.0,0.0,0.0,0.0,0.0,0.0,0.0,0.0,0.0,0.0,0.0,0.0,0.0,0.0,0.0,0.0,0.0,0.0,0.0,0.0,0.0,0.0,0.0,0.0,0.0,0.0,0.0,0.0,0.0,0.0,0.0,0.0,0.0,0.0,0.0,0.0,0.0,0.0,0.0,0.0,0.0,0.0,0.0,0.0,0.0,0.0,0.0,0.0,0.0,0.0,0.0,0.0,0.0,0.0,0.0,0.0,0.0,0.0,0.0,0.0,0.0,0.0,0.0,0.0,0.0,0.0,0.0,0.0,0.0,0.0,0.0,0.0,0.0,0.0,0.0,0.0,0.0,0.0,0.0,0.0,0.0,0.0,0.0,0.0,0.0,0.0,0.0,0.0,0.0,0.0,0.0,0.0,0.0,0.0,0.0,0.0,0.0,0.0,0.0,0.0,0.0,0.0,0.0,0.0,0.0,0.0,0.0,0.0,0.0,0.0,0.0,0.0,0.0,0.0,0.0,0.0,0.0,0.0,0.0,0.0,0.0,0.0,0.0,0.0,0.0,0.0,0.0,0.0,0.0,0.0,0.0,0.0,0.0,0.0,0.0,0.0,0.0,0.0,0.0,0.0,0.0,0.0,0.0,0.0,0.0,0.0,0.0,0.0,0.0,0.0,0.0,0.0,0.0,0.0,0.0,0.0,0.0,0.0,0.0,0.0,0.0,0.0,0.0,0.0,0.0,0.0,0.0,0.0,0.0,0.0,0.0,0.0,0.0,0.0,0.0,0.0,0.0,0.0,0.0,0.0,0.0,0.0,0.0,0.0,0.0,0.0,0.0,0.0,0.0,0.0,0.0,0.0,0.0,0.0,0.0,0.0,0.0,0.0,0.0,0.0,0.0,0.0,0.0,0.0,0.0,0.0,0.0,0.0,0.0,0.0,0.0,0.0,0.0,0.0,0.0,0.0,0.0,0.0,0.0,0.0,0.0,0.0,0.0,0.0,0.0,0.0,0.0,0.0,0.0,0.0,0.0,0.0,0.0,0.0,0.0,0.0,0.0,0.0,0.0,0.0,0.0,0.0,0.0,0.0,0.0,0.0,0.0,0.0,0.0,0.0,0.0,0.0,0.0,0.0,0.0,0.0,0.0,0.0,0.0,0.0,0.0,0.0,0.0,0.0,0.0,0.0,0.0,0.0,0.0,0.0,0.0,0.0,0.0,0.0,0.0,0.0,0.0,0.0,0.0,0.0,0.0,0.0,0.0,0.0,0.0,0.0,0.0,0.0,0.0,0.0,0.0,0.0,0.0,0.0,0.0,0.0,0.0,0.0,0.0,0.0,0.0,0.0,0.0,0.0,0.0,0.0,0.0,0.0,0.0,0.0,0.0,0.0,0.0,0.0,0.0,0.0,0.0,0.0,0.0,0.0,0.0,0.0,0.0,0.0,0.0,0.0,0.0,0.0,0.0,0.0,0.0,0.0,0.0,0.0,0.0,0.0,0.0,0.0,0.0,0.0,0.0,0.0,0.0,0.0,0.0,0.0,0.0,0.0,0.0,0.0,0.0,0.0,0.0,0.0,0.0,0.0,0.0,0.0,0.0,0.0,0.0,0.0,0.0,0.0,0.0,0.0,0.0,0.0,0.0,0.0,0.0,0.0,0.0,0.0,0.0,0.0,0.0,0.0,0.0,0.0,0.0,0.0,0.0,0.0,0.0,0.0,0.0,0.0,0.0,0.0,0.0,0.0,0.0,-1.7417,0.0,0.0,0.0,0.0,0.0,0.0,0.0,0.0,0.0,0.0,0.0,0.0,0.0,0.0,0.0,0.0,0.0,0.0,0.0,0.0,0.0,0.0,0.0,0.0,0.0,0.0,0.0,0.0,0.0,0.0,0.0,0.0,0.0,0.0,0.0,0.0,0.0,0.0,0.0,0.0,0.0,0.0,0.0,0.0,0.0,0.0,0.0,0.0,0.0,0.0,0.0,0.0,0.0,0.0,0.0,0.0,0.0,0.0,0.0,0.0,0.0,0.0,0.0,0.0,0.0,0.0,0.0,0.0,0.0,0.0,0.0,0.0,0.0,0.0,0.0,0.0,0.0,0.0,0.0,0.0,0.0,0.0,0.0,0.0,0.0,0.0,0.0,0.0,0.0,0.0,0.0,0.0,0.0,0.0,0.0,0.0,0.0,0.0,0.0,0.0,0.0,0.0,0.0,0.0,0.0,0.0,0.0,0.0,0.0,0.0,-1.8346,-1.8558,-1.9017,-1.9265,-1.9215,0.0,0.0,0.0,0.0,0.0,0.0,0.0,0.0,0.0,0.0,0.0,0.0,0.0,0.0,0.0,0.0,0.0,0.0,0.0,0.0,0.0,0.0,0.0,0.0,0.0,0.0,0.0,0.0,0.0,0.0,0.0,0.0,0.0,0.0,0.0,0.0,0.0,0.0,0.0,0.0,0.0,0.0,0.0,0.0,0.0,0.0,0.0,0.0,0.0,0.0,0.0,0.0,0.0,0.0,0.0,0.0,0.0,0.0,0.0,0.0,0.0,0.0,0.0,0.0,0.0,0.0,0.0,0.0,0.0,0.0,0.0,0.0,0.0,0.0,0.0,0.0,0.0,0.0,0.0,0.0,0.0,0.0,0.0,0.0,0.0,0.0,0.0,0.0,0.0,0.0,0.0,0.0,0.0,0.0,0.0,0.0,0.0,0.0,0.0,0.0,0.0,0.0,0.0,0.0,0.0,0.0,0.0,0.0,0.0,0.0,0.0,0.0,-2.0654,-2.0879,-2.0847,0.0,0.0,0.0,0.0,0.0,0.0,0.0,0.0,0.0,0.0,0.0,0.0,0.0,0.0,0.0,0.0,0.0,0.0,0.0,0.0,0.0,0.0,0.0,0.0,0.0,0.0,0.0,0.0,0.0,0.0,0.0,0.0,0.0,0.0,0.0,0.0,0.0,0.0,0.0,0.0,0.0,0.0,0.0,0.0,0.0,0.0,0.0,0.0,0.0,0.0,0.0,0.0,0.0,0.0,0.0,0.0,0.0,0.0,0.0,0.0,0.0,0.0,0.0,0.0,0.0,0.0,0.0,0.0,0.0,0.0,0.0,0.0,0.0,0.0,0.0,0.0,0.0,0.0,0.0,0.0,0.0,0.0,0.0,0.0,0.0,0.0,0.0,0.0,0.0,0.0,0.0,0.0,0.0,0.0,0.0,0.0,0.0,0.0,0.0,0.0,0.0,0.0,0.0,0.0,0.0,0.0,0.0,0.0,0.0,0.0,-2.1316,-2.1959,-2.1958,0.0,-2.1967,0.0,0.0,0.0,0.0,0.0,0.0,0.0,0.0,0.0,0.0,0.0,0.0,0.0,0.0,0.0,0.0,0.0,0.0,0.0,0.0,0.0,0.0,0.0,0.0,0.0,0.0,0.0,0.0,0.0,0.0,0.0,0.0,0.0,0.0,0.0,0.0,0.0,0.0,0.0,0.0,0.0,0.0,0.0,0.0,0.0,0.0,0.0,0.0,0.0,0.0,0.0,0.0,0.0,0.0,0.0,0.0,0.0,0.0,0.0,0.0,0.0,0.0,0.0,0.0,0.0,0.0,0.0,0.0,0.0,0.0,0.0,0.0,0.0,0.0,0.0,0.0,0.0,0.0,0.0,0.0,0.0,0.0,0.0,0.0,0.0,0.0,0.0,0.0,0.0,0.0,0.0,0.0,0.0,0.0,0.0,0.0,0.0,0.0,0.0,0.0,0.0,0.0,0.0,0.0,0.0,0.0,0.0,0.0,0.0,0.0,-2.1769,-2.2086,-2.2099,-2.234,0.0,0.0,0.0,0.0,0.0,0.0,0.0,0.0,0.0,0.0,0.0,0.0,0.0,0.0,0.0,0.0,0.0,0.0,0.0,0.0,0.0,0.0,0.0,0.0,0.0,0.0,0.0,0.0,0.0,0.0,0.0,0.0,0.0,0.0,0.0,0.0,0.0,0.0,0.0,0.0,0.0,0.0,0.0,0.0,0.0,0.0,0.0,0.0,0.0,0.0,0.0,0.0,0.0,0.0,0.0,0.0,0.0,0.0,0.0,0.0,0.0,0.0,0.0,0.0,0.0,0.0,0.0,0.0,0.0,0.0,0.0,0.0,0.0,0.0,0.0,0.0,0.0,0.0,0.0,0.0,0.0,0.0,0.0,0.0,0.0,0.0,0.0,0.0,0.0,0.0,0.0,0.0,0.0,0.0,0.0,0.0,0.0,0.0,0.0,0.0,0.0,0.0,0.0,0.0,0.0,0.0,0.0,0.0,0.0,0.0,-2.2679,-2.2232,-2.2232,-2.2525,-2.3005,-2.3613,0.0,0.0,0.0,0.0,0.0,0.0,0.0,0.0,0.0,0.0,0.0,0.0,0.0,0.0,0.0,0.0,0.0,0.0,0.0,0.0,0.0,0.0,0.0,0.0,0.0,0.0,0.0,0.0,0.0,0.0,0.0,0.0,0.0,0.0,0.0,0.0,0.0,0.0,0.0,0.0,0.0,0.0,0.0,0.0,0.0,0.0,0.0,0.0,0.0,0.0,0.0,0.0,0.0,0.0,0.0,0.0,0.0,0.0,0.0,0.0,0.0,0.0,0.0,0.0,0.0,0.0,0.0,0.0,0.0,0.0,0.0,0.0,0.0,0.0,0.0,0.0,0.0,0.0,0.0,0.0,0.0,0.0,0.0,0.0,0.0,0.0,0.0,0.0,0.0,0.0,0.0,0.0,0.0,0.0,0.0,0.0,0.0,0.0,0.0,0.0,0.0,0.0,0.0,0.0,0.0,0.0,0.0,0.0,-2.4126,-2.3252,-2.2757,-2.2784,-2.3704,-2.4211,0.0,0.0,0.0,0.0,0.0,0.0,0.0,0.0,0.0,0.0,0.0,0.0,0.0,0.0,0.0,0.0,0.0,0.0,0.0,0.0,0.0,0.0,0.0,0.0,0.0,0.0,0.0,0.0,0.0,0.0,0.0,0.0,0.0,0.0,0.0,0.0,0.0,0.0,0.0,0.0,0.0,0.0,0.0,0.0,0.0,0.0,0.0,0.0,0.0,0.0,0.0,0.0,0.0,0.0,0.0,0.0,0.0,0.0,0.0,0.0,0.0,0.0,0.0,0.0,0.0,0.0,0.0,0.0,0.0,0.0,0.0,0.0,0.0,0.0,0.0,0.0,0.0,0.0,0.0,0.0,0.0,0.0,0.0,0.0,0.0,0.0,0.0,0.0,0.0,0.0,0.0,0.0,0.0,0.0,0.0,0.0,0.0,0.0,0.0,0.0,0.0,0.0,0.0,0.0,0.0,0.0,0.0,0.0,0.0,-2.4483,-2.3644,-2.3203,-2.3209,-2.3601,-2.4069,0.0,0.0,0.0,0.0,0.0,0.0,0.0,0.0,0.0,0.0,0.0,0.0,0.0,0.0,0.0,0.0,0.0,0.0,0.0,0.0,0.0,0.0,0.0,0.0,0.0,0.0,0.0,0.0,0.0,0.0,0.0,0.0,0.0,0.0,0.0,0.0,0.0,0.0,0.0,0.0,0.0,0.0,0.0,0.0,0.0,0.0,0.0,0.0,0.0,0.0,0.0,0.0,0.0,0.0,0.0,0.0,0.0,0.0,0.0,0.0,0.0,0.0,0.0,0.0,0.0,0.0,0.0,0.0,0.0,0.0,0.0,0.0,0.0,0.0,0.0,0.0,0.0,0.0,0.0,0.0,0.0,0.0,0.0,0.0,0.0,0.0,0.0,0.0,0.0,0.0,0.0,0.0,0.0,0.0,0.0,0.0,0.0,0.0,0.0,0.0,0.0,0.0,0.0,0.0,0.0,0.0,0.0,0.0,0.0,-2.4391,0.0,-2.3761,-2.3514,-2.3843,-2.4346,0.0,0.0,0.0,0.0,0.0,0.0,0.0,0.0,0.0,0.0,0.0,0.0,0.0,0.0,0.0,0.0,0.0,0.0,0.0,0.0,0.0,0.0,0.0,0.0,0.0,0.0,0.0,0.0,0.0,0.0,0.0,0.0,0.0,0.0,0.0,0.0,0.0,0.0,0.0,0.0,0.0,0.0,0.0,0.0,0.0,0.0,0.0,0.0,0.0,0.0,0.0,0.0,0.0,0.0,0.0,0.0,0.0,0.0,0.0,0.0,0.0,0.0,0.0,0.0,0.0,0.0,0.0,0.0,0.0,0.0,0.0,0.0,0.0,0.0,0.0,0.0,0.0,0.0,0.0,0.0,0.0,0.0,0.0,0.0,0.0,0.0,0.0,0.0,0.0,0.0,0.0,0.0,0.0,0.0,0.0,0.0,0.0,0.0,0.0,0.0,0.0,0.0,0.0,0.0,0.0,0.0,0.0,0.0,-2.4745,-2.3878,-2.4568,-2.4625,-2.3796,-2.4701,-2.5174,0.0,0.0,0.0,0.0,0.0,0.0,0.0,0.0,0.0,0.0,0.0,0.0,0.0,0.0,0.0,0.0,0.0,0.0,0.0,0.0,0.0,0.0,0.0,0.0,0.0,0.0,0.0,0.0,0.0,0.0,0.0,0.0,0.0,0.0,0.0,0.0,0.0,0.0,0.0,0.0,0.0,0.0,0.0,0.0,0.0,0.0,0.0,0.0,0.0,0.0,0.0,0.0,0.0,0.0,0.0,0.0,0.0,0.0,0.0,0.0,0.0,0.0,0.0,0.0,0.0,0.0,0.0,0.0,0.0,0.0,0.0,0.0,0.0,0.0,0.0,0.0,0.0,0.0,0.0,0.0,0.0,0.0,0.0,0.0,0.0,0.0,0.0,0.0,0.0,0.0,0.0,0.0,0.0,0.0,0.0,0.0,0.0,0.0,0.0,0.0,0.0,0.0,0.0,0.0,0.0,0.0,0.0,0.0,0.0,-2.6511,-2.6708,-2.6715,-2.6485,-2.6797,-2.7024,0.0,0.0,0.0,0.0,0.0,0.0,0.0,0.0,0.0,0.0,0.0,0.0,0.0,0.0,0.0,0.0,0.0,0.0,0.0,0.0,0.0,0.0,0.0,0.0,0.0,0.0,0.0,0.0,0.0,0.0,0.0,0.0,0.0,0.0,0.0,0.0,0.0,0.0,0.0,0.0,0.0,0.0,0.0,0.0,0.0,0.0,0.0,0.0,0.0,0.0,0.0,0.0,0.0,0.0,0.0,0.0,0.0,0.0,0.0,0.0,0.0,0.0,0.0,0.0,0.0,0.0,0.0,0.0,0.0,0.0,0.0,0.0,0.0,0.0,0.0,0.0,0.0,0.0,0.0,0.0,0.0,0.0,0.0,0.0,0.0,0.0,0.0,0.0,0.0,0.0,0.0,0.0,0.0,0.0,0.0,0.0,0.0,0.0,0.0,0.0,0.0,0.0,0.0,0.0,0.0,0.0,0.0,0.0,0.0,-3.0036,-2.9162,-2.867,-2.8676,-2.8448,-2.8372,-2.852,0.0,0.0,0.0,0.0,0.0,0.0,0.0,0.0,0.0,0.0,0.0,0.0,0.0,0.0,0.0,0.0,0.0,0.0,0.0,0.0,0.0,0.0,0.0,0.0,0.0,0.0,0.0,0.0,0.0,0.0,0.0,0.0,0.0,0.0,0.0,0.0,0.0,0.0,0.0,0.0,0.0,0.0,0.0,0.0,0.0,0.0,0.0,0.0,0.0,0.0,0.0,0.0,0.0,0.0,0.0,0.0,0.0,0.0,0.0,0.0,0.0,0.0,0.0,0.0,0.0,0.0,0.0,0.0,0.0,0.0,0.0,0.0,0.0,0.0,0.0,0.0,0.0,0.0,0.0,0.0,0.0,0.0,0.0,0.0,0.0,0.0,0.0,0.0,0.0,0.0,0.0,0.0,0.0,0.0,0.0,0.0,0.0,0.0,0.0,0.0,0.0,0.0,0.0,0.0,0.0,0.0,0.0,0.0,-3.4139,-3.1924,-3.0714,-3.0528,-2.9902,-2.9505,0.0,0.0,0.0,0.0,0.0,0.0,0.0,0.0,0.0,0.0,0.0,0.0,0.0,0.0,0.0,0.0,0.0,0.0,0.0,0.0,0.0,0.0,0.0,0.0,0.0,0.0,0.0,0.0,0.0,0.0,0.0,0.0,0.0,0.0,0.0,0.0,0.0,0.0,0.0,0.0,0.0,0.0,0.0,0.0,0.0,0.0,0.0,0.0,0.0,0.0,0.0,0.0,0.0,0.0,0.0,0.0,0.0,0.0,0.0,0.0,0.0,0.0,0.0,0.0,0.0,0.0,0.0,0.0,0.0,0.0,0.0,0.0,0.0,0.0,0.0,0.0,0.0,0.0,0.0,0.0,0.0,0.0,0.0,0.0,0.0,0.0,0.0,0.0,0.0,0.0,0.0,0.0,0.0,0.0,0.0,0.0,0.0,0.0,0.0,0.0,0.0,0.0,0.0,0.0,0.0,0.0,0.0,0.0,0.0,-3.5078,-3.5733,-3.5155,-3.3288,-3.3081,-3.2498,0.0,0.0,0.0,0.0,0.0,0.0,0.0,0.0,0.0,0.0,0.0,0.0,0.0,0.0,0.0,0.0,0.0,0.0,0.0,0.0,0.0,0.0,0.0,0.0,0.0,0.0,0.0,0.0,0.0,0.0,0.0,0.0,0.0,0.0,0.0,0.0,0.0,0.0,0.0,0.0,0.0,0.0,0.0,0.0,0.0,0.0,0.0,0.0,0.0,0.0,0.0,0.0,0.0,0.0,0.0,0.0,0.0,0.0,0.0,0.0,0.0,0.0,0.0,0.0,0.0,0.0,0.0,0.0,0.0,0.0,0.0,0.0,0.0,0.0,0.0,0.0,0.0,0.0,0.0,0.0,0.0,0.0,0.0,0.0,0.0,0.0,0.0,0.0,0.0,0.0,0.0,0.0,0.0,0.0,0.0,0.0,0.0,0.0,0.0,0.0,0.0,0.0,0.0,0.0,0.0,0.0,0.0,0.0,-3.5355,-3.6575,-3.7931,-3.7932,-3.6402,-3.5444,-3.4352,0.0,0.0,0.0,0.0,0.0,0.0,0.0,0.0,0.0,0.0,0.0,0.0,0.0,0.0,0.0,0.0,0.0,0.0,0.0,0.0,0.0,0.0,0.0,0.0,0.0,0.0,0.0,0.0,0.0,0.0,0.0,0.0,0.0,0.0,0.0,0.0,0.0,0.0,0.0,0.0,0.0,0.0,0.0,0.0,0.0,0.0,0.0,0.0,0.0,0.0,0.0,0.0,0.0,0.0,0.0,0.0,0.0,0.0,0.0,0.0,0.0,0.0,0.0,0.0,0.0,0.0,0.0,0.0,0.0,0.0,0.0,0.0,0.0,0.0,0.0,0.0,0.0,0.0,0.0,0.0,0.0,0.0,0.0,0.0,0.0,0.0,0.0,0.0,0.0,0.0,0.0,0.0,0.0,0.0,0.0,0.0,0.0,0.0,0.0,0.0,0.0,0.0,0.0,0.0,0.0,0.0,0.0,0.0,-3.6434,-3.8066,-3.9038,-3.9534,-3.9477,-3.7204,-3.5534,0.0,0.0,0.0,0.0,0.0,0.0,0.0,0.0,0.0,0.0,0.0,0.0,0.0,0.0,0.0,0.0,0.0,0.0,0.0,0.0,0.0,0.0,0.0,0.0,0.0,0.0,0.0,0.0,0.0,0.0,0.0,0.0,0.0,0.0,0.0,0.0,0.0,0.0,0.0,0.0,0.0,0.0,0.0,0.0,0.0,0.0,0.0,0.0,0.0,0.0,0.0,0.0,0.0,0.0,0.0,0.0,0.0,0.0,0.0,0.0,0.0,0.0,0.0,0.0,0.0,0.0,0.0,0.0,0.0,0.0,0.0,0.0,0.0,0.0,0.0,0.0,0.0,0.0,0.0,0.0,0.0,0.0,0.0,0.0,0.0,0.0,0.0,0.0,0.0,0.0,0.0,0.0,0.0,0.0,0.0,0.0,0.0,0.0,0.0,0.0,0.0,0.0,0.0,0.0,0.0,0.0,0.0,0.0,-3.6979,-3.8093,-3.9631,-4.0449,-4.0486,-3.8659,-3.6997,0.0,0.0,0.0,0.0,0.0,0.0,0.0,0.0,0.0,0.0,0.0,0.0,0.0,0.0,0.0,0.0,0.0,0.0,0.0,0.0,0.0,0.0,0.0,0.0,0.0,0.0,0.0,0.0,0.0,0.0,0.0,0.0,0.0,0.0,0.0,0.0,0.0,0.0,0.0,0.0,0.0,0.0,0.0,0.0,0.0,0.0,0.0,0.0,2.6685,0.0,0.0,0.0,0.0,0.0,0.0,0.0,0.0,0.0,0.0,0.0,0.0,0.0,0.0,0.0,0.0,0.0,0.0,0.0,0.0,0.0,0.0,0.0,0.0,0.0,0.0,0.0,0.0,0.0,0.0,0.0,0.0,0.0,0.0,0.0,0.0,0.0,0.0,0.0,0.0,0.0,0.0,0.0,0.0,0.0,0.0,0.0,0.0,0.0,0.0,0.0,0.0,0.0,0.0,0.0,0.0,0.0,0.0,0.0,-3.7756,-3.8704,-4.0044,-4.077,-4.0759,-3.9536,-3.8088,0.0,0.0,0.0,0.0,0.0,0.0,0.0,0.0,0.0,0.0,0.0,0.0,0.0,0.0,0.0,0.0,0.0,0.0,0.0,0.0,0.0,0.0,0.0,0.0,0.0,0.0,0.0,0.0,0.0,0.0,0.0,0.0,0.0,0.0,0.0,0.0,0.0,0.0,0.0,0.0,0.0,0.0,0.0,0.0,0.0,0.0,0.0,0.0,0.0,0.0,0.0,0.0,0.0,0.0,0.0,0.0,0.0,0.0,0.0,0.0,0.0,0.0,0.0,0.0,0.0,0.0,0.0,0.0,0.0,0.0,0.0,0.0,0.0,0.0,0.0,0.0,0.0,0.0,0.0,0.0,0.0,0.0,0.0,0.0,0.0,0.0,0.0,0.0,0.0,0.0,0.0,0.0,0.0,0.0,0.0,0.0,0.0,0.0,0.0,0.0,0.0,0.0,0.0,0.0,0.0,0.0,0.0,-3.6715,-3.8609,-3.9554,-4.061,-4.1104,-4.0984,-4.0202,-3.8981,-3.7311,0.0,0.0,0.0,0.0,0.0,0.0,0.0,0.0,0.0,0.0,0.0,0.0,0.0,0.0,0.0,0.0,0.0,0.0,0.0,0.0,0.0,0.0,0.0,0.0,0.0,0.0,0.0,0.0,0.0,0.0,0.0,0.0,0.0,0.0,0.0,0.0,0.0,0.0,2.5029,2.5299,0.0,0.0,0.0,0.0,0.0,0.0,0.0,0.0,2.6807,0.0,0.0,0.0,0.0,0.0,0.0,0.0,0.0,0.0,0.0,0.0,0.0,0.0,0.0,0.0,0.0,0.0,0.0,0.0,0.0,0.0,0.0,0.0,0.0,0.0,0.0,0.0,0.0,0.0,0.0,0.0,0.0,0.0,0.0,0.0,0.0,0.0,0.0,0.0,0.0,0.0,0.0,0.0,0.0,0.0,0.0,0.0,0.0,0.0,0.0,0.0,0.0,0.0,0.0,0.0,0.0,-3.4624,-3.7398,-3.9314,-4.0308,-4.1933,-4.2492,-4.1809,-4.1027,-3.9821,-3.8142,0.0,0.0,0.0,0.0,0.0,0.0,0.0,0.0,0.0,0.0,0.0,0.0,0.0,0.0,0.0,0.0,0.0,0.0,0.0,0.0,0.0,0.0,0.0,0.0,0.0,0.0,0.0,0.0,0.0,0.0,0.0,0.0,0.0,0.0,0.0,0.0,0.0,0.0,0.0,2.5931,2.5953,0.0,0.0,0.0,0.0,0.0,0.0,0.0,0.0,2.7718,0.0,0.0,0.0,0.0,0.0,0.0,0.0,0.0,0.0,0.0,0.0,0.0,0.0,0.0,0.0,0.0,0.0,0.0,0.0,0.0,0.0,0.0,0.0,0.0,0.0,0.0,0.0,0.0,0.0,0.0,0.0,0.0,0.0,0.0,0.0,0.0,0.0,0.0,0.0,0.0,0.0,0.0,0.0,0.0,0.0,0.0,0.0,0.0,0.0,0.0,0.0,0.0,0.0,0.0,0.0,-3.6008,-3.8328,-4.025,-4.175,-4.268,-4.2985,-4.2673,-4.1867,-4.0641,0.0,0.0,0.0,0.0,0.0,0.0,0.0,0.0,0.0,0.0,0.0,0.0,0.0,0.0,0.0,0.0,0.0,0.0,0.0,0.0,0.0,0.0,0.0,0.0,0.0,0.0,0.0,0.0,0.0,0.0,0.0,0.0,0.0,0.0,0.0,0.0,0.0,0.0,0.0,0.0,2.6098,2.6026,2.5676,0.0,0.0,0.0,0.0,0.0,0.0,2.7328,2.7256,0.0,0.0,0.0,0.0,0.0,0.0,0.0,0.0,0.0,0.0,0.0,0.0,0.0,0.0,0.0,0.0,0.0,0.0,0.0,0.0,0.0,0.0,0.0,0.0,0.0,0.0,0.0,0.0,0.0,0.0,0.0,0.0,0.0,0.0,0.0,0.0,0.0,0.0,0.0,0.0,0.0,0.0,0.0,0.0,0.0,0.0,0.0,0.0,0.0,0.0,0.0,0.0,0.0,0.0,0.0,-3.7329,-3.9248,-4.1169,-4.3069,-4.3421,-4.3547,-4.3453,-4.2625,-4.1344,0.0,0.0,0.0,0.0,0.0,0.0,0.0,0.0,0.0,0.0,0.0,0.0,0.0,0.0,0.0,0.0,0.0,0.0,0.0,0.0,0.0,0.0,0.0,0.0,0.0,0.0,0.0,0.0,0.0,0.0,0.0,0.0,0.0,0.0,0.0,0.0,0.0,0.0,0.0,0.0,0.0,2.6128,2.5827,2.6173,0.0,0.0,0.0,0.0,2.6901,2.6897,0.0,0.0,0.0,0.0,0.0,0.0,0.0,0.0,0.0,0.0,0.0,0.0,0.0,0.0,0.0,0.0,0.0,0.0,0.0,0.0,0.0,0.0,0.0,0.0,0.0,0.0,0.0,0.0,0.0,0.0,0.0,0.0,0.0,0.0,0.0,0.0,0.0,0.0,0.0,0.0,0.0,0.0,0.0,0.0,0.0,0.0,0.0,0.0,0.0,0.0,0.0,0.0,0.0,0.0,0.0,0.0,-3.7954,-3.9958,-4.1843,-4.3645,-4.4623,-4.4767,-4.4027,-4.328,-4.1747,0.0,0.0,0.0,0.0,0.0,0.0,0.0,0.0,0.0,0.0,0.0,0.0,0.0,0.0,0.0,0.0,0.0,0.0,0.0,0.0,0.0,0.0,0.0,0.0,0.0,0.0,0.0,0.0,0.0,0.0,0.0,0.0,0.0,0.0,0.0,0.0,0.0,0.0,0.0,0.0,0.0,2.6323,2.638,2.6152,2.6056,0.0,0.0,2.723,2.674,2.6737,0.0,0.0,0.0,0.0,0.0,0.0,0.0,0.0,0.0,0.0,0.0,0.0,0.0,0.0,0.0,0.0,0.0,0.0,0.0,0.0,0.0,0.0,0.0,0.0,0.0,0.0,0.0,0.0,0.0,0.0,0.0,0.0,0.0,0.0,0.0,0.0,0.0,0.0,0.0,0.0,0.0,0.0,0.0,0.0,0.0,0.0,0.0,0.0,0.0,0.0,0.0,0.0,0.0,0.0,0.0,-3.6021,-3.9365,-4.0892,-4.2533,-4.4399,-4.5046,-4.5197,-4.4834,-4.3579,-4.1911,0.0,0.0,0.0,0.0,0.0,0.0,0.0,0.0,0.0,0.0,0.0,0.0,0.0,0.0,0.0,0.0,0.0,0.0,0.0,0.0,0.0,0.0,0.0,0.0,0.0,0.0,0.0,0.0,0.0,0.0,0.0,0.0,0.0,0.0,0.0,0.0,0.0,0.0,0.0,0.0,0.0,0.0,2.6583,2.678,0.0,0.0,0.0,2.7235,2.6649,0.0,0.0,0.0,0.0,0.0,0.0,0.0,0.0,0.0,0.0,0.0,0.0,0.0,0.0,0.0,0.0,0.0,0.0,0.0,0.0,0.0,0.0,0.0,0.0,0.0,0.0,0.0,0.0,0.0,0.0,0.0,0.0,0.0,0.0,0.0,0.0,0.0,0.0,0.0,0.0,0.0,0.0,0.0,0.0,0.0,0.0,0.0,0.0,0.0,0.0,0.0,0.0,0.0,0.0,0.0,0.0,0.0,-4.0323,-4.1416,-4.2887,-4.4801,-4.5072,-4.5224,-4.5256,-4.3625,0.0,0.0,0.0,0.0,0.0,0.0,0.0,0.0,0.0,0.0,0.0,0.0,0.0,0.0,0.0,0.0,0.0,0.0,0.0,0.0,0.0,0.0,0.0,0.0,0.0,0.0,0.0,2.2844,0.0,0.0,0.0,0.0,0.0,0.0,0.0,0.0,0.0,0.0,0.0,0.0,0.0,0.0,2.6869,2.6687,2.7098,2.731,0.0,0.0,2.6828,2.6228,2.5948,2.5635,0.0,0.0,0.0,0.0,0.0,0.0,0.0,0.0,0.0,0.0,0.0,0.0,0.0,0.0,0.0,0.0,0.0,0.0,0.0,0.0,0.0,0.0,0.0,0.0,0.0,0.0,0.0,0.0,0.0,0.0,0.0,0.0,0.0,0.0,0.0,0.0,0.0,0.0,0.0,0.0,0.0,0.0,0.0,0.0,0.0,0.0,0.0,0.0,0.0,0.0,0.0,0.0,0.0,0.0,0.0,-4.0041,-4.1241,-4.2697,-4.4448,-4.4783,-4.4938,-4.4912,-4.3433,-4.2151,0.0,0.0,0.0,0.0,0.0,0.0,0.0,0.0,0.0,0.0,0.0,0.0,0.0,0.0,0.0,0.0,0.0,0.0,0.0,0.0,0.0,0.0,0.0,0.0,0.0,0.0,0.0,0.0,0.0,0.0,0.0,0.0,0.0,0.0,0.0,0.0,0.0,0.0,0.0,0.0,0.0,2.6353,2.6808,2.6772,2.6496,0.0,0.0,2.591,2.529,2.5109,2.4979,2.4718,0.0,0.0,0.0,0.0,0.0,0.0,0.0,0.0,0.0,0.0,0.0,0.0,0.0,0.0,0.0,0.0,0.0,0.0,0.0,0.0,0.0,0.0,0.0,0.0,0.0,0.0,0.0,0.0,0.0,0.0,0.0,0.0,0.0,0.0,0.0,0.0,0.0,0.0,0.0,0.0,0.0,0.0,0.0,0.0,0.0,0.0,0.0,0.0,0.0,0.0,0.0,0.0,0.0,-3.7403,-4.0654,-4.1215,-4.2404,-4.4223,-4.4508,-4.4642,-4.4789,-4.3673,-4.2444,0.0,0.0,0.0,0.0,0.0,0.0,0.0,0.0,0.0,0.0,0.0,0.0,0.0,0.0,0.0,0.0,0.0,0.0,0.0,0.0,0.0,0.0,0.0,0.0,0.0,0.0,0.0,0.0,2.2131,2.2582,2.3057,0.0,0.0,0.0,0.0,0.0,0.0,0.0,0.0,0.0,0.0,2.6128,2.686,2.6722,0.0,0.0,2.5786,2.5345,2.4805,2.4537,2.4442,2.4573,2.4448,0.0,0.0,0.0,0.0,0.0,0.0,0.0,0.0,0.0,0.0,0.0,0.0,0.0,0.0,0.0,0.0,0.0,0.0,0.0,0.0,0.0,0.0,0.0,0.0,0.0,0.0,0.0,0.0,0.0,0.0,0.0,0.0,0.0,0.0,0.0,0.0,0.0,0.0,0.0,0.0,0.0,0.0,0.0,0.0,0.0,0.0,0.0,0.0,0.0,0.0,0.0,0.0,-3.7406,-4.0958,-4.1167,-4.2177,-4.4004,-4.4217,-4.4379,-4.4495,-4.3719,-4.2714,0.0,0.0,0.0,0.0,0.0,0.0,0.0,0.0,0.0,0.0,0.0,0.0,0.0,0.0,0.0,0.0,0.0,0.0,0.0,0.0,0.0,0.0,0.0,0.0,0.0,0.0,0.0,0.0,2.1145,2.1672,2.2114,0.0,0.0,0.0,0.0,0.0,0.0,0.0,0.0,0.0,0.0,2.5036,2.5725,2.5715,2.559,2.5343,2.4867,2.4418,2.4092,2.3784,2.3737,2.415,0.0,0.0,0.0,0.0,0.0,0.0,0.0,0.0,0.0,0.0,0.0,0.0,0.0,0.0,0.0,0.0,0.0,0.0,0.0,0.0,0.0,0.0,0.0,0.0,0.0,0.0,0.0,0.0,0.0,0.0,-2.434,0.0,0.0,0.0,0.0,0.0,0.0,0.0,0.0,0.0,0.0,0.0,0.0,0.0,0.0,0.0,0.0,0.0,0.0,0.0,0.0,0.0,0.0,-3.7223,-4.0632,-4.1058,-4.2041,-4.3656,-4.3968,-4.4091,-4.4087,-4.3401,-4.2953,-4.2809,0.0,0.0,0.0,0.0,0.0,0.0,0.0,0.0,0.0,0.0,0.0,0.0,0.0,0.0,0.0,0.0,0.0,0.0,0.0,0.0,0.0,0.0,0.0,0.0,0.0,0.0,2.027,2.0121,2.0118,0.0,0.0,0.0,0.0,0.0,0.0,0.0,0.0,0.0,0.0,2.2575,2.2698,2.3167,2.3469,2.3598,2.3305,2.3093,2.293,2.2941,2.282,2.2885,0.0,0.0,0.0,0.0,0.0,0.0,0.0,0.0,0.0,0.0,0.0,0.0,0.0,0.0,0.0,0.0,0.0,0.0,0.0,0.0,0.0,0.0,0.0,0.0,0.0,0.0,0.0,-2.8001,-2.7651,0.0,0.0,0.0,0.0,0.0,0.0,0.0,0.0,0.0,0.0,0.0,-3.4693,-3.5028,0.0,0.0,0.0,0.0,0.0,0.0,0.0,0.0,0.0,0.0,0.0,0.0,-3.7645,-4.0384,-4.1267,-4.2224,-4.3388,-4.3528,-4.361,-4.3761,-4.3536,-4.3065,-4.2318,0.0,0.0,0.0,0.0,0.0,0.0,0.0,0.0,0.0,0.0,0.0,0.0,0.0,0.0,0.0,0.0,0.0,0.0,0.0,0.0,0.0,0.0,0.0,0.0,0.0,1.8256,0.0,0.0,0.0,0.0,0.0,0.0,0.0,0.0,0.0,0.0,0.0,2.1117,2.1118,2.1284,2.1718,2.2462,2.2625,2.2646,0.0,0.0,0.0,0.0,0.0,0.0,0.0,0.0,0.0,0.0,0.0,0.0,0.0,0.0,3.1298,3.0627,3.0844,3.1255,3.1612,0.0,0.0,0.0,0.0,0.0,0.0,0.0,0.0,0.0,0.0,0.0,0.0,0.0,0.0,-3.0436,0.0,-2.8928,0.0,0.0,0.0,0.0,0.0,0.0,0.0,0.0,-3.4394,-3.5687,-3.6773,-3.7398,-3.7685,0.0,-3.7611,-3.6755,0.0,0.0,0.0,0.0,0.0,0.0,0.0,0.0,-3.7828,-4.0275,-4.1361,-4.2323,-4.3178,-4.325,-4.3339,-4.3461,-4.3461,-4.2954,-4.1922,-4.0184,-3.8672,0.0,0.0,0.0,0.0,0.0,0.0,0.0,0.0,0.0,0.0,0.0,0.0,0.0,0.0,0.0,0.0,0.0,0.0,0.0,0.0,0.0,0.0,0.0,1.63,0.0,0.0,0.0,0.0,0.0,0.0,0.0,0.0,0.0,1.8879,1.918,1.9288,1.9369,1.9675,2.0214,2.1045,0.0,0.0,0.0,0.0,0.0,0.0,0.0,2.2209,2.2768,2.3993,2.5397,2.6965,2.8738,3.0352,3.161,0.0,0.0,3.2349,3.2736,3.3375,3.3787,3.4129,3.4406,3.4542,3.5204,3.5726,0.0,0.0,0.0,0.0,0.0,0.0,0.0,0.0,-3.3555,-3.3565,0.0,-3.1442,0.0,0.0,0.0,0.0,0.0,-3.174,0.0,0.0,-3.6396,-3.761,-3.7845,-3.9349,-4.0119,-4.0101,-3.9951,-3.9763,-3.9432,-3.6572,0.0,0.0,0.0,0.0,0.0,0.0,-3.7793,-4.0273,-4.1379,-4.2287,-4.305,-4.3142,-4.3178,-4.316,-4.316,-4.2705,-4.1777,-4.1426,-4.01,-3.7528,-3.6774,0.0,0.0,0.0,0.0,0.0,0.0,0.0,0.0,0.0,0.0,0.0,0.0,0.0,0.0,0.0,0.0,0.0,0.0,0.0,0.0,1.3168,0.0,0.0,0.0,0.0,0.0,0.0,0.0,0.0,0.0,0.0,1.6706,1.6953,1.7056,1.735,0.0,0.0,0.0,0.0,1.9469,1.9882,2.0147,2.0459,2.0867,2.1436,2.2164,2.3212,0.0,0.0,2.8805,3.0403,3.1823,3.3354,3.4493,3.5051,3.4401,3.5176,3.6071,3.6527,3.6873,3.7219,3.7502,3.7578,3.7775,-3.5673,0.0,0.0,0.0,0.0,-3.418,-3.4511,-3.4433,-3.5412,-3.5496,-3.4844,-3.3941,0.0,0.0,0.0,0.0,0.0,0.0,-3.5773,-3.7212,-3.853,-3.948,-4.011,-4.0596,-4.0788,-4.0744,-4.0608,-4.0167,-3.9458,-3.8377,-3.7145,-3.5785,0.0,0.0,0.0,0.0,-3.8815,-4.0778,-4.1776,-4.2415,-4.2727,-4.2765,-4.2728,-4.265,-4.265,-4.2368,-4.1851,-4.1094,-4.0222,-3.9168,-3.7154,0.0,0.0,0.0,0.0,0.0,0.0,0.0,0.0,0.0,0.0,0.0,0.0,0.0,0.0,0.0,0.0,0.0,0.0,0.0,0.8512,0.9932,1.1157,0.0,0.0,0.0,0.0,0.0,0.0,0.0,0.0,0.0,1.4097,1.5238,1.6106,0.0,0.0,1.7797,1.8482,1.9112,1.9587,1.9863,2.0255,0.0,0.0,2.1641,2.2392,2.3305,2.5428,2.7762,3.0159,3.1523,3.2775,3.4264,3.5705,3.6806,3.7261,3.7498,3.7828,3.8221,3.8617,3.8883,3.9002,3.9196,3.9441,-3.8212,-3.6659,-3.5993,-3.557,-3.5439,-3.6199,-3.6489,-3.6414,-3.7128,-3.7232,-3.6864,-3.6263,-3.5755,-3.5384,-3.4712,0.0,0.0,0.0,-3.7723,-3.9043,-3.9782,-4.0385,-4.0907,-4.1186,-4.1244,-4.1153,-4.1032,-4.0656,-4.0049,-3.9856,-3.9208,-3.8115,0.0,0.0,-3.7288,-3.8181,-3.9347,-4.0793,-4.1777,-4.2331,-4.2391,-4.2391,-4.2371,-4.229,-4.2231,-4.2047,-4.1805,-4.1135,-4.0468,-3.9761,-3.7973,-3.6194,0.0,0.0,0.0,0.0,0.0,0.0,0.0,0.0,0.0,0.0,0.0,-1.4278,0.0,0.0,0.0,0.0,0.026,0.3354,0.5481,0.7269,0.0,0.0,0.0,0.0,0.0,0.0,0.0,1.2694,1.2947,1.3073,1.2904,1.4101,1.5,1.5271,1.6436,1.7524,1.8245,0.0,1.9837,2.0242,2.0595,2.0994,2.1531,2.2148,2.3108,2.4704,2.6914,2.9133,3.1168,3.2619,3.3951,3.5423,3.6882,3.8127,3.8983,3.932,3.9537,3.9829,4.02,4.0474,4.0577,4.0838,4.1071,-3.9787,-3.9552,-3.8044,-3.7292,-3.7162,-3.7912,-3.8182,-3.8099,-3.8766,-3.8869,-3.8536,-3.8369,-3.8077,-3.7755,-3.7588,0.0,-3.8699,-3.8699,-3.9087,-3.9828,-4.0411,-4.0683,-4.0718,-4.1275,-4.1515,-4.134,-4.1209,-4.1111,-4.1006,-4.0871,-4.0438,-3.9686,-3.8274,-3.7581,-3.7629,-3.8542,-3.9446,-4.0332,-4.1372,-4.1948,-4.2019,-4.2002,-4.2019,-4.1998,-4.1807,-4.1599,-4.141,-4.1188,-4.055,-3.9391,-3.8819,-3.7418,-3.5033,0.0,0.0,0.0,0.0,0.0,0.0,0.0,0.0,0.0,0.0,0.0,0.0,0.0,0.0,0.0,-0.2224,0.0,0.2726,0.4977,0.0,0.0,0.0,1.0314,1.0961,1.1462,1.174,1.1708,0.0,0.0,1.2701,1.3306,1.3951,1.4627,1.6035,1.7337,1.8205,1.9175,2.0065,2.0727,2.1089,2.1441,2.2164,2.3023,2.4484,2.686,2.8743,3.0521,3.2268,3.3862,3.5341,3.6924,3.8126,3.922,4.0062,4.0803,4.1313,4.1423,4.1617,4.1831,4.1934,4.218,4.2342,-4.1249,-4.1115,-4.0426,-3.983,-3.9458,-4.0182,-4.0385,-4.0182,-4.0284,-4.0173,-3.9842,-3.9734,-3.9532,-3.9283,-3.9284,-3.9692,-4.0415,-4.0413,-4.0801,-4.1472,-4.1495,-4.1454,-4.1363,-4.1415,-4.126,-4.0937,-4.0795,-4.0645,-4.0461,-4.0255,-4.0028,-3.9825,-3.8854,-3.8286,-3.8207,-3.8231,-3.8809,-3.9851,-4.0132,-4.0667,-4.1378,-4.1311,-4.122,-4.1105,-4.0441,-3.9986,-3.9763,-3.8986,-3.8398,-3.7971,-3.7394,-3.6509,-3.5198,-3.3016,0.0,0.0,0.0,0.0,0.0,0.0,0.0,0.0,0.0,-1.7509,-1.6466,0.0,-1.3454,0.0,-0.5518,-0.1497,0.0482,0.279,0.0,0.0,0.719,0.8408,0.9345,1.0047,1.0617,1.0985,1.1282,1.1615,1.2128,1.2643,1.3369,1.4491,1.6024,1.7333,1.8239,1.9178,2.0014,2.0708,2.1071,2.163,2.291,2.4777,2.6749,2.8757,3.0499,3.2266,3.4034,3.5761,3.7436,3.8949,4.0089,4.1022,4.186,4.2444,4.2901,4.3231,4.2648,4.1987,4.21,4.2323,4.2542,-4.1546,-4.1492,-4.1491,-4.1266,-4.0879,-4.0954,-4.0909,-4.0722,-4.0652,-4.0691,-4.0795,-4.0983,-4.0947,-4.078,-4.0763,-4.0973,-4.1318,-4.1248,-4.1357,-4.1661,-4.1413,-4.1244,-4.1088,-4.086,-4.0604,-4.0402,-4.0187,-4.0037,-4.0011,-3.9738,-3.9625,-3.972,-3.9094,-3.8421,-3.7776,-3.7821,-3.819,-3.8777,-3.9271,-3.9903,-4.0808,-4.0642,-4.0367,-4.0011,-3.9409,-3.8865,-3.8366,-3.7767,-3.7336,-3.7136,-3.6584,-3.5823,-3.4961,-3.298,-3.083,0.0,0.0,0.0,0.0,0.0,0.0,0.0,0.0,0.0,0.0,0.0,-1.4978,-1.1495,-0.7029,-0.3459,-0.1366,0.1075,0.2995,0.4217,0.5544,0.6703,0.7632,0.8509,0.9234,0.9756,1.0454,1.1123,1.1776,1.2478,1.3391,1.4818,1.616,1.7379,1.8398,1.9508,2.0589,2.1319,2.1861,2.2707,2.4303,2.6379,2.8302,2.9899,3.1582,3.3324,3.5012,3.6649,3.8223,3.9703,4.0798,4.1749,4.262,4.312,4.3554,4.3914,4.3589,4.3129,4.3195,4.3441,4.3607,-4.1501,-4.1511,-4.1883,-4.196,-4.1722,-4.1071,-4.0745,-4.0708,-4.0634,-4.0918,-4.1486,-4.1902,-4.2034,-4.1941,-4.1801,-4.1758,-4.1736,-4.1453,-4.1272,-4.114,-4.0823,-4.0583,-4.0395,-4.0054,-3.9849,-3.9755,-3.9487,-3.9435,-3.9573,-3.9286,-3.9222,-3.9379,-3.9011,-3.8186,-3.7054,-3.7328,-3.7565,-3.7631,-3.8642,-3.9534,-4.0211,-3.9876,-3.9413,-3.8823,-3.8372,-3.7794,-3.7045,-3.6737,-3.6485,-3.6244,-3.5766,-3.5115,-3.4259,-3.2619,-3.0614,0.0,-2.6329,0.0,0.0,0.0,0.0,0.0,0.0,0.0,0.0,-1.777,-1.5441,-1.1174,-0.7629,-0.4787,-0.2939,-0.0393,0.1661,0.2928,0.4212,0.5308,0.6121,0.7121,0.7972,0.8585,0.9711,1.0728,1.1632,1.2528,1.3725,1.52,1.635,1.7461,1.8593,1.9899,2.1107,2.2134,2.301,2.4147,2.5934,2.7668,2.9246,3.0722,3.2426,3.4106,3.5807,3.7302,3.8743,4.0145,4.132,4.2238,4.3074,4.3566,4.4017,4.4581,4.4638,4.4546,4.4484,4.465,4.492,-4.2847,-4.2794,-4.2461,-4.2282,-4.2243,-4.1892,-4.1739,-4.1821,-4.18,-4.1748,-4.174,-4.1817,-4.1762,-4.167,-4.1542,-4.148,-4.1458,-4.1209,-4.1024,-4.0866,-4.0638,-4.0303,-3.9935,-3.979,-3.953,-3.9185,-3.9104,-3.905,-3.8969,-3.8914,-3.8914,-3.8898,-3.815,-3.7644,-3.7367,0.0,0.0,0.0,-3.8491,-3.9215,-3.9242,-3.859,-3.8078,-3.7754,-3.6421,0.0,-3.5416,-3.4455,-3.3915,-3.3879,-3.3862,0.0,0.0,0.0,0.0,0.0,0.0,0.0,0.0,0.0,0.0,0.0,-2.1669,-2.0713,-1.9289,-1.7017,-1.4506,-1.1817,-0.8892,-0.6322,-0.4242,-0.1851,0.02,0.1747,0.309,0.4384,0.5577,0.6662,0.7651,0.8683,0.9547,1.056,1.1697,1.2616,1.3729,1.5219,1.6407,1.7548,1.8771,1.9918,2.1016,2.2014,2.3635,2.5273,2.6637,2.8277,2.9995,3.1718,3.3662,3.5473,3.7256,3.8841,4.0424,4.1864,4.295,4.3788,4.4696,4.5165,4.5449,4.6035,4.6035,4.5711,4.4804,4.4729,4.4835,-4.2863,0.0,-4.2396,-4.2231,0.0,-4.1973,-4.1841,-4.178,-4.1892,-4.1784,-4.1498,-4.1498,-4.1346,-4.1094,-4.089,-4.0761,-4.0689,-4.0441,-4.0245,-4.0078,-3.9919,-3.9705,-3.9408,-3.9255,-3.904,-3.8794,-3.8738,-3.8711,-3.8683,-3.8572,-3.856,-3.86,-3.7935,-3.7412,-3.7046,-3.6466,-3.6467,-3.7084,-3.7763,-3.8275,-3.8535,-3.8031,-3.733,-3.6424,-3.5532,0.0,0.0,0.0,0.0,0.0,0.0,0.0,0.0,-3.1326,0.0,-2.9089,-2.7817,-2.669,-2.5695,-2.485,-2.4104,-2.3618,-2.2251,-2.0685,-1.8929,-1.6684,-1.4458,-1.2236,-0.9714,-0.7301,-0.517,-0.2818,-0.0806,0.0655,0.2268,0.3679,0.488,0.6087,0.726,0.8377,0.9249,1.0222,1.1471,1.2369,1.348,1.4926,1.6196,1.7367,1.8564,1.9737,2.0998,2.2642,2.4555,2.6247,2.7505,2.9071,3.0782,3.2562,3.4251,3.6027,3.78,3.9352,4.0878,4.2347,4.338,4.4288,4.5079,4.5537,4.5846,4.6235,4.6301,4.6115,4.5569,4.565,4.5762,-4.2414,-4.2277,-4.2065,-4.1913,-4.1805,-4.1736,-4.156,-4.1312,0.0,0.0,0.0,-4.1053,-4.0819,-4.0476,-4.0145,-3.9969,-3.9851,-3.9584,-3.9391,-3.9232,-3.9152,-3.899,-3.8832,-3.8628,-3.8504,-3.8476,-3.8363,-3.8363,-3.8448,-3.825,-3.8193,-3.8237,-3.7817,-3.7252,-3.6569,-3.6242,-3.651,-3.7185,-3.707,-3.7278,-3.7825,-3.7483,-3.6648,-3.5291,-3.4966,-3.4149,-3.281,-3.2512,-3.227,-3.1997,-3.2035,-3.1858,-3.1534,-3.1283,-3.0593,-2.9396,-2.8551,-2.7642,-2.6602,-2.5592,-2.4869,-2.452,-2.2386,-2.029,-1.8422,-1.6675,-1.4805,-1.2657,-1.0364,-0.8146,-0.6071,-0.3723,-0.1714,-0.0353,0.1467,0.304,0.4201,0.548,0.6802,0.8009,0.8958,0.9946,1.1214,1.2129,1.32,1.4601,1.6016,1.734,1.8525,1.9877,2.1412,2.3345,2.5024,2.674,2.8132,2.9636,3.1356,3.2912,3.4472,3.612,3.7771,3.9331,4.0777,4.2237,4.3273,4.4157,4.4988,4.5353,4.5693,4.6105,4.6013,4.6005,4.6253,4.6411,4.643,-4.1963,-4.1956,-4.1631,-4.1475,-4.1471,-4.1346,-4.118,-4.0965,-4.114,-4.1047,-4.0769,-4.0476,-4.0212,-3.9961,-3.9523,-3.9322,-3.9312,-3.9034,-3.8843,-3.8706,-3.8706,-3.8511,-3.823,-3.8201,-3.8103,-3.802,-3.7992,-3.7976,-3.7992,-3.7963,-3.7905,-3.7743,-3.7433,-3.6936,-3.6322,-3.6214,-3.6443,-3.6915,-3.6939,-3.6903,-3.6876,-3.6149,-3.5582,-3.5201,-3.4213,-3.3547,-3.3306,-3.2725,-3.2368,-3.2305,-3.1758,-3.1326,-3.1156,-3.0576,-2.984,-2.9025,-2.8356,-2.752,-2.6427,-2.6007,-2.5182,-2.377,-2.2211,-2.0535,-1.8722,-1.7031,-1.5326,-1.3457,-1.1151,-0.9042,-0.7117,-0.4778,-0.2724,-0.1162,0.0716,0.2375,0.3716,0.5118,0.6427,0.7602,0.865,0.981,1.1138,1.2236,1.3372,1.4798,1.6253,1.7777,1.942,2.081,2.2064,2.3461,2.4903,2.636,2.7872,2.9441,3.1146,3.2778,3.4306,3.5922,3.7748,3.9145,4.0519,4.2029,4.3033,4.3914,4.4797,4.5167,4.5441,4.5819,4.5666,4.5555,4.5786,4.576,4.576,-4.1565,-4.1448,-4.1307,-4.1192,-4.1105,-4.0907,-4.0782,-4.0655,-4.0436,-4.0313,-4.0255,-4.0003,-3.9696,-3.9292,-3.9007,-3.8772,-3.8606,-3.8415,-3.829,-3.8234,-3.8217,-3.8132,-3.7988,-3.7988,-3.7918,-3.7788,-3.7788,-3.7714,-3.761,-3.7447,-3.7312,-3.7238,-3.6784,-3.6364,-3.6007,-3.5971,-3.6101,-3.6365,-3.6597,-3.6899,-3.7184,-3.6635,-3.609,-3.5534,-3.475,-3.4065,-3.3401,-3.2872,-3.2418,-3.2145,-3.1997,-3.1784,-3.1378,-3.0866,-3.031,-2.9644,-2.8619,-2.7702,-2.6853,-2.5935,-2.4798,-2.3387,-2.2113,-2.0736,-1.9266,-1.7552,-1.5704,-1.3703,-1.175,-0.9883,-0.7928,-0.5659,-0.3642,-0.2125,-0.0052,0.184,0.3367,0.481,0.6184,0.757,0.8598,0.9724,1.1028,1.2079,1.3232,1.4643,1.6465,1.8363,1.9717,2.0806,2.1979,2.3329,2.4716,2.6302,2.7872,2.9371,3.0979,3.2692,3.4181,3.5762,3.7444,3.8855,4.0263,4.1706,4.2725,4.3578,4.4395,4.4686,4.4944,4.5142,4.5115,4.5008,4.5115,4.5052,4.5079,-4.1192,-4.1047,-4.0935,-4.084,-4.0704,-4.0436,-4.032,-4.0263,-3.9738,-3.9547,-3.9599,-3.9478,-3.9158,-3.865,-3.8455,-3.8258,-3.8017,-3.786,-3.7817,-3.7817,-3.7817,-3.7817,-3.7801,-3.7772,-3.7685,-3.7583,-3.7508,-3.7389,-3.7178,-3.6875,-3.6662,-3.6492,-3.6158,-3.5842,-3.5561,-3.5702,-3.5816,-3.589,-3.6207,-3.6625,-3.7104,-3.6851,-3.6356,-3.5729,-3.5272,-3.4598,-3.3598,-3.304,-3.2517,-3.2115,-3.2215,-3.2044,-3.1564,-3.117,-3.0681,-3.004,-2.8889,-2.7806,-2.6978,-2.5658,-2.4384,-2.3285,-2.2015,-2.0865,-1.9755,-1.8003,-1.604,-1.3963,-1.2319,-1.0588,-0.8528,-0.644,-0.4497,-0.2812,-0.0694,0.1285,0.2944,0.44,0.5831,0.7322,0.8374,0.9454,1.0702,1.1837,1.3246,1.5018,1.6995,1.8579,1.9672,2.0652,2.1725,2.3129,2.4559,2.6061,2.7767,2.9176,3.0678,3.2519,3.3859,3.5332,3.688,3.8361,3.9758,4.108,4.2142,4.2988,4.3684,4.4064,4.4333,4.4569,4.4485,4.4361,4.444,4.4474,4.4519,-4.0935,-4.0864,-4.0551,-4.0288,-4.0146,-3.9867,-3.9764,-3.9703,-3.9158,-3.8832,-3.8733,-3.8694,-3.8511,-3.8144,-3.7902,-3.7788,-3.773,-3.7599,-3.7539,-3.7539,-3.7539,-3.7539,-3.7524,-3.7359,-3.7254,-3.7194,-3.6952,-3.6723,-3.6554,-3.6321,-3.5943,-3.5457,-3.5666,-3.5468,-3.4995,-3.5404,-3.5696,-3.5739,-3.5759,-3.578,-3.5761,-3.5587,-3.5427,-3.5342,-3.4869,-3.443,-3.3995,-3.3282,-3.2751,-3.2529,-3.2012,-3.1582,-3.1283,-3.0696,-3.0144,-2.9672,-2.8777,-2.7687,-2.64,-2.5279,-2.434,-2.354,-2.2196,-2.099,-2.0127,-1.8245,-1.6394,-1.4628,-1.3011,-1.1153,-0.9023,-0.7031,-0.5094,-0.3205,-0.1189,0.0654,0.2184,0.3646,0.5073,0.6301,0.7729,0.9023,1.0245,1.1891,1.384,1.5879,1.7318,1.8586,1.9724,2.0557,2.1522,2.2979,2.4264,2.5577,2.7115,2.8595,3.0193,3.1833,3.3194,3.4678,3.6174,3.7572,3.8913,4.0178,4.118,4.2142,4.2896,4.3323,4.3651,4.4018,4.396,4.3726,4.3844,4.4006,4.4167,-4.0631,-4.0395,-4.018,-3.9867,-3.954,-3.9276,-3.9169,-3.9131,-3.8623,-3.8298,-3.8173,-3.8103,-3.8004,-3.786,-3.7743,-3.7642,-3.7569,-3.7539,-3.751,-3.751,-3.7405,-3.7329,-3.73,-3.7165,-3.6968,-3.6785,-3.6523,-3.6211,-3.5832,-3.5464,-3.52,-3.5078,-3.5143,-3.5218,-3.5436,-3.5522,-3.5523,-3.5529,-3.5397,-3.5128,-3.4819,-3.5251,-3.5537,-3.5485,-3.495,-3.4447,-3.4031,-3.3474,-3.2963,-3.2479,-3.2057,-3.1589,-3.1086,-3.0257,-2.9561,-2.9026,-2.7646,-2.6394,-2.5366,-2.4506,-2.3709,-2.2934,-2.1826,-2.0767,-1.9834,-1.8103,-1.6388,-1.474,-1.3133,-1.137,-0.944,-0.7591,-0.5737,-0.3829,-0.2042,-0.0333,0.1499,0.3067,0.4475,0.5868,0.7318,0.8706,1.0245,1.2531,1.4535,1.6199,1.7424,1.8736,1.9576,2.0506,2.1615,2.2828,2.3976,2.5246,2.6733,2.8269,2.9783,3.1247,3.2667,3.4098,3.5602,3.6855,3.8086,3.9397,4.0366,4.1295,4.2173,4.2585,4.2912,4.3325,4.3505,4.3355,4.3552,4.3611,4.373,-4.0644,-4.0307,-3.9813,-3.9372,-3.898,-3.8706,-3.8595,-3.8539,-3.81,-3.7841,-3.774,-3.7583,-3.7494,-3.751,-3.7553,-3.7508,-3.7405,-3.7391,-3.7361,-3.7315,-3.7164,-3.7074,-3.7028,-3.6831,-3.66,-3.6352,-3.599,-3.5512,-3.5004,-3.4762,-3.4623,-3.4718,-3.486,-3.5189,-3.56,-3.5473,-3.5276,-3.5019,-3.4825,-3.4397,-3.3924,-3.44,-3.4924,-3.506,-3.462,-3.4134,-3.3742,-3.3245,-3.2729,-3.2133,-3.1725,-3.1193,-3.0509,-2.9702,-2.897,-2.828,-2.6746,-2.548,-2.4803,-2.3919,-2.311,-2.2316,-2.1364,-2.039,-1.9376,-1.7904,-1.6344,-1.482,-1.3145,-1.1415,-0.965,-0.794,-0.6177,-0.4246,-0.2631,-0.0896,0.1009,0.252,0.4029,0.5423,0.6982,0.8813,1.0794,1.3181,1.5078,1.6045,1.7477,1.884,1.942,2.0454,2.1573,2.2719,2.3827,2.5109,2.66,2.794,2.9417,3.0711,3.2103,3.3479,3.4965,3.6055,3.7228,3.8436,3.9454,4.0466,4.1376,4.1867,4.2397,4.2665,4.2961,4.3162,4.3237,4.3298,4.3388,-4.1101,-4.0731,-3.9439,-3.8699,-3.842,-3.8217,-3.8144,-3.8087,-3.7637,-3.7447,-3.7387,-3.7165,-3.703,-3.7076,-3.7164,-3.7224,-3.7194,-3.7075,-3.703,-3.6999,-3.6816,-3.6708,-3.6677,-3.6273,-3.6037,-3.591,-3.5329,-3.4668,-3.4014,-3.4264,-3.4319,-3.4069,-3.4998,-3.5355,-3.5068,-3.5184,-3.4991,-3.423,-3.3894,-3.3428,-3.284,-3.2655,-3.3018,-3.3615,-3.3543,-3.33,-3.2988,-3.2426,-3.1857,-3.135,-3.0668,-3.008,-2.9566,-2.898,-2.824,-2.7321,-2.63,-2.545,-2.4741,-2.3642,-2.2665,-2.2038,-2.0867,-1.9855,-1.9147,-1.7652,-1.6203,-1.5001,-1.3126,-1.1331,-0.9548,-0.7941,-0.6236,-0.4249,-0.2464,-0.0841,0.0729,0.2129,0.353,0.4925,0.6813,0.9189,1.2219,1.3851,1.4976,1.6051,1.7272,1.8384,1.9413,2.0351,2.142,2.2677,2.3827,2.506,2.661,2.7762,2.8885,3.0102,3.1424,3.2692,3.3859,3.5102,3.6332,3.7548,3.8723,3.9763,4.0597,4.1305,4.1947,4.243,4.2936,4.317,4.3544,4.3232,4.3359,-4.095,-3.9921,-3.9178,-3.8447,-3.7756,-3.7594,-3.7535,-3.7506,-3.7254,-3.7135,-3.7135,-3.703,-3.6938,-3.68,-3.6754,-3.6816,-3.6861,-3.6816,-3.677,-3.6662,-3.6383,-3.6258,-3.6179,-3.5735,-3.5412,-3.5231,-3.4802,-3.4427,-3.4066,-3.3838,-3.4057,-3.4596,-3.4845,-3.4925,-3.4928,-3.4678,-3.4189,-3.3428,-3.3031,-3.2525,-3.1881,-3.1737,-3.1725,-3.1713,-3.2077,-3.2089,-3.1649,-3.1415,-3.0925,-3.0204,-2.9749,-2.9187,-2.8549,-2.7752,-2.6812,-2.5858,-2.5216,-2.4569,-2.3669,-2.287,-2.2021,-2.1148,-2.0336,-1.9406,-1.8415,-1.7199,-1.582,-1.4315,-1.2916,-1.1118,-0.914,-0.7593,-0.6091,-0.4252,-0.2912,-0.1457,0.0056,0.1513,0.2799,0.4419,0.6919,0.9743,1.1664,1.3408,1.4708,1.5672,1.6796,1.7905,1.8997,1.9975,2.1157,2.2577,2.3678,2.4815,2.639,2.7478,2.8513,2.9612,3.0824,3.2021,3.322,3.4345,3.5602,3.6713,3.7904,3.9177,4.0101,4.1505,4.2037,4.2765,4.3234,4.3635,4.417,4.3862,4.3991,-4.091,-3.9548,-3.9187,-3.8488,-3.7616,-3.7509,-3.7323,-3.7135,-3.6953,-3.6877,-3.6847,-3.677,-3.66,-3.6399,-3.6274,-3.6179,-3.6148,-3.6305,-3.6336,-3.6226,-3.591,-3.5718,-3.5574,-3.5184,-3.482,-3.452,-3.4128,-3.3889,-3.3798,-3.359,-3.3941,-3.4603,-3.4527,-3.4497,-3.4566,-3.4063,-3.3386,-3.2742,-3.2351,-3.1825,-3.1172,-3.0982,-3.0724,-3.0397,-3.0668,-3.0791,-3.0566,-3.0487,-3.0023,-2.9244,-2.8828,-2.8258,-2.7431,-2.6486,-2.5664,-2.4932,-2.4322,-2.3569,-2.261,-2.1869,-2.1003,-1.9916,-1.9302,-1.8586,-1.7543,-1.6471,-1.5179,-1.3727,-1.2318,-1.068,-0.8809,-0.7265,-0.5764,-0.4198,-0.308,-0.1793,-0.0168,0.1176,0.2853,0.5029,0.7587,0.9856,1.1455,1.298,1.4277,1.5351,1.6424,1.7477,1.8617,1.9813,2.0952,2.2325,2.3429,2.4569,2.5839,2.6945,2.8128,2.9244,3.0397,3.1504,3.2556,3.37,3.4853,3.595,3.7211,3.8485,3.9892,4.1401,4.2457,4.3239,4.365,4.3977,4.43,4.4527,4.4461,-4.0992,-3.9752,-3.9581,-3.889,-3.806,-3.7919,-3.7592,-3.7078,-3.6785,-3.66,-3.6507,-3.632,-3.6053,-3.5784,-3.572,-3.5429,-3.5118,-3.5429,-3.5608,-3.5591,-3.5329,-3.5067,-3.4854,-3.4534,-3.4162,-3.377,-3.3262,-3.3076,-3.3207,-3.3574,-3.3857,-3.3939,-3.4179,-3.4027,-3.3713,-3.3159,-3.2643,-3.2033,-3.1705,-3.1261,-3.0668,-3.0352,-3.0034,-2.9531,-2.9347,-2.9382,-2.9681,-2.9566,-2.9152,-2.8398,-2.7857,-2.7156,-2.6129,-2.5362,-2.4892,-2.4529,-2.3578,-2.256,-2.1743,-2.0739,-1.9768,-1.8736,-1.795,-1.7371,-1.653,-1.5624,-1.4552,-1.3305,-1.1773,-1.0123,-0.8579,-0.6927,-0.5373,-0.4086,-0.2801,-0.1458,-0.0112,0.1345,0.3412,0.6258,0.8312,0.9915,1.1345,1.2604,1.3846,1.5131,1.6146,1.7153,1.8513,1.9657,2.0696,2.1768,2.302,2.4273,2.5333,2.635,2.7647,2.8885,3.0034,3.116,3.2033,3.3104,3.4418,3.5602,3.7535,3.8897,4.0454,4.1902,4.2956,4.3717,4.4004,4.4367,4.4755,4.4948,4.4516,-4.1167,-4.0117,-3.9827,-3.9177,-3.8331,-3.7836,-3.7528,-3.7264,-3.6645,-3.6352,-3.6242,-3.5975,-3.5688,-3.5365,-3.5216,-3.4839,-3.439,-3.439,-3.4539,-3.4721,-3.4534,-3.4332,-3.4113,-3.3785,-3.3437,-3.3107,-3.3001,-3.3227,-3.3509,-3.362,-3.3736,-3.3918,-3.3623,-3.3245,-3.2772,-3.2164,-3.156,-3.1059,-3.0634,-3.0227,-2.9852,-2.976,-2.9485,-2.9035,-2.8757,-2.842,-2.7872,-2.8211,-2.8081,-2.7373,-2.686,-2.5994,-2.4971,-2.448,-2.3985,-2.3279,-2.2728,-2.192,-2.0936,-2.0012,-1.9086,-1.816,-1.7417,-1.6736,-1.6051,-1.5196,-1.411,-1.2807,-1.1437,-0.9955,-0.814,-0.6649,-0.5206,-0.3864,-0.2747,-0.1458,0.0056,0.2015,0.4195,0.6202,0.8036,0.9581,1.1017,1.2278,1.3527,1.4761,1.5672,1.673,1.8258,1.9406,2.049,2.1768,2.292,2.3976,2.505,2.6167,2.741,2.8642,2.976,3.0802,3.1681,3.2792,3.4041,3.5745,3.769,3.9397,4.095,4.2239,4.3314,4.4063,4.4405,4.4849,4.5391,4.5234,4.4745,-4.1286,-4.0497,-4.0249,-3.966,-3.8877,-3.8335,-3.7841,-3.7348,-3.676,-3.6312,-3.5955,-3.5623,-3.5234,-3.482,-3.4587,-3.4167,-3.3604,-3.343,-3.3444,-3.3597,-3.3701,-3.3597,-3.3353,-3.298,-3.2624,-3.2395,-3.2529,-3.2907,-3.3327,-3.3273,-3.3341,-3.3437,-3.2945,-3.2339,-3.1869,-3.1294,-3.0802,-3.0363,-3.0068,-2.9737,-2.9393,-2.9266,-2.8932,-2.8384,-2.8008,-2.7336,-2.6408,-2.6696,-2.66,-2.6129,-2.5548,-2.4756,-2.3877,-2.3628,-2.3129,-2.2375,-2.1709,-2.1054,-2.013,-1.925,-1.8363,-1.7483,-1.6736,-1.6039,-1.5345,-1.4546,-1.3521,-1.2264,-1.0781,-0.9302,-0.7648,-0.6151,-0.4758,-0.3418,-0.2523,-0.1234,0.0504,0.2631,0.4529,0.6146,0.7762,0.9306,1.0743,1.2005,1.3251,1.4493,1.5512,1.6571,1.8101,1.925,2.0439,2.1564,2.2627,2.3669,2.4766,2.5974,2.7231,2.8409,2.9531,3.0487,3.1327,3.2658,3.4005,3.6262,3.8295,3.9699,4.1266,4.2531,4.3633,4.4179,4.4585,4.4934,4.519,4.5123,4.4703,-4.1256,-4.0799,-4.0765,-4.0226,-3.9484,-3.9195,-3.8406,-3.743,-3.696,-3.6366,-3.5669,-3.5228,-3.4739,-3.4147,-3.3874,-3.3374,-3.2775,-3.269,-3.2525,-3.2431,-3.2632,-3.2775,-3.2596,-3.2205,-3.184,-3.1636,-3.1957,-3.2228,-3.2473,-3.2713,-3.2727,-3.2661,-3.2164,-3.1593,-3.0982,-3.0623,-3.0273,-2.9874,-2.9748,-2.9473,-2.9035,-2.8746,-2.829,-2.7536,-2.7051,-2.6322,-2.5441,-2.5011,-2.4824,-2.4686,-2.4183,-2.3628,-2.3179,-2.2728,-2.2123,-2.1514,-2.079,-1.9975,-1.9212,-1.8213,-1.7325,-1.6377,-1.5838,-1.5357,-1.4331,-1.3576,-1.2713,-1.1505,-0.9966,-0.8423,-0.7093,-0.5594,-0.4088,-0.2801,-0.1794,-0.0448,0.1514,0.3192,0.47,0.6204,0.7648,0.9089,1.0578,1.1732,1.3083,1.4535,1.566,1.6829,1.8101,1.925,2.0181,2.131,2.2476,2.3479,2.4618,2.5984,2.7231,2.8175,2.9335,3.0422,3.1558,3.2962,3.4445,3.6708,3.8629,4.0075,4.1284,4.2426,4.3324,4.38,4.4212,4.4646,4.4677,4.4541,4.4312,-4.0817,-4.0593,-4.047,-4.0189,-3.9767,-3.9137,-3.8644,-3.8141,-3.6888,-3.6201,-3.5636,-3.4791,-3.4162,-3.3701,-3.3199,-3.2739,-3.2372,-3.2205,-3.1986,-3.178,-3.1716,-3.1813,-3.185,-3.1606,-3.1272,-3.1003,-3.1578,-3.196,-3.1896,-3.2243,-3.234,-3.2152,-3.1371,-3.0802,-3.0352,-2.9806,-2.9451,-2.9266,-2.8954,-2.8628,-2.8326,-2.7846,-2.7231,-2.6524,-2.6032,-2.5294,-2.4412,-2.3569,-2.3329,-2.3678,-2.3379,-2.2769,-2.2173,-2.1658,-2.1046,-2.0233,-1.9443,-1.8603,-1.772,-1.6723,-1.5885,-1.5357,-1.4552,-1.3851,-1.3581,-1.2604,-1.1669,-1.057,-0.9361,-0.7983,-0.6649,-0.5202,-0.3583,-0.1625,-0.0504,0.0729,0.2241,0.3752,0.5206,0.6487,0.7873,0.9254,1.0523,1.1728,1.2925,1.4266,1.5553,1.6829,1.8206,1.9309,2.0241,2.131,2.2426,2.3429,2.451,2.5984,2.7146,2.8045,2.9216,3.0526,3.1986,3.3728,3.5302,3.7162,3.8694,4.0125,4.101,4.1942,4.2603,4.3205,4.3615,4.3873,4.3834,4.3732,4.3457,-4.0439,-4.0296,-4.0121,-3.9996,-3.9809,-3.9153,-3.8661,-3.8162,-3.7198,-3.6177,-3.5427,-3.4655,-3.3804,-3.3108,-3.2682,-3.2228,-3.184,-3.1693,-3.1545,-3.1323,-3.1174,-3.1123,-3.1161,-3.1011,-3.0763,-3.052,-3.112,-3.131,-3.1284,-3.16,-3.1545,-3.1193,-3.0623,-3.0091,-2.9577,-2.9209,-2.8839,-2.8606,-2.8243,-2.7961,-2.7668,-2.7194,-2.6514,-2.579,-2.5157,-2.4322,-2.3179,-2.2375,-2.2274,-2.2728,-2.2476,-2.192,-2.1259,-2.0688,-1.9968,-1.9042,-1.8297,-1.7496,-1.6617,-1.5613,-1.4917,-1.4379,-1.3516,-1.2817,-1.2327,-1.1505,-1.0625,-0.9526,-0.8423,-0.7146,-0.5757,-0.4196,-0.2408,-0.0617,0.0729,0.1793,0.2632,0.3864,0.5206,0.6543,0.7875,0.9258,1.0527,1.1678,1.2975,1.4374,1.5713,1.7035,1.8363,1.9361,2.0351,2.142,2.2426,2.3429,2.447,2.58,2.715,2.8051,2.9604,3.0824,3.2389,3.4244,3.5712,3.722,3.8741,3.9911,4.0531,4.1142,4.1771,4.2293,4.2739,4.2941,4.2926,4.2886,4.2618,-4.0086,-3.994,-3.9696,-3.961,-3.9502,-3.9126,-3.8494,-3.7871,-3.739,-3.6346,-3.5068,-3.4512,-3.3561,-3.2408,-3.2155,-3.1767,-3.1272,-3.1235,-3.1048,-3.0874,-3.0685,-3.0558,-3.0406,-3.0406,-3.0303,-3.0176,-3.047,-3.0495,-3.0481,-3.0678,-3.0509,-3.017,-2.9874,-2.9416,-2.8943,-2.8746,-2.842,-2.8055,-2.7726,-2.7394,-2.7061,-2.6486,-2.5752,-2.506,-2.4214,-2.317,-2.2114,-2.1463,-2.1522,-2.2123,-2.1522,-2.0901,-2.0336,-1.9768,-1.8938,-1.7937,-1.7193,-1.6458,-1.5725,-1.4863,-1.4116,-1.3457,-1.2639,-1.1878,-1.1067,-1.0351,-0.9467,-0.8589,-0.7313,-0.6089,-0.4641,-0.2631,-0.1065,0.0224,0.1457,0.2297,0.2968,0.3918,0.5262,0.6601,0.7875,0.9147,1.0468,1.1728,1.2975,1.432,1.5713,1.7094,1.8415,1.9569,2.055,2.1522,2.2476,2.3429,2.447,2.5616,2.6941,2.8189,3.0027,3.1526,3.2806,3.4377,3.578,3.72,3.823,3.8984,3.953,4.0185,4.0887,4.1325,4.1729,4.1881,4.1964,4.1908,4.1757,-3.9696,-3.9481,-3.9141,-3.8907,-3.8701,-3.83,-3.7979,-3.758,-3.6891,-3.5943,-3.4831,-3.396,-3.3093,-3.2196,-3.1596,-3.1174,-3.0973,-3.0748,-3.0482,-3.0292,-3.0037,-2.9729,-2.9586,-2.9677,-2.9806,-2.9776,-2.9833,-2.9796,-2.9713,-2.9738,-2.9623,-2.9347,-2.8989,-2.8686,-2.8488,-2.8243,-2.8045,-2.7668,-2.7251,-2.6774,-2.6187,-2.5401,-2.4667,-2.4026,-2.307,-2.2224,-2.1522,-2.0952,-2.0585,-2.0336,-2.0086,-1.9665,-1.919,-1.8318,-1.7483,-1.6736,-1.5933,-1.5185,-1.4541,-1.3792,-1.2985,-1.2323,-1.1337,-1.0523,-1.0084,-0.9092,-0.8371,-0.7651,-0.6705,-0.5256,-0.3526,-0.1905,-0.0561,0.0617,0.1849,0.2913,0.3754,0.4981,0.6154,0.7268,0.8377,0.9592,1.0578,1.1728,1.2975,1.4266,1.5654,1.7094,1.8415,1.9732,2.0704,2.1623,2.2476,2.3429,2.448,2.5625,2.6988,2.8195,2.995,3.1573,3.2861,3.4137,3.5371,3.6454,3.7461,3.8128,3.8729,3.9411,4.0199,4.043,4.0688,4.0887,4.1043,4.1001,4.1043,-3.9068,-3.8936,-3.8478,-3.8165,-3.7991,-3.7544,-3.7183,-3.6908,-3.6409,-3.556,-3.4544,-3.3664,-3.2767,-3.1856,-3.1192,-3.0761,-3.0482,-3.0126,-2.9819,-2.9586,-2.9302,-2.8988,-2.8645,-2.865,-2.8738,-2.9166,-2.9129,-2.9036,-2.9094,-2.9008,-2.8839,-2.8606,-2.8337,-2.8149,-2.8019,-2.7773,-2.7489,-2.7013,-2.6466,-2.5877,-2.5285,-2.4412,-2.3479,-2.2828,-2.1971,-2.1216,-2.055,-1.9975,-1.9406,-1.8833,-1.8468,-1.8311,-1.8153,-1.7325,-1.6483,-1.5684,-1.4869,-1.4056,-1.3354,-1.2545,-1.1787,-1.1181,-1.0084,-0.9313,-0.8761,-0.7875,-0.7268,-0.671,-0.5819,-0.4592,-0.2914,-0.1626,-0.0392,0.0785,0.2129,0.3361,0.4479,0.5541,0.6432,0.7324,0.8374,0.9533,1.0578,1.1782,1.3078,1.4482,1.5767,1.7153,1.8684,1.9894,2.0806,2.1725,2.2535,2.3429,2.443,2.5683,2.7112,2.8275,2.9532,3.097,3.2263,3.3527,3.48,3.5833,3.6837,3.7466,3.8109,3.8787,3.9336,3.9587,3.9851,4.0025,4.0243,4.0315,4.0402,-3.8404,-3.8292,-3.7687,-3.7419,-3.7289,-3.6744,-3.6336,-3.6123,-3.5884,-3.5103,-3.4113,-3.3449,-3.2449,-3.1539,-3.0803,-3.033,-2.9831,-2.9367,-2.8976,-2.8819,-2.8395,-2.8115,-2.7805,-2.747,-2.7595,-2.8523,-2.8355,-2.8344,-2.853,-2.8395,-2.8149,-2.7857,-2.7809,-2.762,-2.7441,-2.7251,-2.6918,-2.639,-2.5635,-2.4992,-2.4344,-2.3511,-2.2526,-2.1674,-2.1173,-2.0506,-1.9835,-1.9146,-1.8408,-1.7529,-1.6842,-1.6789,-1.6789,-1.6471,-1.5684,-1.4826,-1.4062,-1.33,-1.2545,-1.1618,-1.0857,-1.0084,-0.9037,-0.8094,-0.7482,-0.6932,-0.632,-0.571,-0.4929,-0.3977,-0.2692,-0.1346,-0.0112,0.1065,0.2409,0.3807,0.5037,0.5708,0.6434,0.7432,0.8706,0.9919,1.0852,1.1951,1.3295,1.4637,1.5873,1.7206,1.8684,1.9946,2.0763,2.1674,2.2426,2.3479,2.4529,2.5313,2.6808,2.7953,2.912,3.022,3.1442,3.2498,3.3697,3.5174,3.6143,3.6769,3.7387,3.7985,3.8427,3.8697,3.91,3.9411,3.9587,3.9719,3.9763,-3.7901,-3.7687,-3.6872,-3.652,-3.6427,-3.5871,-3.5507,-3.5277,-3.5046,-3.4427,-3.3575,-3.2867,-3.2057,-3.1188,-3.0277,-2.9624,-2.9,-2.8422,-2.8039,-2.7903,-2.747,-2.7074,-2.6775,-2.6385,-2.6515,-2.6943,-2.7215,-2.7592,-2.7936,-2.7857,-2.7489,-2.7177,-2.7129,-2.6976,-2.6784,-2.6592,-2.6342,-2.5752,-2.5001,-2.4353,-2.3619,-2.2568,-2.1615,-2.0814,-2.0565,-2.0101,-1.9368,-1.8736,-1.7943,-1.6942,-1.6152,-1.5565,-1.5238,-1.4976,-1.4552,-1.4013,-1.3364,-1.2713,-1.2005,-1.1181,-1.0249,-0.9254,-0.826,-0.7374,-0.6652,-0.5984,-0.5485,-0.4927,-0.4089,-0.3025,-0.2075,-0.0785,0.0617,0.1849,0.3025,0.4201,0.5262,0.6154,0.6988,0.8094,0.9254,1.0304,1.1181,1.2114,1.3354,1.4589,1.5713,1.6935,1.8258,1.9465,2.0447,2.1361,2.2274,2.3429,2.4637,2.5313,2.628,2.7381,2.8437,2.9293,3.0408,3.1313,3.2499,3.3981,3.5174,3.5906,3.6534,3.7201,3.7723,3.8122,3.8485,3.8845,3.9011,3.9176,3.9278,-3.7159,-3.6833,-3.6004,-3.5696,-3.5575,-3.4977,-3.4647,-3.4535,-3.4176,-3.3753,-3.3094,-3.2225,-3.1395,-3.0661,-2.9727,-2.8895,-2.8115,-2.7458,-2.708,-2.6887,-2.6445,-2.6041,-2.5779,-2.5411,-2.5568,-2.5926,-2.6208,-2.6718,-2.7348,-2.7156,-2.6918,-2.6747,-2.6554,-2.64,-2.6255,-2.6014,-2.5616,-2.5011,-2.4313,-2.3461,-2.2677,-2.1514,-2.0696,-2.0344,-1.9998,-1.9532,-1.89,-1.8115,-1.7213,-1.6199,-1.5405,-1.4708,-1.4121,-1.363,-1.3467,-1.3315,-1.2822,-1.2169,-1.1514,-1.0637,-0.9537,-0.854,-0.754,-0.6652,-0.5929,-0.5316,-0.476,-0.4201,-0.3866,-0.2858,-0.1683,-0.0448,0.0728,0.2073,0.3306,0.4426,0.5485,0.6543,0.7651,0.8702,0.9478,1.0417,1.14,1.2382,1.3413,1.4541,1.5607,1.6776,1.7937,1.9094,2.0189,2.1412,2.2426,2.3529,2.4587,2.5156,2.5849,2.6854,2.7774,2.8625,2.9537,3.0561,3.1593,3.2801,3.3845,3.4945,3.5918,3.6675,3.7108,3.7585,3.7998,3.8349,3.8517,3.8652,3.8832,-3.6253,-3.5812,-3.5049,-3.4722,-3.4599,-3.3991,-3.3804,-3.3768,-3.3343,-3.3043,-3.2734,-3.1534,-3.0658,-2.998,-2.893,-2.7914,-2.7226,-2.6569,-2.6196,-2.5935,-2.5485,-2.5168,-2.4914,-2.4676,-2.4699,-2.533,-2.5224,-2.5678,-2.6669,-2.6688,-2.6496,-2.6294,-2.61,-2.5907,-2.5713,-2.5333,-2.4833,-2.4183,-2.3529,-2.2577,-2.1404,-2.0542,-1.9983,-1.9931,-1.948,-1.8959,-1.8377,-1.7589,-1.6577,-1.5565,-1.4708,-1.3959,-1.3207,-1.255,-1.2441,-1.2663,-1.2114,-1.1509,-1.0857,-0.9757,-0.8768,-0.7878,-0.6763,-0.5929,-0.5204,-0.459,-0.4032,-0.3586,-0.3195,-0.2634,-0.1346,-0.028,0.0896,0.2241,0.353,0.4651,0.5877,0.6988,0.8097,0.8982,0.9647,1.0692,1.1841,1.2654,1.3689,1.4552,1.5672,1.6571,1.7733,1.8893,2.0086,2.1463,2.2627,2.3687,2.4489,2.4883,2.5594,2.6407,2.718,2.7943,2.8921,2.9891,3.0933,3.1942,3.2962,3.4054,3.5078,3.6013,3.6487,3.6968,3.7479,3.7893,3.8167,3.8381,3.8575,-3.5264,-3.438,-3.3735,-3.3409,-3.3327,-3.2746,-3.2743,-3.3061,-3.2457,-3.2164,-3.2059,-3.0792,-2.9893,-2.9087,-2.7568,-2.6798,-2.6393,-2.5821,-2.5369,-2.5189,-2.47,-2.4411,-2.4292,-2.3841,-2.4187,-2.4719,-2.4654,-2.5298,-2.6152,-2.64,-2.6197,-2.5897,-2.5654,-2.5411,-2.4824,-2.4578,-2.4183,-2.3479,-2.2878,-2.1818,-2.0542,-1.9931,-1.968,-1.9376,-1.9063,-1.8593,-1.7957,-1.7113,-1.6205,-1.5035,-1.4018,-1.3207,-1.255,-1.2005,-1.1568,-1.1345,-1.1017,-1.0692,-1.0198,-0.9096,-0.7989,-0.721,-0.6207,-0.5314,-0.4533,-0.3864,-0.3306,-0.3193,-0.2522,-0.1738,-0.0785,0.0336,0.1625,0.2857,0.4033,0.5208,0.6379,0.7321,0.8429,0.9588,1.0363,1.1459,1.2609,1.3256,1.3959,1.4767,1.5624,1.6577,1.7681,1.8945,2.0241,2.1717,2.2728,2.3737,2.4489,2.4883,2.5379,2.6091,2.6681,2.7367,2.8359,2.9363,3.0192,3.1227,3.2196,3.3174,3.4225,3.5102,3.5775,3.6439,3.7015,3.7479,3.7893,3.8122,3.8258,-3.326,-3.3118,-3.2461,-3.2189,-3.2145,-3.1771,-3.179,-3.1878,-3.156,-3.1383,-3.108,-2.9789,-2.8572,-2.7515,-2.6318,-2.5821,-2.5527,-2.5041,-2.4658,-2.4476,-2.41,-2.3894,-2.3807,-2.364,-2.388,-2.4153,-2.4316,-2.4619,-2.5401,-2.5713,-2.5674,-2.546,-2.502,-2.4569,-2.3976,-2.3728,-2.3229,-2.2577,-2.1776,-2.0858,-2.0034,-1.9576,-1.9331,-1.9071,-1.875,-1.8115,-1.7318,-1.663,-1.5559,-1.4439,-1.3418,-1.2827,-1.2223,-1.1673,-1.1185,-1.0857,-1.0257,-0.9816,-0.9423,-0.8484,-0.7543,-0.6487,-0.5596,-0.476,-0.3866,-0.3194,-0.2691,-0.2355,-0.185,-0.1065,0.0,0.1121,0.2409,0.364,0.4648,0.5708,0.6768,0.7712,0.8706,0.9919,1.1021,1.206,1.2989,1.3527,1.4121,1.488,1.5731,1.669,1.7943,1.9361,2.0747,2.2173,2.2987,2.3746,2.439,2.4932,2.5235,2.5828,2.6288,2.701,2.7893,2.884,2.9652,3.0586,3.1545,3.2521,3.3385,3.4335,3.5247,3.5918,3.6546,3.6862,3.7235,3.7631,3.7848,-3.1339,-3.1452,-3.1069,-3.0929,-3.0925,-3.0669,-3.07,-3.0915,-3.0505,-3.0405,-3.0063,-2.8742,-2.7178,-2.6069,-2.5464,-2.4988,-2.4733,-2.4411,-2.4067,-2.3797,-2.3624,-2.345,-2.3319,-2.3257,-2.3347,-2.3706,-2.3764,-2.4098,-2.4456,-2.4709,-2.4775,-2.4932,-2.4273,-2.3728,-2.3279,-2.2828,-2.2325,-2.1514,-2.0601,-1.9879,-1.9465,-1.9108,-1.8862,-1.86,-1.8233,-1.7635,-1.6683,-1.5998,-1.497,-1.384,-1.298,-1.2332,-1.1728,-1.1291,-1.0802,-1.0421,-0.9816,-0.9099,-0.8484,-0.7651,-0.6932,-0.5931,-0.4817,-0.3977,-0.325,-0.2692,-0.2356,-0.1907,-0.1121,-0.0224,0.0841,0.1905,0.3136,0.4199,0.5204,0.6207,0.7099,0.7986,0.8982,1.0194,1.1295,1.2436,1.3202,1.3689,1.4337,1.5041,1.5897,1.6796,1.816,1.9724,2.1003,2.2325,2.3129,2.3786,2.4489,2.4981,2.5284,2.5576,2.6093,2.6685,2.7553,2.83,2.9014,2.997,3.0922,3.1757,3.2644,3.3685,3.4714,3.5247,3.5727,3.6143,3.6521,3.6968,3.7492,-2.9843,-2.9096,-2.9528,-2.9736,-2.9695,-2.9076,-2.9376,-3.0067,-2.9304,-2.9139,-2.9046,-2.7619,-2.6182,-2.5253,-2.4605,-2.4282,-2.4206,-2.3764,-2.3537,-2.3363,-2.3101,-2.2935,-2.2847,-2.2729,-2.2678,-2.2914,-2.3112,-2.3399,-2.3584,-2.352,-2.3791,-2.4026,-2.3429,-2.2878,-2.2325,-2.1818,-2.1157,-2.0388,-1.9561,-1.9086,-1.8781,-1.8482,-1.8174,-1.7964,-1.7543,-1.6961,-1.6324,-1.5464,-1.4498,-1.3256,-1.255,-1.1841,-1.1236,-1.0857,-1.0421,-0.9871,-0.9375,-0.8488,-0.7432,-0.6874,-0.6151,-0.5258,-0.4199,-0.3195,-0.2747,-0.2187,-0.1851,-0.157,-0.0617,0.0448,0.1458,0.2578,0.3808,0.476,0.5708,0.6541,0.7432,0.826,0.9254,1.0414,1.1514,1.2604,1.3527,1.4013,1.4557,1.5261,1.6217,1.7166,1.8579,2.0042,2.1157,2.2274,2.312,2.3926,2.4686,2.5088,2.5333,2.5605,2.5966,2.6527,2.7231,2.7864,2.8411,2.941,3.0344,3.1095,3.177,3.2694,3.3537,3.436,3.4945,3.5319,3.5846,3.638,3.7002,-2.8691,-2.8255,-2.8028,-2.818,-2.8452,-2.8013,-2.8217,-2.8659,-2.8142,-2.7407,-2.6887,-2.6013,-2.5047,-2.4119,-2.3754,-2.345,-2.3329,-2.3154,-2.2969,-2.2838,-2.2618,-2.2574,-2.2485,-2.2375,-2.2302,-2.241,-2.2573,-2.2658,-2.2837,-2.2462,-2.2425,-2.2476,-2.2375,-2.1962,-2.1412,-2.0644,-1.9931,-1.9509,-1.8982,-1.867,-1.8325,-1.8115,-1.7747,-1.716,-1.6889,-1.6146,-1.5298,-1.46,-1.363,-1.2708,-1.2005,-1.135,-1.0747,-1.0363,-0.9868,-0.9258,-0.8761,-0.7762,-0.6763,-0.6207,-0.5706,-0.4311,-0.325,-0.2523,-0.2356,-0.1851,-0.1346,-0.0729,0.0056,0.1121,0.2185,0.3361,0.448,0.532,0.6156,0.6935,0.7709,0.8484,0.942,1.0527,1.1568,1.2659,1.3527,1.4342,1.4886,1.5482,1.6483,1.7589,1.9004,2.03,2.1361,2.2375,2.3229,2.3976,2.4735,2.5088,2.5391,2.5674,2.5918,2.6359,2.6872,2.725,2.7842,2.8801,2.9658,3.0274,3.0925,3.1636,3.2476,3.34,3.4054,3.4532,3.5114,3.581,3.6474,-2.7777,-2.7423,-2.6839,-2.6857,-2.7249,-2.6844,-2.6941,-2.7238,-2.6822,-2.6048,-2.4955,-2.4824,-2.4206,-2.3242,-2.2925,-2.2882,-2.275,-2.2706,-2.2574,-2.2485,-2.2397,-2.2264,-2.2132,-2.1991,-2.1743,-2.1751,-2.1655,-2.17,-2.1644,-2.1287,-2.1223,-2.1159,-2.0952,-2.0637,-2.0439,-1.9517,-1.8795,-1.8632,-1.8363,-1.8101,-1.7641,-1.7272,-1.6895,-1.6146,-1.5713,-1.5072,-1.4277,-1.3576,-1.2758,-1.1946,-1.135,-1.0857,-1.0308,-0.9816,-0.9372,-0.8758,-0.8036,-0.7149,-0.626,-0.5371,-0.4702,-0.3306,-0.2635,-0.2131,-0.1851,-0.1402,-0.0841,-0.028,0.0729,0.1849,0.2913,0.4032,0.5041,0.588,0.6604,0.7382,0.7934,0.8654,0.9588,1.0582,1.1678,1.2876,1.39,1.4821,1.5624,1.6217,1.7113,1.8213,1.9413,2.0601,2.1564,2.2476,2.3338,2.4084,2.4784,2.5088,2.5382,2.5596,2.583,2.6084,2.6525,2.6861,2.7278,2.8118,2.8896,2.9429,2.9981,3.0514,3.1427,3.2448,3.3101,3.3747,3.4653,3.5343,3.5966,-2.7144,-2.6475,-2.6113,-2.6019,-2.6102,-2.5538,-2.5516,-2.5948,-2.5503,-2.4953,-2.4414,-2.42,-2.3609,-2.285,-2.2485,-2.2353,-2.2309,-2.2299,-2.2255,-2.2122,-2.1954,-2.1865,-2.1651,-2.1356,-2.1023,-2.0531,-2.0458,-2.0483,-2.033,-1.9914,-1.9882,-1.9796,-1.9509,-1.9242,-1.9576,-1.8586,-1.8069,-1.7964,-1.749,-1.7113,-1.6683,-1.6152,-1.5618,-1.4976,-1.4374,-1.3732,-1.3197,-1.2599,-1.1837,-1.124,-1.0747,-1.0308,-0.9871,-0.9485,-0.904,-0.8484,-0.7814,-0.6758,-0.5427,-0.4032,-0.3082,-0.2523,-0.2019,-0.1683,-0.129,-0.0785,-0.0224,0.0336,0.1569,0.2577,0.3585,0.4592,0.5601,0.6381,0.7104,0.7715,0.8266,0.8768,0.9706,1.0802,1.2055,1.3256,1.4277,1.5298,1.6264,1.706,1.7852,1.8788,1.9724,2.0652,2.1564,2.2426,2.3238,2.3935,2.4578,2.503,2.5382,2.5577,2.5801,2.6064,2.6258,2.656,2.7053,2.76,2.8142,2.8778,2.9052,2.9356,3.0281,3.1217,3.2269,3.3051,3.4017,3.4823,3.5343,-2.6445,-2.5779,-2.5401,-2.4893,-2.4433,-2.4315,-2.4686,-2.5199,-2.4947,-2.4397,-2.3681,-2.3324,-2.2764,-2.2173,-2.1874,-2.1741,-2.1741,-2.1499,-2.1445,-2.1275,-2.1239,-2.1015,-2.0789,-2.0564,-2.0201,-1.9883,-1.9684,-1.9503,-1.9403,-1.8835,-1.8767,-1.871,-1.8258,-1.8003,-1.8055,-1.7529,-1.716,-1.7107,-1.6796,-1.6371,-1.5885,-1.5238,-1.4546,-1.391,-1.3197,-1.2654,-1.2219,-1.1618,-1.1076,-1.0637,-1.0257,-0.9981,-0.9485,-0.9099,-0.8488,-0.7765,-0.693,-0.5258,-0.3808,-0.2523,-0.2243,-0.1907,-0.1627,-0.1234,-0.0729,-0.0168,0.0392,0.1177,0.2241,0.3305,0.4369,0.5371,0.6267,0.6879,0.749,0.8042,0.8595,0.9044,0.982,1.1076,1.2332,1.3846,1.503,1.5779,1.669,1.7272,1.795,1.8586,1.9472,2.0403,2.1318,2.2224,2.3029,2.3728,2.4332,2.4735,2.5128,2.5333,2.5625,2.5946,2.6179,2.64,2.6759,2.7341,2.7731,2.8122,2.8366,2.8652,2.9087,2.9906,3.0996,3.2046,3.2948,3.381,3.4531,-2.5664,-2.5031,-2.4605,-2.4003,-2.345,-2.3493,-2.3945,-2.4404,-2.4335,-2.3823,-2.3093,-2.2649,-2.2116,-2.1563,-2.1248,-2.1159,-2.1122,-2.0781,-2.0583,-2.0411,-2.0329,-2.0147,-1.992,-1.9691,-1.9425,-1.9122,-1.8769,-1.855,-1.8425,-1.7845,-1.7709,-1.7639,-1.7219,-1.7113,-1.7008,-1.6789,-1.6577,-1.6471,-1.6158,-1.5571,-1.497,-1.4326,-1.3581,-1.2822,-1.211,-1.1623,-1.1185,-1.0747,-1.0363,-1.0036,-0.9761,-0.9541,-0.9044,-0.8432,-0.782,-0.6932,-0.5483,-0.392,-0.2691,-0.1907,-0.1627,-0.129,-0.1177,-0.0897,-0.028,0.0224,0.1009,0.185,0.2913,0.3976,0.5037,0.5984,0.6765,0.7376,0.782,0.8374,0.8871,0.9316,1.0147,1.1404,1.2758,1.4272,1.5672,1.6311,1.706,1.7483,1.795,1.8586,1.9272,2.0248,2.1121,2.192,2.2728,2.3379,2.3935,2.439,2.4735,2.5079,2.543,2.5781,2.6159,2.6342,2.6736,2.7071,2.7431,2.7714,2.7769,2.8084,2.8512,2.9024,2.9871,3.0848,3.1834,3.2773,3.3672,-2.4733,-2.411,-2.3677,-2.3266,-2.3057,-2.3003,-2.319,-2.3336,-2.3402,-2.3138,-2.2584,-2.2151,-2.1608,-2.105,-2.0789,-2.0654,-2.0518,-2.0093,-1.9857,-1.9666,-1.9446,-1.9271,-1.9134,-1.9004,-1.8589,-1.8125,-1.7811,-1.7555,-1.7428,-1.7005,-1.6781,-1.6727,-1.653,-1.643,-1.6324,-1.6158,-1.6105,-1.5891,-1.5351,-1.4708,-1.4116,-1.3251,-1.2491,-1.1782,-1.1131,-1.0692,-1.0253,-0.9812,-0.9541,-0.921,-0.8878,-0.8654,-0.8211,-0.7654,-0.6985,-0.5871,-0.4142,-0.3081,-0.2074,-0.1458,-0.0953,-0.0617,-0.0561,-0.0392,0.0056,0.0785,0.1625,0.2633,0.3696,0.4589,0.5594,0.6429,0.7324,0.7768,0.8156,0.865,0.9034,0.9699,1.0582,1.1782,1.3186,1.4643,1.6092,1.6895,1.7272,1.7641,1.8062,1.8586,1.9316,2.03,2.1121,2.1623,2.2375,2.3038,2.3538,2.3935,2.4332,2.4677,2.5128,2.5479,2.5907,2.6342,2.6736,2.7023,2.7167,2.7365,2.7521,2.7665,2.7841,2.8436,2.9,2.9848,3.0888,3.1882,3.2853,-2.3701,-2.2925,-2.275,-2.2397,-2.1957,-2.2337,-2.2604,-2.2856,-2.2691,-2.2447,-2.2283,-2.1596,-2.1085,-2.0781,-2.051,-2.0184,-1.9828,-1.9371,-1.895,-1.8627,-1.8342,-1.811,-1.7924,-1.7839,-1.7466,-1.7138,-1.6779,-1.6546,-1.637,-1.6124,-1.6083,-1.6109,-1.5986,-1.5891,-1.563,-1.5309,-1.5303,-1.5083,-1.4439,-1.3792,-1.3088,-1.2219,-1.1509,-1.0852,-1.0304,-0.9868,-0.9368,-0.9147,-0.8875,-0.8432,-0.8269,-0.8103,-0.7829,-0.716,-0.6323,-0.4479,-0.3305,-0.2409,-0.1401,-0.0729,-0.0224,0.0168,0.0392,0.0561,0.0953,0.1513,0.2465,0.3417,0.4479,0.5483,0.6318,0.7154,0.7823,0.8211,0.8602,0.8989,0.9423,1.0029,1.0966,1.2377,1.3786,1.5125,1.6518,1.716,1.7536,1.7852,1.822,1.8639,1.9212,2.0145,2.0814,2.131,2.1869,2.2476,2.2929,2.3379,2.3836,2.4282,2.4726,2.5274,2.5858,2.6342,2.6688,2.6976,2.7214,2.7272,2.7351,2.7496,2.7593,2.7681,2.8147,2.9037,2.9932,3.0923,3.1862,-2.2794,-2.2132,-2.2052,-2.1816,-2.1676,-2.1878,-2.2149,-2.2209,-2.2105,-2.1986,-2.1795,-2.0939,-2.0464,-2.0209,-1.9837,-1.9463,-1.9088,-1.8388,-1.7885,-1.7512,-1.7138,-1.6897,-1.6763,-1.6669,-1.6433,-1.6103,-1.5811,-1.565,-1.5406,-1.5407,-1.541,-1.5399,-1.5388,-1.5298,-1.4987,-1.4504,-1.4121,-1.3846,-1.3408,-1.2762,-1.2001,-1.1181,-1.0523,-1.0025,-0.9533,-0.9037,-0.865,-0.8537,-0.8318,-0.7989,-0.7878,-0.7546,-0.6993,-0.6156,-0.4927,-0.3194,-0.2185,-0.1401,-0.0617,0.0,0.0392,0.0785,0.1234,0.1458,0.1849,0.2353,0.3192,0.4086,0.5258,0.632,0.7099,0.7823,0.8211,0.8598,0.8989,0.9379,0.9871,1.0366,1.1618,1.3083,1.4374,1.5666,1.6683,1.7265,1.7694,1.7957,1.8227,1.8541,1.9011,1.968,2.0197,2.0601,2.1267,2.1878,2.2325,2.2778,2.3329,2.3836,2.443,2.502,2.5752,2.6294,2.6688,2.7023,2.7272,2.732,2.732,2.732,2.7382,2.7452,2.7584,2.8264,2.908,2.9958,3.0791,-2.2043,-2.1607,-2.1428,-2.1494,-2.1735,-2.1739,-2.1636,-2.1526,-2.1516,-2.1505,-2.1113,-2.0285,-1.9754,-1.9479,-1.9058,-1.8627,-1.811,-1.7451,-1.6897,-1.6487,-1.6062,-1.5771,-1.573,-1.5635,-1.5439,-1.5153,-1.4958,-1.4818,-1.4521,-1.4537,-1.4706,-1.4687,-1.4596,-1.4541,-1.4337,-1.3581,-1.3093,-1.2654,-1.2105,-1.1455,-1.1017,-1.0249,-0.9478,-0.9034,-0.8647,-0.8374,-0.81,-0.7989,-0.7934,-0.7768,-0.749,-0.7046,-0.5986,-0.4814,-0.3418,-0.2298,-0.1289,-0.0673,-0.0056,0.0504,0.0953,0.129,0.1683,0.2241,0.2688,0.3136,0.3864,0.47,0.5817,0.6765,0.7546,0.8159,0.8602,0.8878,0.921,0.9655,1.0202,1.0966,1.2219,1.357,1.4702,1.5939,1.663,1.7213,1.7793,1.801,1.8331,1.8646,1.8959,1.9428,1.9732,2.0086,2.0704,2.1275,2.1674,2.2182,2.2778,2.3329,2.3976,2.4677,2.5362,2.6052,2.6688,2.6976,2.7225,2.732,2.732,2.732,2.732,2.7357,2.7489,2.7726,2.8342,2.9154,2.9758,-2.1383,-2.0951,-2.0985,-2.1096,-2.1196,-2.123,-2.1134,-2.0917,-2.0247,-2.0058,-2.0063,-1.9608,-1.9104,-1.8681,-1.8357,-1.7932,-1.7271,-1.6608,-1.6048,-1.5581,-1.5112,-1.4873,-1.4729,-1.4729,-1.4538,-1.4292,-1.4136,-1.4079,-1.3949,-1.3999,-1.4177,-1.4251,-1.4024,-1.3696,-1.3467,-1.2659,-1.2001,-1.1568,-1.0684,-1.03,-1.0139,-0.9588,-0.8923,-0.8595,-0.8263,-0.7934,-0.7715,-0.7604,-0.7382,-0.7046,-0.6937,-0.6212,-0.5037,-0.3864,-0.2689,-0.1627,-0.0729,-0.0112,0.0392,0.0897,0.1402,0.185,0.2354,0.3024,0.3583,0.392,0.4536,0.5427,0.6262,0.7154,0.7934,0.8432,0.8933,0.9154,0.943,0.9981,1.0531,1.1678,1.2871,1.3954,1.503,1.5826,1.6577,1.7213,1.774,1.822,1.8548,1.8869,1.9018,1.9376,1.9532,1.9835,2.0256,2.0771,2.1121,2.1522,2.2173,2.2778,2.3379,2.4125,2.4971,2.5752,2.6486,2.6842,2.7139,2.7225,2.7272,2.732,2.732,2.7309,2.7452,2.7631,2.7914,2.8589,2.8975,-2.0708,-2.0371,-2.0193,-2.027,-2.0427,-2.0269,-2.0039,-1.9715,-1.9056,-1.8578,-1.8456,-1.845,-1.8257,-1.7839,-1.7559,-1.7091,-1.6433,-1.5812,-1.5289,-1.4771,-1.4394,-1.4112,-1.4016,-1.3968,-1.3817,-1.3624,-1.3335,-1.3187,-1.3243,-1.3034,-1.3058,-1.3153,-1.2825,-1.2558,-1.2245,-1.1509,-1.0907,-1.0523,-0.9364,-0.8978,-0.9144,-0.8595,-0.8152,-0.7934,-0.7601,-0.7326,-0.7049,-0.6882,-0.6601,-0.6154,-0.5761,-0.4758,-0.364,-0.2577,-0.1681,-0.0785,-0.0056,0.0504,0.0897,0.1346,0.1851,0.241,0.3025,0.3751,0.4868,0.5262,0.565,0.6487,0.7263,0.8097,0.8484,0.8985,0.932,0.9541,0.9871,1.0312,1.1076,1.206,1.3093,1.4008,1.503,1.5939,1.6683,1.743,1.7905,1.8265,1.8646,1.8974,1.9175,1.9272,1.9428,1.9583,1.9946,2.0256,2.055,2.1011,2.1522,2.2173,2.2778,2.3777,2.4677,2.5509,2.6197,2.6592,2.689,2.7129,2.7225,2.7272,2.732,2.732,2.7452,2.7584,2.7867,2.8139,2.8567,-2.0073,-1.9745,-1.9437,-1.94,-1.9572,-1.9114,-1.8741,-1.8384,-1.7886,-1.7201,-1.6623,-1.7113,-1.7099,-1.6864,-1.6527,-1.6109,-1.5588,-1.501,-1.4532,-1.4106,-1.3684,-1.3539,-1.3491,-1.3394,-1.3244,-1.3001,-1.271,-1.2516,-1.2374,-1.2139,-1.1897,-1.1615,-1.1331,-1.1039,-1.0686,-1.0084,-0.9533,-0.9258,-0.854,-0.782,-0.7598,-0.7435,-0.7324,-0.7102,-0.6771,-0.6495,-0.6214,-0.5991,-0.5819,-0.5204,-0.4589,-0.3585,-0.2577,-0.1682,-0.0841,-0.0056,0.0617,0.1065,0.1458,0.1907,0.2522,0.3137,0.3807,0.4644,0.5764,0.6543,0.6932,0.7487,0.8263,0.8706,0.9092,0.9368,0.9647,0.9926,1.0257,1.0637,1.1514,1.2332,1.3202,1.4062,1.4976,1.5885,1.6683,1.7378,1.7905,1.8272,1.8639,1.8914,1.9182,1.9227,1.9324,1.9428,1.9635,1.9835,2.0034,2.0447,2.1011,2.1573,2.2224,2.3379,2.4381,2.5157,2.5849,2.6294,2.6592,2.6938,2.7177,2.7225,2.7272,2.732,2.7452,2.7584,2.7867,2.8139,2.8373,-1.9571,-1.935,-1.9558,-1.9343,-1.8821,-1.8535,-1.8049,-1.7332,-1.6763,-1.6096,-1.5588,-1.548,-1.5676,-1.6015,-1.5581,-1.5207,-1.4879,-1.4298,-1.3769,-1.334,-1.3249,-1.3104,-1.3007,-1.3007,-1.2813,-1.2565,-1.2322,-1.2127,-1.1697,-1.1387,-1.1036,-1.0707,-1.0106,-0.9842,-0.9545,-0.8975,-0.8377,-0.81,-0.7657,-0.6935,-0.6879,-0.6826,-0.6715,-0.6437,-0.6158,-0.5989,-0.5822,-0.5594,-0.5204,-0.459,-0.364,-0.2745,-0.1905,-0.1009,-0.028,0.0336,0.1065,0.1514,0.1907,0.2355,0.2914,0.3751,0.4477,0.5483,0.6543,0.7598,0.7986,0.8484,0.9037,0.921,0.9485,0.9647,0.9926,1.0257,1.0582,1.0966,1.1564,1.2332,1.3093,1.3851,1.4606,1.5512,1.6318,1.6955,1.7543,1.8016,1.8541,1.8862,1.9026,1.9123,1.9272,1.9324,1.9376,1.9532,1.9732,2.0034,2.049,2.1011,2.1674,2.2677,2.3728,2.4756,2.5401,2.58,2.6352,2.6794,2.6986,2.7129,2.7225,2.7309,2.7499,2.7678,2.7951,2.8186,2.842]},{"header":{"parameterUnit":"m.s-1","parameterCategory":1,"la1":31.0,"la2":29.5877,"lo1":-88.7671,"lo2":-86.6584,"dy":0.0162,"dx":0.0185,"nx":115,"ny":88,"refTime":"2023-09-18T06:00:00:Z","depth":0,"parameterNumber":3,"parameterNumberName":"V-component_of_WINDS"},"data":[0.0,0.0,0.0,0.0,0.0,0.0,0.0,0.0,0.0,0.0,0.0,0.0,0.0,0.0,0.0,0.0,0.0,0.0,0.0,0.0,0.0,0.0,0.0,0.0,0.0,0.0,0.0,0.0,0.0,0.0,0.0,0.0,0.0,0.0,0.0,0.0,0.0,0.0,0.0,0.0,0.0,0.0,0.0,0.0,0.0,0.0,0.0,0.0,0.0,0.0,0.0,0.0,0.0,0.0,0.0,0.0,0.0,0.0,0.0,0.0,0.0,0.0,0.0,0.0,0.0,0.0,0.0,0.0,0.0,0.0,0.0,0.0,0.0,0.0,0.0,0.0,0.0,0.0,0.0,0.0,0.0,0.0,0.0,0.0,0.0,0.0,0.0,0.0,0.0,0.0,0.0,0.0,0.0,0.0,0.0,0.0,0.0,0.0,0.0,0.0,0.0,0.0,0.0,0.0,0.0,0.0,0.0,0.0,0.0,0.0,0.0,0.0,0.0,0.0,0.0,0.0,0.0,0.0,0.0,0.0,0.0,0.0,0.0,0.0,0.0,0.0,0.0,0.0,0.0,0.0,0.0,0.0,0.0,0.0,0.0,0.0,0.0,0.0,0.0,0.0,0.0,0.0,0.0,0.0,0.0,0.0,0.0,0.0,0.0,0.0,0.0,0.0,0.0,0.0,0.0,0.0,0.0,0.0,0.0,0.0,0.0,0.0,0.0,0.0,0.0,0.0,0.0,0.0,0.0,0.0,0.0,0.0,0.0,0.0,0.0,0.0,0.0,0.0,0.0,0.0,0.0,0.0,0.0,0.0,0.0,0.0,0.0,0.0,0.0,0.0,0.0,0.0,0.0,0.0,0.0,0.0,0.0,0.0,0.0,0.0,0.0,0.0,0.0,0.0,0.0,0.0,0.0,0.0,0.0,0.0,0.0,0.0,0.0,0.0,0.0,0.0,0.0,0.0,0.0,0.0,0.0,0.0,0.0,0.0,0.0,0.0,0.0,0.0,0.0,0.0,0.0,0.0,0.0,0.0,0.0,0.0,0.0,0.0,0.0,0.0,0.0,0.0,0.0,0.0,0.0,0.0,0.0,0.0,0.0,0.0,0.0,0.0,0.0,0.0,0.0,0.0,0.0,0.0,0.0,0.0,0.0,0.0,0.0,0.0,0.0,0.0,0.0,0.0,0.0,0.0,0.0,0.0,0.0,0.0,0.0,0.0,0.0,0.0,0.0,0.0,0.0,0.0,0.0,0.0,0.0,0.0,0.0,0.0,0.0,0.0,0.0,0.0,0.0,0.0,0.0,0.0,0.0,0.0,0.0,0.0,0.0,0.0,0.0,0.0,0.0,0.0,0.0,0.0,0.0,0.0,0.0,0.0,0.0,0.0,0.0,0.0,0.0,0.0,0.0,0.0,0.0,0.0,0.0,0.0,0.0,0.0,0.0,0.0,0.0,0.0,0.0,0.0,0.0,0.0,0.0,0.0,0.0,0.0,0.0,0.0,0.0,0.0,0.0,0.0,0.0,0.0,0.0,0.0,0.0,0.0,0.0,0.0,0.0,0.0,0.0,0.0,0.0,0.0,0.0,0.0,0.0,0.0,0.0,0.0,0.0,0.0,0.0,0.0,0.0,0.0,0.0,0.0,0.0,0.0,0.0,0.0,0.0,0.0,0.0,0.0,0.0,0.0,0.0,0.0,0.0,0.0,0.0,0.0,0.0,0.0,0.0,0.0,0.0,0.0,0.0,0.0,0.0,0.0,0.0,0.0,0.0,0.0,0.0,0.0,0.0,0.0,0.0,0.0,0.0,0.0,0.0,0.0,0.0,0.0,0.0,0.0,0.0,0.0,0.0,0.0,0.0,0.0,0.0,0.0,0.0,0.0,0.0,0.0,0.0,0.0,0.0,0.0,0.0,0.0,0.0,0.0,0.0,0.0,0.0,0.0,0.0,0.0,0.0,0.0,0.0,0.0,0.0,0.0,0.0,0.0,0.0,0.0,0.0,0.0,0.0,0.0,0.0,0.0,0.0,0.0,0.0,0.0,0.0,0.0,0.0,0.0,0.0,0.0,0.0,0.0,0.0,0.0,0.0,0.0,0.0,0.0,0.0,0.0,0.0,0.0,0.0,0.0,0.0,0.0,0.0,0.0,0.0,0.0,0.0,0.0,0.0,0.0,0.0,0.0,0.0,0.0,0.0,0.0,0.0,0.0,0.0,0.0,0.0,0.0,0.0,0.0,0.0,0.0,0.0,0.0,0.0,0.0,0.0,0.0,0.0,0.0,0.0,0.0,0.0,0.0,0.0,0.0,0.0,0.0,0.0,0.0,0.0,0.0,0.0,0.0,0.0,0.0,0.0,0.0,0.0,0.0,0.0,0.0,0.0,0.0,0.0,0.0,0.0,0.0,0.0,0.0,0.0,0.0,0.0,0.0,0.0,0.0,0.0,0.0,0.0,0.0,0.0,0.0,0.0,0.0,0.0,0.0,0.0,0.0,0.0,0.0,0.0,0.0,0.0,0.0,0.0,0.0,0.0,0.0,0.0,0.0,0.0,0.0,0.0,0.0,0.0,0.0,0.0,0.0,0.0,0.0,0.0,0.0,0.0,0.0,0.0,0.0,0.0,0.0,0.0,0.0,0.0,0.0,0.0,0.0,0.0,0.0,0.0,0.0,0.0,0.0,0.0,0.0,0.0,0.0,0.0,0.0,0.0,0.0,0.0,0.0,0.0,0.0,0.0,0.0,0.0,0.0,0.0,0.0,0.0,0.0,0.0,0.0,0.0,0.0,0.0,0.0,0.0,0.0,0.0,0.0,0.0,0.0,0.0,0.0,0.0,0.0,0.0,0.0,0.0,0.0,0.0,0.0,0.0,0.0,0.0,0.0,0.0,0.0,0.0,0.0,0.0,0.0,0.0,0.0,0.0,0.0,0.0,0.0,0.0,0.0,0.0,0.0,0.0,0.0,0.0,0.0,0.0,0.0,0.0,0.0,0.0,0.0,0.0,0.0,0.0,0.0,0.0,0.0,0.0,0.0,0.0,0.0,0.0,0.0,0.0,0.0,0.0,0.0,0.0,0.0,0.0,0.0,0.0,0.0,0.0,0.0,0.0,0.0,0.0,0.0,0.0,0.0,0.0,0.0,0.0,0.0,0.0,0.0,0.0,0.0,0.0,0.0,0.0,0.0,0.0,0.0,0.0,0.0,0.0,0.0,0.0,0.0,0.0,0.0,0.0,0.0,0.0,0.0,0.0,0.0,0.0,0.0,0.0,0.0,0.0,0.0,0.0,0.0,0.0,0.0,0.0,0.0,0.0,0.0,0.0,0.0,0.0,0.0,0.0,0.0,0.0,0.0,0.0,0.0,0.0,0.0,0.0,0.0,0.0,0.0,0.0,0.0,0.0,0.0,0.0,0.0,0.0,0.0,0.0,0.0,0.0,0.0,0.0,0.0,0.0,0.0,0.0,0.0,0.0,0.0,0.0,0.0,0.0,0.0,0.0,0.0,0.0,0.0,0.0,0.0,0.0,0.0,0.0,0.0,0.0,0.0,0.0,0.0,0.0,0.0,0.0,0.0,0.0,0.0,0.0,0.0,0.0,0.0,0.0,0.0,0.0,0.0,0.0,0.0,0.0,0.0,0.0,0.0,0.0,0.0,0.0,0.0,0.0,0.0,0.0,0.0,0.0,0.0,0.0,0.0,0.0,0.0,0.0,0.0,0.0,0.0,0.0,0.0,0.0,0.0,0.0,0.0,0.0,0.0,0.0,0.0,0.0,0.0,0.0,0.0,0.0,0.0,0.0,0.0,0.0,0.0,0.0,0.0,0.0,0.0,0.0,0.0,0.0,0.0,0.0,0.0,0.0,0.0,0.0,0.0,0.0,0.0,0.0,0.0,0.0,0.0,0.0,0.0,0.0,0.0,0.0,0.0,0.0,0.0,0.0,0.0,0.0,0.0,0.0,0.0,0.0,0.0,0.0,0.0,0.0,0.0,0.0,0.0,0.0,0.0,0.0,0.0,0.0,0.0,0.0,0.0,0.0,0.0,0.0,0.0,0.0,0.0,0.0,0.0,0.0,0.0,0.0,0.0,0.0,0.0,0.0,0.0,0.0,0.0,0.0,0.0,0.0,0.0,0.0,0.0,0.0,0.0,0.0,0.0,0.0,0.0,0.0,0.0,0.0,0.0,0.0,0.0,0.0,0.0,0.0,0.0,0.0,0.0,0.0,0.0,0.0,0.0,0.0,0.0,0.0,0.0,0.0,0.0,0.0,0.0,1.6856,0.0,0.0,0.0,0.0,0.0,0.0,0.0,0.0,0.0,0.0,0.0,0.0,0.0,0.0,0.0,0.0,0.0,0.0,0.0,0.0,0.0,0.0,0.0,0.0,0.0,0.0,0.0,0.0,0.0,0.0,0.0,0.0,0.0,0.0,0.0,0.0,0.0,0.0,0.0,0.0,0.0,0.0,0.0,0.0,0.0,0.0,0.0,0.0,0.0,0.0,0.0,0.0,0.0,0.0,0.0,0.0,0.0,0.0,0.0,0.0,0.0,0.0,0.0,0.0,0.0,0.0,0.0,0.0,0.0,0.0,0.0,0.0,0.0,0.0,0.0,0.0,0.0,0.0,0.0,0.0,0.0,0.0,0.0,0.0,0.0,0.0,0.0,0.0,0.0,0.0,0.0,0.0,0.0,0.0,0.0,0.0,0.0,0.0,0.0,0.0,0.0,0.0,0.0,0.0,0.0,0.0,0.0,0.0,0.0,0.0,1.4365,1.4696,1.5434,1.581,1.584,0.0,0.0,0.0,0.0,0.0,0.0,0.0,0.0,0.0,0.0,0.0,0.0,0.0,0.0,0.0,0.0,0.0,0.0,0.0,0.0,0.0,0.0,0.0,0.0,0.0,0.0,0.0,0.0,0.0,0.0,0.0,0.0,0.0,0.0,0.0,0.0,0.0,0.0,0.0,0.0,0.0,0.0,0.0,0.0,0.0,0.0,0.0,0.0,0.0,0.0,0.0,0.0,0.0,0.0,0.0,0.0,0.0,0.0,0.0,0.0,0.0,0.0,0.0,0.0,0.0,0.0,0.0,0.0,0.0,0.0,0.0,0.0,0.0,0.0,0.0,0.0,0.0,0.0,0.0,0.0,0.0,0.0,0.0,0.0,0.0,0.0,0.0,0.0,0.0,0.0,0.0,0.0,0.0,0.0,0.0,0.0,0.0,0.0,0.0,0.0,0.0,0.0,0.0,0.0,0.0,0.0,0.0,0.0,0.0,0.0,0.0,0.0,1.4429,1.4687,1.4665,0.0,0.0,0.0,0.0,0.0,0.0,0.0,0.0,0.0,0.0,0.0,0.0,0.0,0.0,0.0,0.0,0.0,0.0,0.0,0.0,0.0,0.0,0.0,0.0,0.0,0.0,0.0,0.0,0.0,0.0,0.0,0.0,0.0,0.0,0.0,0.0,0.0,0.0,0.0,0.0,0.0,0.0,0.0,0.0,0.0,0.0,0.0,0.0,0.0,0.0,0.0,0.0,0.0,0.0,0.0,0.0,0.0,0.0,0.0,0.0,0.0,0.0,0.0,0.0,0.0,0.0,0.0,0.0,0.0,0.0,0.0,0.0,0.0,0.0,0.0,0.0,0.0,0.0,0.0,0.0,0.0,0.0,0.0,0.0,0.0,0.0,0.0,0.0,0.0,0.0,0.0,0.0,0.0,0.0,0.0,0.0,0.0,0.0,0.0,0.0,0.0,0.0,0.0,0.0,0.0,0.0,0.0,0.0,0.0,0.0,1.2493,1.2902,1.3096,0.0,1.3004,0.0,0.0,0.0,0.0,0.0,0.0,0.0,0.0,0.0,0.0,0.0,0.0,0.0,0.0,0.0,0.0,0.0,0.0,0.0,0.0,0.0,0.0,0.0,0.0,0.0,0.0,0.0,0.0,0.0,0.0,0.0,0.0,0.0,0.0,0.0,0.0,0.0,0.0,0.0,0.0,0.0,0.0,0.0,0.0,0.0,0.0,0.0,0.0,0.0,0.0,0.0,0.0,0.0,0.0,0.0,0.0,0.0,0.0,0.0,0.0,0.0,0.0,0.0,0.0,0.0,0.0,0.0,0.0,0.0,0.0,0.0,0.0,0.0,0.0,0.0,0.0,0.0,0.0,0.0,0.0,0.0,0.0,0.0,0.0,0.0,0.0,0.0,0.0,0.0,0.0,0.0,0.0,0.0,0.0,0.0,0.0,0.0,0.0,0.0,0.0,0.0,0.0,0.0,0.0,0.0,0.0,0.0,0.0,0.0,0.0,1.1182,1.1375,1.1351,1.1352,0.0,0.0,0.0,0.0,0.0,0.0,0.0,0.0,0.0,0.0,0.0,0.0,0.0,0.0,0.0,0.0,0.0,0.0,0.0,0.0,0.0,0.0,0.0,0.0,0.0,0.0,0.0,0.0,0.0,0.0,0.0,0.0,0.0,0.0,0.0,0.0,0.0,0.0,0.0,0.0,0.0,0.0,0.0,0.0,0.0,0.0,0.0,0.0,0.0,0.0,0.0,0.0,0.0,0.0,0.0,0.0,0.0,0.0,0.0,0.0,0.0,0.0,0.0,0.0,0.0,0.0,0.0,0.0,0.0,0.0,0.0,0.0,0.0,0.0,0.0,0.0,0.0,0.0,0.0,0.0,0.0,0.0,0.0,0.0,0.0,0.0,0.0,0.0,0.0,0.0,0.0,0.0,0.0,0.0,0.0,0.0,0.0,0.0,0.0,0.0,0.0,0.0,0.0,0.0,0.0,0.0,0.0,0.0,0.0,0.0,0.995,0.9898,0.9898,0.9765,0.9736,0.9751,0.0,0.0,0.0,0.0,0.0,0.0,0.0,0.0,0.0,0.0,0.0,0.0,0.0,0.0,0.0,0.0,0.0,0.0,0.0,0.0,0.0,0.0,0.0,0.0,0.0,0.0,0.0,0.0,0.0,0.0,0.0,0.0,0.0,0.0,0.0,0.0,0.0,0.0,0.0,0.0,0.0,0.0,0.0,0.0,0.0,0.0,0.0,0.0,0.0,0.0,0.0,0.0,0.0,0.0,0.0,0.0,0.0,0.0,0.0,0.0,0.0,0.0,0.0,0.0,0.0,0.0,0.0,0.0,0.0,0.0,0.0,0.0,0.0,0.0,0.0,0.0,0.0,0.0,0.0,0.0,0.0,0.0,0.0,0.0,0.0,0.0,0.0,0.0,0.0,0.0,0.0,0.0,0.0,0.0,0.0,0.0,0.0,0.0,0.0,0.0,0.0,0.0,0.0,0.0,0.0,0.0,0.0,0.0,0.8692,0.8694,0.8679,0.8661,0.854,0.8396,0.0,0.0,0.0,0.0,0.0,0.0,0.0,0.0,0.0,0.0,0.0,0.0,0.0,0.0,0.0,0.0,0.0,0.0,0.0,0.0,0.0,0.0,0.0,0.0,0.0,0.0,0.0,0.0,0.0,0.0,0.0,0.0,0.0,0.0,0.0,0.0,0.0,0.0,0.0,0.0,0.0,0.0,0.0,0.0,0.0,0.0,0.0,0.0,0.0,0.0,0.0,0.0,0.0,0.0,0.0,0.0,0.0,0.0,0.0,0.0,0.0,0.0,0.0,0.0,0.0,0.0,0.0,0.0,0.0,0.0,0.0,0.0,0.0,0.0,0.0,0.0,0.0,0.0,0.0,0.0,0.0,0.0,0.0,0.0,0.0,0.0,0.0,0.0,0.0,0.0,0.0,0.0,0.0,0.0,0.0,0.0,0.0,0.0,0.0,0.0,0.0,0.0,0.0,0.0,0.0,0.0,0.0,0.0,0.0,0.7631,0.7626,0.7595,0.7513,0.7244,0.7044,0.0,0.0,0.0,0.0,0.0,0.0,0.0,0.0,0.0,0.0,0.0,0.0,0.0,0.0,0.0,0.0,0.0,0.0,0.0,0.0,0.0,0.0,0.0,0.0,0.0,0.0,0.0,0.0,0.0,0.0,0.0,0.0,0.0,0.0,0.0,0.0,0.0,0.0,0.0,0.0,0.0,0.0,0.0,0.0,0.0,0.0,0.0,0.0,0.0,0.0,0.0,0.0,0.0,0.0,0.0,0.0,0.0,0.0,0.0,0.0,0.0,0.0,0.0,0.0,0.0,0.0,0.0,0.0,0.0,0.0,0.0,0.0,0.0,0.0,0.0,0.0,0.0,0.0,0.0,0.0,0.0,0.0,0.0,0.0,0.0,0.0,0.0,0.0,0.0,0.0,0.0,0.0,0.0,0.0,0.0,0.0,0.0,0.0,0.0,0.0,0.0,0.0,0.0,0.0,0.0,0.0,0.0,0.0,0.0,0.6621,0.0,0.6701,0.6493,0.625,0.6014,0.0,0.0,0.0,0.0,0.0,0.0,0.0,0.0,0.0,0.0,0.0,0.0,0.0,0.0,0.0,0.0,0.0,0.0,0.0,0.0,0.0,0.0,0.0,0.0,0.0,0.0,0.0,0.0,0.0,0.0,0.0,0.0,0.0,0.0,0.0,0.0,0.0,0.0,0.0,0.0,0.0,0.0,0.0,0.0,0.0,0.0,0.0,0.0,0.0,0.0,0.0,0.0,0.0,0.0,0.0,0.0,0.0,0.0,0.0,0.0,0.0,0.0,0.0,0.0,0.0,0.0,0.0,0.0,0.0,0.0,0.0,0.0,0.0,0.0,0.0,0.0,0.0,0.0,0.0,0.0,0.0,0.0,0.0,0.0,0.0,0.0,0.0,0.0,0.0,0.0,0.0,0.0,0.0,0.0,0.0,0.0,0.0,0.0,0.0,0.0,0.0,0.0,0.0,0.0,0.0,0.0,0.0,0.0,0.5599,0.5623,0.6012,0.6026,0.5631,0.5618,0.538,0.0,0.0,0.0,0.0,0.0,0.0,0.0,0.0,0.0,0.0,0.0,0.0,0.0,0.0,0.0,0.0,0.0,0.0,0.0,0.0,0.0,0.0,0.0,0.0,0.0,0.0,0.0,0.0,0.0,0.0,0.0,0.0,0.0,0.0,0.0,0.0,0.0,0.0,0.0,0.0,0.0,0.0,0.0,0.0,0.0,0.0,0.0,0.0,0.0,0.0,0.0,0.0,0.0,0.0,0.0,0.0,0.0,0.0,0.0,0.0,0.0,0.0,0.0,0.0,0.0,0.0,0.0,0.0,0.0,0.0,0.0,0.0,0.0,0.0,0.0,0.0,0.0,0.0,0.0,0.0,0.0,0.0,0.0,0.0,0.0,0.0,0.0,0.0,0.0,0.0,0.0,0.0,0.0,0.0,0.0,0.0,0.0,0.0,0.0,0.0,0.0,0.0,0.0,0.0,0.0,0.0,0.0,0.0,0.0,0.5756,0.586,0.5831,0.5599,0.5239,0.4765,0.0,0.0,0.0,0.0,0.0,0.0,0.0,0.0,0.0,0.0,0.0,0.0,0.0,0.0,0.0,0.0,0.0,0.0,0.0,0.0,0.0,0.0,0.0,0.0,0.0,0.0,0.0,0.0,0.0,0.0,0.0,0.0,0.0,0.0,0.0,0.0,0.0,0.0,0.0,0.0,0.0,0.0,0.0,0.0,0.0,0.0,0.0,0.0,0.0,0.0,0.0,0.0,0.0,0.0,0.0,0.0,0.0,0.0,0.0,0.0,0.0,0.0,0.0,0.0,0.0,0.0,0.0,0.0,0.0,0.0,0.0,0.0,0.0,0.0,0.0,0.0,0.0,0.0,0.0,0.0,0.0,0.0,0.0,0.0,0.0,0.0,0.0,0.0,0.0,0.0,0.0,0.0,0.0,0.0,0.0,0.0,0.0,0.0,0.0,0.0,0.0,0.0,0.0,0.0,0.0,0.0,0.0,0.0,0.0,0.5975,0.5867,0.5735,0.5606,0.5016,0.4399,0.3628,0.0,0.0,0.0,0.0,0.0,0.0,0.0,0.0,0.0,0.0,0.0,0.0,0.0,0.0,0.0,0.0,0.0,0.0,0.0,0.0,0.0,0.0,0.0,0.0,0.0,0.0,0.0,0.0,0.0,0.0,0.0,0.0,0.0,0.0,0.0,0.0,0.0,0.0,0.0,0.0,0.0,0.0,0.0,0.0,0.0,0.0,0.0,0.0,0.0,0.0,0.0,0.0,0.0,0.0,0.0,0.0,0.0,0.0,0.0,0.0,0.0,0.0,0.0,0.0,0.0,0.0,0.0,0.0,0.0,0.0,0.0,0.0,0.0,0.0,0.0,0.0,0.0,0.0,0.0,0.0,0.0,0.0,0.0,0.0,0.0,0.0,0.0,0.0,0.0,0.0,0.0,0.0,0.0,0.0,0.0,0.0,0.0,0.0,0.0,0.0,0.0,0.0,0.0,0.0,0.0,0.0,0.0,0.0,0.625,0.5989,0.5762,0.5589,0.497,0.4212,0.0,0.0,0.0,0.0,0.0,0.0,0.0,0.0,0.0,0.0,0.0,0.0,0.0,0.0,0.0,0.0,0.0,0.0,0.0,0.0,0.0,0.0,0.0,0.0,0.0,0.0,0.0,0.0,0.0,0.0,0.0,0.0,0.0,0.0,0.0,0.0,0.0,0.0,0.0,0.0,0.0,0.0,0.0,0.0,0.0,0.0,0.0,0.0,0.0,0.0,0.0,0.0,0.0,0.0,0.0,0.0,0.0,0.0,0.0,0.0,0.0,0.0,0.0,0.0,0.0,0.0,0.0,0.0,0.0,0.0,0.0,0.0,0.0,0.0,0.0,0.0,0.0,0.0,0.0,0.0,0.0,0.0,0.0,0.0,0.0,0.0,0.0,0.0,0.0,0.0,0.0,0.0,0.0,0.0,0.0,0.0,0.0,0.0,0.0,0.0,0.0,0.0,0.0,0.0,0.0,0.0,0.0,0.0,0.0,0.5988,0.61,0.6001,0.5683,0.5129,0.4387,0.0,0.0,0.0,0.0,0.0,0.0,0.0,0.0,0.0,0.0,0.0,0.0,0.0,0.0,0.0,0.0,0.0,0.0,0.0,0.0,0.0,0.0,0.0,0.0,0.0,0.0,0.0,0.0,0.0,0.0,0.0,0.0,0.0,0.0,0.0,0.0,0.0,0.0,0.0,0.0,0.0,0.0,0.0,0.0,0.0,0.0,0.0,0.0,0.0,0.0,0.0,0.0,0.0,0.0,0.0,0.0,0.0,0.0,0.0,0.0,0.0,0.0,0.0,0.0,0.0,0.0,0.0,0.0,0.0,0.0,0.0,0.0,0.0,0.0,0.0,0.0,0.0,0.0,0.0,0.0,0.0,0.0,0.0,0.0,0.0,0.0,0.0,0.0,0.0,0.0,0.0,0.0,0.0,0.0,0.0,0.0,0.0,0.0,0.0,0.0,0.0,0.0,0.0,0.0,0.0,0.0,0.0,0.0,0.5996,0.6039,0.622,0.6093,0.5765,0.5179,0.437,0.0,0.0,0.0,0.0,0.0,0.0,0.0,0.0,0.0,0.0,0.0,0.0,0.0,0.0,0.0,0.0,0.0,0.0,0.0,0.0,0.0,0.0,0.0,0.0,0.0,0.0,0.0,0.0,0.0,0.0,0.0,0.0,0.0,0.0,0.0,0.0,0.0,0.0,0.0,0.0,0.0,0.0,0.0,0.0,0.0,0.0,0.0,0.0,0.0,0.0,0.0,0.0,0.0,0.0,0.0,0.0,0.0,0.0,0.0,0.0,0.0,0.0,0.0,0.0,0.0,0.0,0.0,0.0,0.0,0.0,0.0,0.0,0.0,0.0,0.0,0.0,0.0,0.0,0.0,0.0,0.0,0.0,0.0,0.0,0.0,0.0,0.0,0.0,0.0,0.0,0.0,0.0,0.0,0.0,0.0,0.0,0.0,0.0,0.0,0.0,0.0,0.0,0.0,0.0,0.0,0.0,0.0,0.0,0.6056,0.6242,0.6227,0.6085,0.5812,0.5146,0.4363,0.0,0.0,0.0,0.0,0.0,0.0,0.0,0.0,0.0,0.0,0.0,0.0,0.0,0.0,0.0,0.0,0.0,0.0,0.0,0.0,0.0,0.0,0.0,0.0,0.0,0.0,0.0,0.0,0.0,0.0,0.0,0.0,0.0,0.0,0.0,0.0,0.0,0.0,0.0,0.0,0.0,0.0,0.0,0.0,0.0,0.0,0.0,0.0,0.0,0.0,0.0,0.0,0.0,0.0,0.0,0.0,0.0,0.0,0.0,0.0,0.0,0.0,0.0,0.0,0.0,0.0,0.0,0.0,0.0,0.0,0.0,0.0,0.0,0.0,0.0,0.0,0.0,0.0,0.0,0.0,0.0,0.0,0.0,0.0,0.0,0.0,0.0,0.0,0.0,0.0,0.0,0.0,0.0,0.0,0.0,0.0,0.0,0.0,0.0,0.0,0.0,0.0,0.0,0.0,0.0,0.0,0.0,0.0,0.623,0.6076,0.61,0.591,0.551,0.5175,0.4625,0.0,0.0,0.0,0.0,0.0,0.0,0.0,0.0,0.0,0.0,0.0,0.0,0.0,0.0,0.0,0.0,0.0,0.0,0.0,0.0,0.0,0.0,0.0,0.0,0.0,0.0,0.0,0.0,0.0,0.0,0.0,0.0,0.0,0.0,0.0,0.0,0.0,0.0,0.0,0.0,0.0,0.0,0.0,0.0,0.0,0.0,0.0,0.0,1.6074,0.0,0.0,0.0,0.0,0.0,0.0,0.0,0.0,0.0,0.0,0.0,0.0,0.0,0.0,0.0,0.0,0.0,0.0,0.0,0.0,0.0,0.0,0.0,0.0,0.0,0.0,0.0,0.0,0.0,0.0,0.0,0.0,0.0,0.0,0.0,0.0,0.0,0.0,0.0,0.0,0.0,0.0,0.0,0.0,0.0,0.0,0.0,0.0,0.0,0.0,0.0,0.0,0.0,0.0,0.0,0.0,0.0,0.0,0.0,0.6318,0.5957,0.5851,0.5594,0.523,0.4942,0.455,0.0,0.0,0.0,0.0,0.0,0.0,0.0,0.0,0.0,0.0,0.0,0.0,0.0,0.0,0.0,0.0,0.0,0.0,0.0,0.0,0.0,0.0,0.0,0.0,0.0,0.0,0.0,0.0,0.0,0.0,0.0,0.0,0.0,0.0,0.0,0.0,0.0,0.0,0.0,0.0,0.0,0.0,0.0,0.0,0.0,0.0,0.0,0.0,0.0,0.0,0.0,0.0,0.0,0.0,0.0,0.0,0.0,0.0,0.0,0.0,0.0,0.0,0.0,0.0,0.0,0.0,0.0,0.0,0.0,0.0,0.0,0.0,0.0,0.0,0.0,0.0,0.0,0.0,0.0,0.0,0.0,0.0,0.0,0.0,0.0,0.0,0.0,0.0,0.0,0.0,0.0,0.0,0.0,0.0,0.0,0.0,0.0,0.0,0.0,0.0,0.0,0.0,0.0,0.0,0.0,0.0,0.0,0.7137,0.6548,0.6088,0.5753,0.5457,0.5168,0.4803,0.4484,0.4127,0.0,0.0,0.0,0.0,0.0,0.0,0.0,0.0,0.0,0.0,0.0,0.0,0.0,0.0,0.0,0.0,0.0,0.0,0.0,0.0,0.0,0.0,0.0,0.0,0.0,0.0,0.0,0.0,0.0,0.0,0.0,0.0,0.0,0.0,0.0,0.0,0.0,0.0,1.3946,1.6195,0.0,0.0,0.0,0.0,0.0,0.0,0.0,0.0,2.0569,0.0,0.0,0.0,0.0,0.0,0.0,0.0,0.0,0.0,0.0,0.0,0.0,0.0,0.0,0.0,0.0,0.0,0.0,0.0,0.0,0.0,0.0,0.0,0.0,0.0,0.0,0.0,0.0,0.0,0.0,0.0,0.0,0.0,0.0,0.0,0.0,0.0,0.0,0.0,0.0,0.0,0.0,0.0,0.0,0.0,0.0,0.0,0.0,0.0,0.0,0.0,0.0,0.0,0.0,0.0,0.0,0.8713,0.7992,0.7375,0.6926,0.6548,0.6114,0.5783,0.5447,0.5022,0.4599,0.0,0.0,0.0,0.0,0.0,0.0,0.0,0.0,0.0,0.0,0.0,0.0,0.0,0.0,0.0,0.0,0.0,0.0,0.0,0.0,0.0,0.0,0.0,0.0,0.0,0.0,0.0,0.0,0.0,0.0,0.0,0.0,0.0,0.0,0.0,0.0,0.0,0.0,0.0,1.897,2.0141,0.0,0.0,0.0,0.0,0.0,0.0,0.0,0.0,2.3362,0.0,0.0,0.0,0.0,0.0,0.0,0.0,0.0,0.0,0.0,0.0,0.0,0.0,0.0,0.0,0.0,0.0,0.0,0.0,0.0,0.0,0.0,0.0,0.0,0.0,0.0,0.0,0.0,0.0,0.0,0.0,0.0,0.0,0.0,0.0,0.0,0.0,0.0,0.0,0.0,0.0,0.0,0.0,0.0,0.0,0.0,0.0,0.0,0.0,0.0,0.0,0.0,0.0,0.0,0.0,0.9522,0.8849,0.8189,0.7409,0.6951,0.652,0.6092,0.5791,0.5531,0.0,0.0,0.0,0.0,0.0,0.0,0.0,0.0,0.0,0.0,0.0,0.0,0.0,0.0,0.0,0.0,0.0,0.0,0.0,0.0,0.0,0.0,0.0,0.0,0.0,0.0,0.0,0.0,0.0,0.0,0.0,0.0,0.0,0.0,0.0,0.0,0.0,0.0,0.0,0.0,2.1276,2.2724,2.3119,0.0,0.0,0.0,0.0,0.0,0.0,2.5764,2.5584,0.0,0.0,0.0,0.0,0.0,0.0,0.0,0.0,0.0,0.0,0.0,0.0,0.0,0.0,0.0,0.0,0.0,0.0,0.0,0.0,0.0,0.0,0.0,0.0,0.0,0.0,0.0,0.0,0.0,0.0,0.0,0.0,0.0,0.0,0.0,0.0,0.0,0.0,0.0,0.0,0.0,0.0,0.0,0.0,0.0,0.0,0.0,0.0,0.0,0.0,0.0,0.0,0.0,0.0,0.0,1.0396,0.9786,0.9033,0.8226,0.7607,0.7092,0.6688,0.6418,0.6133,0.0,0.0,0.0,0.0,0.0,0.0,0.0,0.0,0.0,0.0,0.0,0.0,0.0,0.0,0.0,0.0,0.0,0.0,0.0,0.0,0.0,0.0,0.0,0.0,0.0,0.0,0.0,0.0,0.0,0.0,0.0,0.0,0.0,0.0,0.0,0.0,0.0,0.0,0.0,0.0,0.0,2.4958,2.5603,2.6059,0.0,0.0,0.0,0.0,2.7918,2.822,0.0,0.0,0.0,0.0,0.0,0.0,0.0,0.0,0.0,0.0,0.0,0.0,0.0,0.0,0.0,0.0,0.0,0.0,0.0,0.0,0.0,0.0,0.0,0.0,0.0,0.0,0.0,0.0,0.0,0.0,0.0,0.0,0.0,0.0,0.0,0.0,0.0,0.0,0.0,0.0,0.0,0.0,0.0,0.0,0.0,0.0,0.0,0.0,0.0,0.0,0.0,0.0,0.0,0.0,0.0,0.0,1.1332,1.0707,1.0191,0.9776,0.9028,0.8499,0.8309,0.7729,0.7314,0.0,0.0,0.0,0.0,0.0,0.0,0.0,0.0,0.0,0.0,0.0,0.0,0.0,0.0,0.0,0.0,0.0,0.0,0.0,0.0,0.0,0.0,0.0,0.0,0.0,0.0,0.0,0.0,0.0,0.0,0.0,0.0,0.0,0.0,0.0,0.0,0.0,0.0,0.0,0.0,0.0,2.6323,2.7497,2.7983,2.8125,0.0,0.0,3.0043,3.0558,3.069,0.0,0.0,0.0,0.0,0.0,0.0,0.0,0.0,0.0,0.0,0.0,0.0,0.0,0.0,0.0,0.0,0.0,0.0,0.0,0.0,0.0,0.0,0.0,0.0,0.0,0.0,0.0,0.0,0.0,0.0,0.0,0.0,0.0,0.0,0.0,0.0,0.0,0.0,0.0,0.0,0.0,0.0,0.0,0.0,0.0,0.0,0.0,0.0,0.0,0.0,0.0,0.0,0.0,0.0,0.0,1.2667,1.2129,1.1581,1.1049,1.0506,0.9678,0.9144,0.8969,0.8471,0.8147,0.0,0.0,0.0,0.0,0.0,0.0,0.0,0.0,0.0,0.0,0.0,0.0,0.0,0.0,0.0,0.0,0.0,0.0,0.0,0.0,0.0,0.0,0.0,0.0,0.0,0.0,0.0,0.0,0.0,0.0,0.0,0.0,0.0,0.0,0.0,0.0,0.0,0.0,0.0,0.0,0.0,0.0,2.9653,3.0807,0.0,0.0,0.0,3.2601,3.3056,0.0,0.0,0.0,0.0,0.0,0.0,0.0,0.0,0.0,0.0,0.0,0.0,0.0,0.0,0.0,0.0,0.0,0.0,0.0,0.0,0.0,0.0,0.0,0.0,0.0,0.0,0.0,0.0,0.0,0.0,0.0,0.0,0.0,0.0,0.0,0.0,0.0,0.0,0.0,0.0,0.0,0.0,0.0,0.0,0.0,0.0,0.0,0.0,0.0,0.0,0.0,0.0,0.0,0.0,0.0,0.0,0.0,1.2859,1.2366,1.1843,1.1326,1.0458,0.9871,0.9723,0.9223,0.0,0.0,0.0,0.0,0.0,0.0,0.0,0.0,0.0,0.0,0.0,0.0,0.0,0.0,0.0,0.0,0.0,0.0,0.0,0.0,0.0,0.0,0.0,0.0,0.0,0.0,0.0,2.0979,0.0,0.0,0.0,0.0,0.0,0.0,0.0,0.0,0.0,0.0,0.0,0.0,0.0,0.0,2.9711,3.1454,3.3019,3.4104,0.0,0.0,3.4806,3.5284,3.4591,3.3333,0.0,0.0,0.0,0.0,0.0,0.0,0.0,0.0,0.0,0.0,0.0,0.0,0.0,0.0,0.0,0.0,0.0,0.0,0.0,0.0,0.0,0.0,0.0,0.0,0.0,0.0,0.0,0.0,0.0,0.0,0.0,0.0,0.0,0.0,0.0,0.0,0.0,0.0,0.0,0.0,0.0,0.0,0.0,0.0,0.0,0.0,0.0,0.0,0.0,0.0,0.0,0.0,0.0,0.0,0.0,1.3592,1.3003,1.2648,1.264,1.1634,1.11,1.1042,1.0177,0.9828,0.0,0.0,0.0,0.0,0.0,0.0,0.0,0.0,0.0,0.0,0.0,0.0,0.0,0.0,0.0,0.0,0.0,0.0,0.0,0.0,0.0,0.0,0.0,0.0,0.0,0.0,0.0,0.0,0.0,0.0,0.0,0.0,0.0,0.0,0.0,0.0,0.0,0.0,0.0,0.0,0.0,3.0584,3.2448,3.3808,3.4765,0.0,0.0,3.6577,3.7056,3.6279,3.4938,3.2951,0.0,0.0,0.0,0.0,0.0,0.0,0.0,0.0,0.0,0.0,0.0,0.0,0.0,0.0,0.0,0.0,0.0,0.0,0.0,0.0,0.0,0.0,0.0,0.0,0.0,0.0,0.0,0.0,0.0,0.0,0.0,0.0,0.0,0.0,0.0,0.0,0.0,0.0,0.0,0.0,0.0,0.0,0.0,0.0,0.0,0.0,0.0,0.0,0.0,0.0,0.0,0.0,0.0,1.4451,1.4446,1.384,1.3472,1.3204,1.25,1.2014,1.1688,1.1244,1.0927,0.0,0.0,0.0,0.0,0.0,0.0,0.0,0.0,0.0,0.0,0.0,0.0,0.0,0.0,0.0,0.0,0.0,0.0,0.0,0.0,0.0,0.0,0.0,0.0,0.0,0.0,0.0,0.0,3.0321,3.1153,3.0117,0.0,0.0,0.0,0.0,0.0,0.0,0.0,0.0,0.0,0.0,3.2774,3.4534,3.5866,0.0,0.0,3.6998,3.7137,3.7476,3.6292,3.4745,3.3132,3.019,0.0,0.0,0.0,0.0,0.0,0.0,0.0,0.0,0.0,0.0,0.0,0.0,0.0,0.0,0.0,0.0,0.0,0.0,0.0,0.0,0.0,0.0,0.0,0.0,0.0,0.0,0.0,0.0,0.0,0.0,0.0,0.0,0.0,0.0,0.0,0.0,0.0,0.0,0.0,0.0,0.0,0.0,0.0,0.0,0.0,0.0,0.0,0.0,0.0,0.0,0.0,0.0,1.4924,1.5212,1.4578,1.4164,1.398,1.336,1.2883,1.2549,1.2278,1.2097,0.0,0.0,0.0,0.0,0.0,0.0,0.0,0.0,0.0,0.0,0.0,0.0,0.0,0.0,0.0,0.0,0.0,0.0,0.0,0.0,0.0,0.0,0.0,0.0,0.0,0.0,0.0,0.0,3.2099,3.2358,3.0648,0.0,0.0,0.0,0.0,0.0,0.0,0.0,0.0,0.0,0.0,3.4222,3.5653,3.681,3.7584,3.7751,3.7481,3.7333,3.7544,3.6277,3.4781,3.3393,0.0,0.0,0.0,0.0,0.0,0.0,0.0,0.0,0.0,0.0,0.0,0.0,0.0,0.0,0.0,0.0,0.0,0.0,0.0,0.0,0.0,0.0,0.0,0.0,0.0,0.0,0.0,0.0,0.0,0.0,1.1577,0.0,0.0,0.0,0.0,0.0,0.0,0.0,0.0,0.0,0.0,0.0,0.0,0.0,0.0,0.0,0.0,0.0,0.0,0.0,0.0,0.0,0.0,1.5323,1.5954,1.4995,1.4682,1.5032,1.4286,1.3902,1.3848,1.3424,1.3286,1.3549,0.0,0.0,0.0,0.0,0.0,0.0,0.0,0.0,0.0,0.0,0.0,0.0,0.0,0.0,0.0,0.0,0.0,0.0,0.0,0.0,0.0,0.0,0.0,0.0,0.0,0.0,3.3734,3.3322,3.2039,0.0,0.0,0.0,0.0,0.0,0.0,0.0,0.0,0.0,0.0,3.3469,3.4537,3.542,3.6226,3.6863,3.7026,3.7136,3.7236,3.7253,3.6431,3.5324,0.0,0.0,0.0,0.0,0.0,0.0,0.0,0.0,0.0,0.0,0.0,0.0,0.0,0.0,0.0,0.0,0.0,0.0,0.0,0.0,0.0,0.0,0.0,0.0,0.0,0.0,0.0,1.0713,1.1383,0.0,0.0,0.0,0.0,0.0,0.0,0.0,0.0,0.0,0.0,0.0,1.5856,1.5779,0.0,0.0,0.0,0.0,0.0,0.0,0.0,0.0,0.0,0.0,0.0,0.0,1.5834,1.6419,1.6048,1.584,1.5846,1.5575,1.5283,1.4908,1.4779,1.4829,1.5246,0.0,0.0,0.0,0.0,0.0,0.0,0.0,0.0,0.0,0.0,0.0,0.0,0.0,0.0,0.0,0.0,0.0,0.0,0.0,0.0,0.0,0.0,0.0,0.0,0.0,3.4335,0.0,0.0,0.0,0.0,0.0,0.0,0.0,0.0,0.0,0.0,0.0,3.2909,3.4293,3.5335,3.6145,3.6745,3.7103,3.7319,0.0,0.0,0.0,0.0,0.0,0.0,0.0,0.0,0.0,0.0,0.0,0.0,0.0,0.0,1.9939,1.7772,1.6747,1.5968,1.5248,0.0,0.0,0.0,0.0,0.0,0.0,0.0,0.0,0.0,0.0,0.0,0.0,0.0,0.0,1.1228,0.0,1.1872,0.0,0.0,0.0,0.0,0.0,0.0,0.0,0.0,1.6084,1.6311,1.6565,1.6602,1.6631,0.0,1.6844,1.6605,0.0,0.0,0.0,0.0,0.0,0.0,0.0,0.0,1.6203,1.6785,1.6606,1.6512,1.6466,1.6386,1.615,1.5818,1.5818,1.6007,1.6355,1.6235,1.6465,0.0,0.0,0.0,0.0,0.0,0.0,0.0,0.0,0.0,0.0,0.0,0.0,0.0,0.0,0.0,0.0,0.0,0.0,0.0,0.0,0.0,0.0,0.0,3.6185,0.0,0.0,0.0,0.0,0.0,0.0,0.0,0.0,0.0,3.213,3.3558,3.4976,3.5954,3.6522,3.694,3.7103,0.0,0.0,0.0,0.0,0.0,0.0,0.0,3.4529,3.3834,3.3482,3.2579,3.0411,2.7935,2.5752,2.4255,0.0,0.0,1.9389,1.8333,1.7606,1.6846,1.6142,1.5589,1.5334,1.4988,1.4753,0.0,0.0,0.0,0.0,0.0,0.0,0.0,0.0,1.1065,1.1763,0.0,1.2584,0.0,0.0,0.0,0.0,0.0,1.5566,0.0,0.0,1.6827,1.6942,1.68,1.7263,1.7548,1.7541,1.7735,1.7964,1.8126,1.7005,0.0,0.0,0.0,0.0,0.0,0.0,1.6433,1.7043,1.6771,1.671,1.7012,1.6777,1.6683,1.6676,1.6676,1.6768,1.6985,1.7424,1.7592,1.745,1.8385,0.0,0.0,0.0,0.0,0.0,0.0,0.0,0.0,0.0,0.0,0.0,0.0,0.0,0.0,0.0,0.0,0.0,0.0,0.0,0.0,3.8514,0.0,0.0,0.0,0.0,0.0,0.0,0.0,0.0,0.0,0.0,3.4443,3.5344,3.6267,3.7101,0.0,0.0,0.0,0.0,3.6233,3.6053,3.5883,3.5706,3.5424,3.5152,3.5044,3.5321,0.0,0.0,3.0957,2.936,2.7785,2.6118,2.4661,2.309,2.0978,2.0206,1.9687,1.8913,1.8184,1.7603,1.6992,1.6583,1.6376,0.8277,0.0,0.0,0.0,0.0,1.045,1.0964,1.1396,1.1978,1.2744,1.3594,1.3541,0.0,0.0,0.0,0.0,0.0,0.0,1.6824,1.7155,1.761,1.7784,1.7858,1.7968,1.816,1.8354,1.856,1.8677,1.8715,1.8666,1.8117,1.7117,0.0,0.0,0.0,0.0,1.7689,1.7943,1.7948,1.7895,1.7807,1.7714,1.7753,1.7939,1.7939,1.8203,1.8798,1.8999,1.9293,1.9796,1.9859,0.0,0.0,0.0,0.0,0.0,0.0,0.0,0.0,0.0,0.0,0.0,0.0,0.0,0.0,0.0,0.0,0.0,0.0,0.0,4.0482,3.9835,3.8433,0.0,0.0,0.0,0.0,0.0,0.0,0.0,0.0,0.0,3.6723,3.7131,3.7487,0.0,0.0,3.7105,3.6768,3.6423,3.617,3.6019,3.58,0.0,0.0,3.5575,3.5662,3.5377,3.4443,3.3306,3.199,3.0111,2.8178,2.6411,2.5351,2.4189,2.2666,2.1378,2.0379,1.9633,1.8887,1.8287,1.8032,1.7605,1.7149,0.966,0.9737,0.9729,1.0158,1.0877,1.1327,1.1768,1.2184,1.2694,1.3459,1.4382,1.4468,1.5039,1.5939,1.614,0.0,0.0,0.0,1.754,1.7896,1.8392,1.8671,1.875,1.8987,1.9232,1.9519,1.9681,1.9829,1.9913,2.0253,1.9977,1.9108,0.0,0.0,1.849,1.8622,1.8768,1.886,1.8819,1.8681,1.8542,1.8542,1.8589,1.8773,1.8858,1.9217,1.9828,2.0007,2.0342,2.103,2.1212,2.1214,0.0,0.0,0.0,0.0,0.0,0.0,0.0,0.0,0.0,0.0,0.0,3.0883,0.0,0.0,0.0,0.0,3.9726,4.1466,4.1633,4.0962,0.0,0.0,0.0,0.0,0.0,0.0,0.0,3.5846,3.7206,3.8237,3.8706,3.9139,3.9075,3.8277,3.8026,3.7795,3.7409,0.0,3.721,3.6992,3.6774,3.6547,3.628,3.641,3.6272,3.561,3.4838,3.3885,3.2701,3.0887,2.8997,2.7243,2.5885,2.4701,2.3366,2.1964,2.0912,2.0349,1.9607,1.9035,1.8814,1.8289,1.7858,1.1034,1.1435,1.0954,1.1091,1.1584,1.1999,1.2498,1.2933,1.3396,1.4099,1.4986,1.5356,1.6016,1.681,1.7179,0.0,1.7943,1.7943,1.8174,1.8572,1.9167,1.9459,1.9476,2.0075,2.0473,2.0781,2.0997,2.123,2.1517,2.1731,2.1671,2.138,2.0458,1.993,1.9798,1.9691,1.9721,1.978,1.9512,1.9338,1.9371,1.9363,1.9371,1.9417,1.955,1.9898,2.0421,2.0648,2.0997,2.1555,2.2412,2.2594,2.1998,0.0,0.0,0.0,0.0,0.0,0.0,0.0,0.0,0.0,0.0,0.0,0.0,0.0,0.0,0.0,4.1562,0.0,4.2295,4.205,0.0,0.0,0.0,3.719,3.7004,3.6914,3.7236,3.8146,0.0,0.0,4.0435,4.1103,4.0806,3.8862,3.8831,3.8825,3.8382,3.8671,3.8855,3.8373,3.8242,3.8091,3.772,3.7478,3.7079,3.6299,3.5734,3.4879,3.3269,3.1646,2.9985,2.8078,2.6388,2.4806,2.3422,2.2269,2.1392,2.1049,2.0354,1.9729,1.9276,1.878,1.8411,1.2513,1.2816,1.3428,1.3424,1.3059,1.3542,1.4152,1.4774,1.5062,1.5572,1.635,1.6611,1.7086,1.7747,1.7696,1.7932,1.8418,1.847,1.8702,1.9064,1.957,1.9884,2.0118,2.0367,2.0853,2.1481,2.1748,2.2069,2.2485,2.2891,2.3052,2.2935,2.2546,2.1771,2.0583,2.0866,2.0907,2.069,2.0614,2.0554,2.0574,2.0709,2.0889,2.1114,2.0996,2.1149,2.1646,2.1722,2.189,2.22,2.3084,2.3427,2.3186,2.3334,0.0,0.0,0.0,0.0,0.0,0.0,0.0,0.0,0.0,3.2586,3.4234,0.0,3.8125,0.0,4.2633,4.4252,4.4157,4.4033,0.0,0.0,4.0777,4.0424,4.0278,4.0108,4.0325,4.1177,4.138,4.1531,4.1608,4.1679,4.1452,4.0638,4.0164,3.9744,3.9337,3.9105,3.886,3.8539,3.8408,3.8231,3.8413,3.852,3.8469,3.8075,3.6999,3.56,3.3886,3.2059,3.018,2.8233,2.666,2.52,2.3744,2.2806,2.1977,2.1144,2.0285,1.9579,1.9242,1.8843,1.8442,1.3649,1.3934,1.4948,1.5224,1.503,1.5109,1.5397,1.5887,1.6116,1.6544,1.7212,1.7767,1.8284,1.8746,1.8738,1.8889,1.9212,1.9454,1.9726,2.0039,2.0591,2.1015,2.1275,2.1668,2.2104,2.2511,2.2853,2.3115,2.3276,2.3701,2.3927,2.3807,2.3898,2.3314,2.203,2.1836,2.1662,2.1494,2.1489,2.1553,2.1641,2.1952,2.2089,2.2008,2.2126,2.2213,2.2375,2.2469,2.2656,2.2981,2.3815,2.422,2.4028,2.4515,2.4524,0.0,0.0,0.0,0.0,0.0,0.0,0.0,0.0,0.0,0.0,0.0,3.9146,4.1625,4.3459,4.4573,4.4725,4.4772,4.4215,4.282,4.2472,4.2324,4.2206,4.2058,4.2085,4.2468,4.2724,4.2817,4.2642,4.2808,4.2961,4.2883,4.2375,4.1572,4.0488,4.0443,4.0518,4.0095,4.0158,4.0135,3.9854,3.9478,3.9044,3.8356,3.706,3.5502,3.381,3.1999,3.0132,2.8255,2.6685,2.5209,2.3746,2.2867,2.2072,2.1123,2.0442,1.9997,1.9571,1.9115,1.8735,1.4747,1.5006,1.6025,1.6687,1.7069,1.6698,1.6669,1.6862,1.7039,1.7421,1.7931,1.8875,1.9433,1.9725,1.9882,1.9973,2.0019,2.0555,2.0916,2.1132,2.182,2.2264,2.2564,2.3242,2.359,2.3711,2.4079,2.4166,2.4013,2.437,2.4509,2.4368,2.4734,2.4503,2.3663,2.2819,2.2349,2.2277,2.2366,2.2539,2.2692,2.3081,2.31,2.2755,2.3056,2.3104,2.2868,2.3067,2.3356,2.3763,2.4581,2.4932,2.472,2.5599,2.5745,0.0,2.5537,0.0,0.0,0.0,0.0,0.0,0.0,0.0,0.0,3.7572,4.0224,4.3207,4.4111,4.4607,4.4845,4.4979,4.4754,4.3945,4.3743,4.3623,4.3556,4.3424,4.3276,4.3158,4.3579,4.3843,4.3794,4.4237,4.4718,4.494,4.4618,4.3628,4.2007,4.2312,4.2683,4.2293,4.249,4.2035,4.1302,4.0351,3.9344,3.8278,3.6975,3.5241,3.3684,3.193,3.0133,2.8306,2.6706,2.5191,2.3692,2.286,2.2066,2.1085,2.0874,2.0654,2.0039,1.9472,1.9241,1.618,1.632,1.7479,1.8057,1.8149,1.8706,1.8857,1.8674,1.872,1.9026,1.9464,1.9666,1.992,2.0155,2.0374,2.0456,2.0501,2.0997,2.1356,2.1615,2.2122,2.2687,2.329,2.3614,2.4046,2.4605,2.4733,2.4818,2.4946,2.5031,2.5031,2.502,2.4953,2.4798,2.4616,0.0,0.0,0.0,2.3761,2.4149,2.4402,2.4231,2.42,2.4343,2.3992,0.0,2.3776,2.3902,2.4025,2.411,2.5228,0.0,0.0,0.0,0.0,0.0,0.0,0.0,0.0,0.0,0.0,0.0,3.4847,3.5695,3.6086,3.937,4.1978,4.3157,4.4451,4.5343,4.5623,4.5841,4.5878,4.5728,4.5618,4.5531,4.5421,4.5254,4.5117,4.493,4.4914,4.5068,4.5432,4.549,4.5615,4.5984,4.5698,4.5126,4.4356,4.4088,4.3814,4.3321,4.2749,4.2166,4.2014,4.1047,4.0077,3.9432,3.8047,3.6255,3.4363,3.2591,3.067,2.8638,2.7165,2.5793,2.4268,2.3511,2.2784,2.1712,2.1712,2.1437,2.0183,1.9681,1.9437,1.7372,0.0,1.8434,1.8858,0.0,1.9517,1.9845,1.9928,1.9646,1.9874,2.0464,2.0464,2.0727,2.1221,2.157,2.173,2.1863,2.2359,2.2711,2.2965,2.328,2.3681,2.4209,2.4529,2.4871,2.5253,2.5338,2.538,2.5422,2.5591,2.5644,2.5549,2.5768,2.5772,2.558,2.5593,2.5181,2.4371,2.4759,2.5154,2.5505,2.5592,2.5477,2.5209,2.5053,0.0,0.0,0.0,0.0,0.0,0.0,0.0,0.0,2.8082,0.0,2.9026,2.9635,3.0367,3.124,3.2385,3.3715,3.5098,3.6941,3.8196,3.8596,4.0782,4.2593,4.3751,4.4739,4.5452,4.5822,4.6066,4.6204,4.6206,4.6175,4.6103,4.5952,4.5848,4.5835,4.6041,4.5973,4.6107,4.6657,4.6569,4.6626,4.6983,4.6705,4.6449,4.6384,4.5663,4.4903,4.4558,4.3622,4.2832,4.2455,4.1517,4.0388,3.95,3.8123,3.6422,3.4637,3.2802,3.0944,2.8901,2.7437,2.6022,2.4667,2.3895,2.3297,2.2426,2.2333,2.2181,2.1188,2.0684,2.0434,1.8442,1.8657,1.9225,1.96,1.9828,2.0019,2.0382,2.088,0.0,0.0,0.0,2.1257,2.1704,2.2378,2.2887,2.3193,2.3357,2.3844,2.4198,2.4456,2.4584,2.484,2.5158,2.5506,2.5728,2.577,2.5937,2.5937,2.5812,2.6104,2.6188,2.6157,2.6727,2.688,2.6691,2.7002,2.6771,2.6098,2.5957,2.6102,2.6547,2.686,2.6748,2.6055,2.623,2.6144,2.5577,2.5861,2.6131,2.6435,2.7481,2.8248,2.8581,2.9882,3.0726,3.091,3.164,3.2436,3.3295,3.4272,3.5352,3.661,3.8676,4.0254,4.1014,4.1796,4.2846,4.4322,4.4893,4.5328,4.5731,4.6021,4.6199,4.6209,4.6344,4.6385,4.6274,4.6298,4.6556,4.6919,4.6906,4.7046,4.7623,4.754,4.7598,4.7943,4.7695,4.748,4.7638,4.6687,4.5788,4.5449,4.4569,4.3744,4.2909,4.1836,4.0588,3.9311,3.7951,3.6358,3.4611,3.2857,3.1078,2.9096,2.7568,2.6205,2.4873,2.4242,2.3596,2.2736,2.2878,2.2937,2.2434,2.2013,2.1836,1.9401,1.9509,2.0192,2.051,2.0564,2.0727,2.1096,2.1553,2.1302,2.1482,2.1963,2.2378,2.2809,2.3363,2.3983,2.4274,2.4327,2.4807,2.5105,2.5316,2.5316,2.5611,2.603,2.6071,2.6249,2.6437,2.6479,2.6467,2.6479,2.652,2.6603,2.6798,2.7196,2.777,2.8378,2.8485,2.8794,2.9298,2.8089,2.7619,2.7914,2.7676,2.7612,2.7688,2.7829,2.7839,2.7762,2.8385,2.8763,2.8833,2.955,3.0119,3.0351,3.1182,3.186,3.2448,3.2982,3.3683,3.4596,3.5714,3.7247,3.9172,4.0278,4.0852,4.0963,4.2285,4.343,4.4188,4.4724,4.5198,4.558,4.5944,4.6189,4.6294,4.6889,4.7284,4.7217,4.7695,4.8009,4.7995,4.7837,4.7952,4.8483,4.8399,4.8422,4.8781,4.8399,4.8026,4.747,4.6878,4.6257,4.5674,4.4927,4.4088,4.3125,4.2045,4.0774,3.9499,3.8101,3.6554,3.4665,3.3139,3.1444,2.9429,2.8013,2.6648,2.5216,2.4587,2.4035,2.322,2.352,2.3777,2.3329,2.3379,2.3379,2.0329,2.0609,2.0934,2.1159,2.1284,2.1579,2.1856,2.2132,2.253,2.275,2.2891,2.3212,2.3734,2.4433,2.485,2.5179,2.5432,2.579,2.601,2.6093,2.6082,2.6207,2.6415,2.6415,2.655,2.6768,2.6768,2.6839,2.6951,2.7144,2.7296,2.7429,2.8035,2.8925,3.0013,3.0116,3.0629,3.1611,3.0034,2.9351,2.9776,2.9865,2.9882,2.9817,3.0075,3.0204,3.0273,3.0788,3.1238,3.1519,3.2277,3.2841,3.3283,3.3758,3.4259,3.4862,3.5106,3.5537,3.6207,3.7299,3.8553,3.9901,4.0621,4.1363,4.2153,4.2769,4.344,4.4132,4.4631,4.5282,4.614,4.6512,4.6929,4.7491,4.7969,4.8168,4.8144,4.8296,4.8612,4.8831,4.8759,4.8886,4.9489,4.9364,4.9168,4.9236,4.8678,4.7994,4.7454,4.7007,4.6471,4.5786,4.5052,4.41,4.3125,4.2142,4.0925,3.957,3.8213,3.671,3.4993,3.3479,3.1741,2.9886,2.8481,2.7231,2.5955,2.5411,2.4913,2.451,2.4559,2.4756,2.4559,2.4716,2.4667,2.1159,2.1482,2.1651,2.183,2.2043,2.253,2.2696,2.2838,2.3701,2.4057,2.397,2.4133,2.4647,2.5401,2.5695,2.5988,2.6373,2.6633,2.6727,2.6727,2.6727,2.6727,2.6715,2.6757,2.688,2.7056,2.7126,2.729,2.751,2.7851,2.8131,2.8383,2.915,3.0209,3.1461,3.1656,3.2319,3.3395,3.2175,3.1489,3.162,3.2034,3.2095,3.1889,3.225,3.2546,3.2659,3.3113,3.3599,3.4065,3.4773,3.5433,3.5913,3.6255,3.6645,3.7096,3.7311,3.7664,3.8262,3.9135,3.9987,4.0637,4.1295,4.2193,4.3347,4.3597,4.392,4.4624,4.5187,4.5864,4.6867,4.7318,4.7797,4.859,4.896,4.9065,4.9013,4.9061,4.9265,4.9737,4.971,4.9794,5.008,5.0025,4.965,4.9123,4.8495,4.7931,4.7493,4.7075,4.659,4.5887,4.5115,4.4243,4.3169,4.2253,4.1176,3.9713,3.8524,3.7151,3.5615,3.4014,3.2339,3.0676,2.9303,2.8117,2.7098,2.6476,2.5984,2.5538,2.5684,2.5936,2.5722,2.5742,2.5703,2.1651,2.1785,2.2362,2.2794,2.3003,2.3484,2.3657,2.3797,2.4647,2.5158,2.5274,2.5369,2.5611,2.6155,2.6539,2.6768,2.685,2.7067,2.7149,2.7149,2.7149,2.7149,2.7138,2.733,2.7441,2.7522,2.7846,2.8179,2.8367,2.8633,2.9106,2.9818,3.0597,3.1448,3.2349,3.2942,3.3801,3.4967,3.4835,3.4251,3.3275,3.3404,3.3545,3.3465,3.4042,3.443,3.4669,3.538,3.5899,3.6127,3.6663,3.706,3.7364,3.7822,3.8238,3.8582,3.9157,3.9911,4.075,4.1455,4.1946,4.2467,4.3096,4.3761,4.4294,4.5017,4.5662,4.6217,4.6718,4.7136,4.7808,4.8122,4.8463,4.8899,4.9536,4.9976,5.003,5.0552,5.0939,5.0861,5.0585,5.0529,5.0355,5.0012,4.9488,4.8872,4.8401,4.7949,4.7472,4.7138,4.6684,4.5963,4.5275,4.4524,4.3604,4.2695,4.1557,4.0289,3.9124,3.7762,3.6332,3.4884,3.3382,3.1816,3.0541,2.9303,2.8258,2.76,2.7078,2.6514,2.661,2.6993,2.6802,2.6572,2.6342,2.2176,2.2564,2.3023,2.3484,2.3993,2.4423,2.4594,2.469,2.5443,2.5893,2.6113,2.6249,2.6426,2.6633,2.6798,2.6974,2.7108,2.7149,2.719,2.719,2.7301,2.7371,2.7412,2.7626,2.7857,2.8099,2.8407,2.8803,2.9211,2.9626,3.033,3.124,3.1782,3.2626,3.3848,3.4378,3.5214,3.6392,3.6575,3.6535,3.6372,3.5871,3.5615,3.564,3.6192,3.6698,3.7057,3.7587,3.8087,3.845,3.8802,3.9184,3.961,3.961,3.9767,4.0135,4.0508,4.1033,4.1699,4.2233,4.2663,4.3019,4.3657,4.4408,4.5344,4.6104,4.6928,4.7839,4.7556,4.7586,4.8564,4.8966,4.9394,5.0049,5.0564,5.0819,5.0876,5.106,5.1152,5.1011,5.0863,5.0664,5.0355,4.9795,4.9268,4.8767,4.8363,4.787,4.7554,4.716,4.6619,4.6038,4.545,4.4735,4.3839,4.2912,4.1851,4.0721,3.954,3.8287,3.6947,3.5669,3.4293,3.2839,3.1609,3.0418,2.9257,2.8724,2.8269,2.7668,2.7384,2.762,2.7347,2.7251,2.7061,2.2878,2.3389,2.3804,2.4305,2.4893,2.5316,2.5485,2.5569,2.6185,2.6558,2.6734,2.7056,2.7179,2.719,2.7097,2.7126,2.7301,2.7353,2.7394,2.7423,2.7563,2.7684,2.7713,2.807,2.8403,2.8657,2.9079,2.96,3.0228,3.089,3.1657,3.2446,3.3008,3.3908,3.5137,3.5706,3.6529,3.7553,3.7839,3.8202,3.8598,3.8121,3.7615,3.7515,3.7947,3.8412,3.873,3.9184,3.9615,4.0126,4.0424,4.0836,4.1325,4.1164,4.1278,4.173,4.2083,4.2406,4.2851,4.3373,4.3809,4.4154,4.4665,4.5397,4.6347,4.7102,4.7976,4.8856,4.8423,4.8479,4.9358,4.9781,5.0306,5.1093,5.128,5.134,5.1357,5.1286,5.1189,5.106,5.089,5.0625,5.024,4.9627,4.9125,4.8838,4.8344,4.7829,4.7618,4.7183,4.6661,4.607,4.5529,4.4835,4.3943,4.3127,4.211,4.1127,3.9999,3.8855,3.7577,3.645,3.5251,3.393,3.2741,3.1545,3.0407,2.9795,2.9139,2.871,2.8301,2.803,2.7878,2.7783,2.7641,2.3849,2.4172,2.4824,2.5433,2.5853,2.6082,2.6155,2.6238,2.6846,2.7144,2.7226,2.7626,2.7841,2.7812,2.7563,2.7482,2.7522,2.7748,2.7841,2.7881,2.8059,2.8167,2.8207,2.8788,2.9052,2.9209,2.9908,3.0672,3.1511,3.2302,3.2925,3.3407,3.4468,3.5355,3.6077,3.6834,3.7606,3.8352,3.8649,3.9053,3.9574,3.9702,3.9349,3.8841,3.8929,3.9162,3.94,3.9864,4.032,4.0765,4.1256,4.1687,4.2029,4.2364,4.2767,4.3406,4.3987,4.4416,4.4749,4.5295,4.5835,4.6205,4.6595,4.7205,4.7391,4.801,4.8601,4.9067,4.9419,4.9821,5.0293,5.0493,5.079,5.1132,5.1308,5.138,5.1401,5.1323,5.1285,5.115,5.0894,5.0499,4.9933,4.9525,4.9176,4.8856,4.8438,4.8048,4.76,4.7227,4.6731,4.6112,4.5529,4.4862,4.396,4.3265,4.2523,4.1623,4.0585,3.957,3.8524,3.7396,3.6174,3.4938,3.3661,3.2488,3.1504,3.0634,2.9851,2.9229,2.8621,2.8303,2.8481,2.8209,2.8157,2.5094,2.574,2.6301,2.661,2.6745,2.694,2.7021,2.7062,2.7441,2.7667,2.7667,2.7841,2.7962,2.8111,2.8139,2.8059,2.7966,2.8059,2.8151,2.8323,2.8618,2.8776,2.8843,2.9392,2.978,3.0024,3.052,3.1408,3.254,3.3252,3.4057,3.4899,3.5613,3.6324,3.7049,3.7762,3.8389,3.9053,3.9364,3.9809,4.0351,4.0439,4.0424,4.0409,4.0146,4.0161,4.0509,4.0665,4.1039,4.1573,4.19,4.2269,4.2726,4.3248,4.386,4.4452,4.4797,4.5133,4.5589,4.5995,4.6429,4.6812,4.7191,4.7582,4.7974,4.8402,4.887,4.9312,4.9717,5.0149,5.0547,5.0803,5.0985,5.1171,5.1284,5.1366,5.1387,5.1345,5.1271,5.1157,5.084,5.0415,5.0025,4.9607,4.9257,4.8959,4.8606,4.8208,4.7767,4.7345,4.6829,4.6161,4.5606,4.4998,4.4138,4.3446,4.2774,4.1997,4.1091,4.0165,3.9154,3.8144,3.6947,3.5843,3.4581,3.3313,3.2257,3.0923,3.0262,2.9945,2.9299,2.9087,2.9235,2.9169,2.9186,2.6441,2.7181,2.7631,2.7771,2.7707,2.7819,2.7807,2.7667,2.7909,2.8042,2.8082,2.8151,2.8339,2.8566,2.8724,2.8843,2.8882,2.8685,2.8645,2.8816,2.9209,2.9443,2.9586,3.005,3.047,3.081,3.1272,3.2159,3.3431,3.4107,3.4994,3.6146,3.6703,3.7318,3.7971,3.8501,3.909,3.9631,3.995,4.037,4.0901,4.1021,4.1239,4.1456,4.1256,4.114,4.1307,4.139,4.1704,4.2254,4.2539,4.2896,4.3476,4.408,4.4564,4.4978,4.5266,4.5641,4.6102,4.6501,4.6898,4.7349,4.7624,4.7949,4.8362,4.8696,4.9073,4.9499,4.9868,5.0245,5.0606,5.089,5.1082,5.1195,5.1275,5.1336,5.1386,5.1334,5.1229,5.1061,5.0764,5.0413,5.0114,4.9741,4.9384,4.9061,4.8732,4.8344,4.7875,4.7392,4.6921,4.6284,4.5735,4.5133,4.4418,4.3756,4.3005,4.2254,4.1456,4.0597,3.9758,3.8767,3.7787,3.6663,3.5467,3.4199,3.2885,3.1482,3.0847,3.0629,3.0281,3.0013,3.0163,3.0246,3.0343,2.7976,2.8421,2.8692,2.8777,2.868,2.8639,2.8392,2.8068,2.8163,2.8339,2.8459,2.8697,2.9,2.9302,2.938,2.9729,3.0126,2.9729,2.9484,2.9535,2.9908,3.0216,3.0432,3.0823,3.1235,3.1629,3.2191,3.3076,3.4237,3.4995,3.5912,3.6956,3.7794,3.8376,3.8782,3.9256,3.9687,4.0181,4.0489,4.0833,4.1256,4.1489,4.172,4.2077,4.2206,4.2158,4.19,4.2029,4.2317,4.2803,4.3204,4.3671,4.4248,4.4714,4.5022,4.5177,4.5658,4.6126,4.6495,4.6994,4.7432,4.787,4.817,4.8382,4.8697,4.8995,4.9324,4.9655,5.0,5.032,5.0586,5.0898,5.1125,5.1204,5.131,5.1385,5.1386,5.1349,5.1195,5.0965,5.069,5.0421,5.0139,4.9857,4.9506,4.9108,4.8784,4.8439,4.7915,4.7457,4.7035,4.6548,4.592,4.5292,4.4663,4.4071,4.3292,4.2523,4.172,4.0885,4.0181,3.9277,3.8393,3.7353,3.6089,3.4793,3.3645,3.2371,3.1786,3.1472,3.1171,3.0994,3.112,3.1254,3.1461,2.9296,2.9415,2.9808,2.9858,2.9612,2.9295,2.8992,2.8853,2.8695,2.8657,2.8764,2.9067,2.9419,2.9806,3.0011,3.0419,3.0897,3.0897,3.0759,3.0583,3.0823,3.1048,3.1259,3.1643,3.2009,3.2463,3.329,3.4108,3.5004,3.6053,3.7141,3.8002,3.8679,3.9184,3.958,4.0076,4.0578,4.0938,4.1305,4.1604,4.1851,4.1916,4.2109,4.2445,4.2634,4.2836,4.3125,4.2927,4.3035,4.3489,4.3831,4.435,4.4934,4.5203,4.5468,4.5811,4.6087,4.6477,4.6886,4.7288,4.7689,4.8092,4.8345,4.8605,4.8856,4.9129,4.9411,4.9745,5.0038,5.0333,5.0678,5.0935,5.1142,5.1241,5.1352,5.1385,5.1387,5.1288,5.1156,5.0972,5.0735,5.0466,5.0212,4.9939,4.9615,4.9241,4.8959,4.8587,4.8034,4.7582,4.7125,4.6548,4.597,4.545,4.4845,4.4202,4.3443,4.2664,4.1916,4.1156,4.0459,3.9868,3.8988,3.7998,3.6716,3.5551,3.4361,3.3523,3.2936,3.2456,3.2188,3.2139,3.2153,3.234,3.2584,3.0134,3.0379,3.0675,3.0639,3.0374,3.0085,2.9765,2.9443,2.9306,2.9209,2.9246,2.9496,2.996,3.047,3.0735,3.1172,3.175,3.1932,3.1946,3.1813,3.1703,3.1813,3.2069,3.248,3.2838,3.3255,3.4129,3.4982,3.5739,3.6954,3.8018,3.8891,3.9436,3.9935,4.0335,4.0783,4.1156,4.1505,4.1767,4.198,4.2174,4.2286,4.2492,4.2883,4.3129,4.3535,4.4059,4.3885,4.3943,4.4248,4.4586,4.5008,4.5503,4.5632,4.5887,4.6259,4.6554,4.6875,4.728,4.7645,4.7994,4.8363,4.8605,4.8819,4.9042,4.9305,4.9596,4.9882,5.0183,5.0498,5.0795,5.1017,5.1166,5.1292,5.1364,5.1391,5.1365,5.128,5.1128,5.0978,5.0797,5.0517,5.0271,5.0005,4.9669,4.9321,4.901,4.8641,4.8093,4.7645,4.7147,4.6643,4.6137,4.5589,4.5025,4.4316,4.3578,4.282,4.2077,4.139,4.0734,4.033,3.9639,3.8717,3.755,3.6698,3.5557,3.4749,3.409,3.367,3.3293,3.325,3.3363,3.3618,3.3916,3.0668,3.1306,3.135,3.1217,3.1057,3.1107,3.0687,2.9906,2.993,2.9978,2.993,3.0088,3.0533,3.1222,3.1519,3.2019,3.2632,3.269,3.2881,3.3002,3.2775,3.2632,3.281,3.3276,3.3626,3.3925,3.4799,3.5714,3.6543,3.7632,3.8573,3.9621,4.0076,4.0528,4.1021,4.129,4.1571,4.1882,4.1996,4.219,4.2445,4.2618,4.2945,4.3432,4.3713,4.4133,4.4625,4.4889,4.5015,4.5113,4.5363,4.5632,4.5862,4.6087,4.6381,4.6666,4.6972,4.7345,4.7702,4.8072,4.842,4.8769,4.8926,4.9079,4.9368,4.9581,4.983,5.0082,5.0391,5.0672,5.0875,5.1081,5.1224,5.131,5.1375,5.1385,5.1384,5.1268,5.1152,5.0991,5.0795,5.0576,5.0306,5.007,4.9693,4.9268,4.8922,4.8532,4.8093,4.7645,4.7258,4.676,4.6211,4.5709,4.5106,4.4333,4.3578,4.2974,4.2286,4.168,4.1221,4.0887,4.0419,3.945,3.8545,3.7698,3.6929,3.6155,3.5476,3.5075,3.4776,3.4569,3.4593,3.4799,3.509,3.125,3.1572,3.1761,3.1896,3.1987,3.1834,3.1573,3.1232,3.0816,3.0782,3.0842,3.0916,3.1235,3.1703,3.22,3.2668,3.3086,3.3276,3.3486,3.3709,3.3716,3.3597,3.3563,3.3819,3.4128,3.4583,3.5771,3.6604,3.7099,3.8597,3.9582,4.006,4.0699,4.1156,4.1489,4.1883,4.2158,4.2286,4.2524,4.2744,4.2898,4.3188,4.3578,4.4035,4.4305,4.4708,4.5196,4.5641,4.5786,4.5606,4.576,4.6045,4.6357,4.6578,4.6858,4.7236,4.7524,4.7838,4.8193,4.8569,4.889,4.9079,4.9324,4.9525,4.96,4.9857,5.0044,5.0268,5.0507,5.0763,5.0935,5.1103,5.1242,5.1361,5.1384,5.1381,5.1338,5.1249,5.1142,5.0995,5.078,5.0546,5.0317,5.005,4.9755,4.9346,4.8956,4.8532,4.8053,4.7642,4.7254,4.676,4.6235,4.5735,4.5142,4.4333,4.3654,4.3082,4.251,4.2015,4.1779,4.165,4.1151,4.0466,3.9634,3.8833,3.8242,3.7599,3.7116,3.6414,3.5953,3.5607,3.5655,3.581,3.6143,3.1737,3.1981,3.2201,3.2388,3.2525,3.2491,3.2441,3.2306,3.2051,3.1796,3.1759,3.1825,3.2078,3.2322,3.2753,3.3227,3.3626,3.3764,3.3902,3.4108,3.4244,3.4264,3.423,3.4366,3.4771,3.5577,3.676,3.7646,3.8376,3.9726,4.0466,4.0836,4.129,4.1703,4.2045,4.2302,4.2555,4.2711,4.2976,4.316,4.3325,4.3625,4.4018,4.4446,4.4807,4.5266,4.5862,4.6259,4.6308,4.6087,4.6211,4.6477,4.6783,4.7017,4.7327,4.7728,4.7977,4.8233,4.8605,4.8957,4.9174,4.9334,4.9577,4.9783,4.9906,5.0082,5.0256,5.0476,5.0672,5.0848,5.1024,5.1176,5.1291,5.1383,5.1381,5.1355,5.13,5.1241,5.1142,5.0988,5.0799,5.0566,5.0337,5.0082,4.9722,4.9315,4.8905,4.844,4.7994,4.7621,4.7227,4.6731,4.6235,4.5735,4.5186,4.4463,4.3767,4.3195,4.3073,4.2523,4.2306,4.2288,4.1906,4.1337,4.0647,3.9998,3.9397,3.8787,3.8109,3.75,3.6989,3.6756,3.6743,3.679,3.7129,3.2245,3.2487,3.2723,3.2797,3.2927,3.3343,3.3389,3.3212,3.3226,3.3014,3.2701,3.2751,3.2837,3.3051,3.3297,3.3695,3.4128,3.4162,3.4332,3.4515,3.4683,3.4769,3.4902,3.4902,3.5558,3.6607,3.7628,3.8683,3.9634,4.0712,4.1325,4.1621,4.1882,4.2206,4.2508,4.2618,4.2836,4.3099,4.3312,4.3522,4.373,4.408,4.4491,4.4862,4.5302,4.5844,4.6363,4.669,4.6684,4.6381,4.6684,4.6944,4.7191,4.7432,4.777,4.8134,4.8384,4.8659,4.8942,4.919,4.943,4.9573,4.9768,4.9955,5.0181,5.0313,5.0467,5.0644,5.0824,5.0966,5.1118,5.128,5.1356,5.1386,5.1346,5.1316,5.1281,5.1217,5.1136,5.1,5.0799,5.0586,5.0329,5.005,4.9722,4.9331,4.8905,4.8439,4.7974,4.7536,4.712,4.6684,4.6211,4.5735,4.5186,4.4592,4.3964,4.3408,4.3588,4.3292,4.2947,4.2833,4.2641,4.214,4.1448,4.0901,4.0402,3.9749,3.9056,3.8621,3.8154,3.7959,3.7867,3.79,3.8096,3.2723,3.2982,3.3356,3.3598,3.3865,3.4259,3.4498,3.4587,3.4326,3.4108,3.3857,3.3739,3.3529,3.334,3.3882,3.4244,3.4399,3.4601,3.4835,3.5001,3.5169,3.5429,3.5574,3.5524,3.6077,3.7184,3.8185,3.9273,4.0432,4.1404,4.2013,4.2206,4.2476,4.2729,4.2837,4.2976,4.3082,4.3325,4.3611,4.3906,4.4236,4.4669,4.5079,4.5424,4.5895,4.6332,4.6684,4.6921,4.7062,4.7191,4.732,4.7475,4.7648,4.8032,4.8363,4.8605,4.8854,4.9092,4.9286,4.9521,4.9759,4.9887,5.01,5.0317,5.0407,5.0596,5.07,5.0814,5.0928,5.1078,5.1226,5.1332,5.1384,5.1383,5.1334,5.1304,5.1269,5.1145,5.1037,5.0909,5.0739,5.0523,5.0306,5.005,4.9722,4.9346,4.8903,4.8439,4.7974,4.749,4.7053,4.6637,4.6211,4.5735,4.5203,4.4722,4.4256,4.3939,4.409,4.4365,4.4006,4.3596,4.3486,4.2967,4.2249,4.1701,4.117,4.0545,3.9763,3.9557,3.9292,3.9056,3.8863,3.8908,3.8863,3.3441,3.3624,3.4118,3.4439,3.466,3.5087,3.544,3.5642,3.5623,3.5482,3.5306,3.4936,3.4604,3.4387,3.4491,3.4616,3.4835,3.5118,3.5379,3.5574,3.5784,3.6038,3.6336,3.6506,3.7032,3.8182,3.892,4.0056,4.1358,4.2108,4.2555,4.2711,4.2914,4.3037,4.3146,4.3281,4.3462,4.3759,4.4047,4.4373,4.4691,4.5196,4.5709,4.6038,4.6453,4.6824,4.712,4.7345,4.7582,4.7811,4.7953,4.8014,4.8073,4.842,4.8733,4.8996,4.9209,4.9427,4.9621,4.9852,5.0057,5.0175,5.0407,5.0556,5.0654,5.0799,5.0909,5.0966,5.1076,5.1201,5.1323,5.138,5.1385,5.1381,5.1323,5.1277,5.1191,5.1107,5.1002,5.0901,5.072,5.0514,5.0306,5.0038,4.9674,4.9283,4.8887,4.8439,4.7891,4.7443,4.7007,4.659,4.6204,4.5735,4.523,4.4823,4.4569,4.449,4.4723,4.5167,4.5336,4.4898,4.4441,4.3663,4.2845,4.2348,4.1771,4.1142,4.0645,4.0372,4.0112,3.9938,3.9719,3.9618,3.953,3.4202,3.4327,3.499,3.5277,3.5386,3.5951,3.6336,3.652,3.6755,3.6749,3.6662,3.6106,3.5645,3.5492,3.5047,3.5045,3.5394,3.5705,3.6023,3.6149,3.6507,3.6723,3.6983,3.7378,3.8157,3.9439,3.9752,4.0858,4.2198,4.2899,4.3037,4.3204,4.3235,4.3355,4.3492,4.3611,4.3818,4.4138,4.4513,4.4855,4.5188,4.5649,4.6186,4.6613,4.6865,4.716,4.7446,4.7687,4.7955,4.8325,4.8569,4.8587,4.8587,4.8696,4.8996,4.9262,4.9446,4.9636,4.9852,5.0076,5.0267,5.0407,5.0606,5.0745,5.0819,5.0937,5.1016,5.1108,5.1189,5.1252,5.1375,5.1389,5.1386,5.1376,5.133,5.1226,5.1139,5.1088,5.1022,5.0866,5.0664,5.044,5.0248,5.0018,4.9617,4.9217,4.8853,4.842,4.7891,4.7421,4.7048,4.6613,4.6235,4.5709,4.5177,4.4854,4.4616,4.5061,4.5271,4.5766,4.6288,4.5984,4.5332,4.422,4.3457,4.2955,4.2444,4.191,4.1479,4.1226,4.0845,4.0545,4.0372,4.0243,4.0199,3.4729,3.499,3.5763,3.6123,3.6189,3.6822,3.7173,3.7419,3.7582,3.7489,3.7208,3.6663,3.6234,3.5878,3.5528,3.5619,3.6053,3.6461,3.6707,3.686,3.7208,3.7522,3.7711,3.8033,3.9034,4.0229,4.0634,4.1392,4.271,4.3204,4.3462,4.3704,4.3734,4.3805,4.3923,4.4039,4.4167,4.4491,4.4872,4.5205,4.5615,4.6144,4.6619,4.7025,4.7156,4.7356,4.7639,4.787,4.8152,4.8514,4.8803,4.8993,4.9075,4.9176,4.9324,4.948,4.9659,4.983,5.0005,5.0175,5.0374,5.0546,5.0718,5.0855,5.0954,5.1037,5.1113,5.1169,5.1243,5.1297,5.1384,5.14,5.1383,5.1353,5.1297,5.1234,5.1136,5.1037,5.0929,5.0745,5.0546,5.0363,5.0175,4.9978,4.9621,4.9252,4.8905,4.8495,4.8034,4.7578,4.7165,4.6737,4.6308,4.5735,4.514,4.4854,4.4726,4.5457,4.5841,4.6203,4.6601,4.6752,4.6198,4.5095,4.422,4.3654,4.3155,4.2607,4.2172,4.1785,4.1451,4.1114,4.093,4.0745,4.0674,3.5494,3.5803,3.6638,3.6964,3.7081,3.7672,3.7976,3.8104,3.8375,3.8488,3.8155,3.7564,3.7167,3.6865,3.6142,3.6163,3.6723,3.7193,3.7445,3.7608,3.7943,3.8246,3.8399,3.8667,3.9846,4.0892,4.1337,4.1939,4.3343,4.3671,4.3818,4.3969,4.4085,4.4155,4.4241,4.4384,4.4592,4.4889,4.5249,4.5674,4.6112,4.6666,4.7035,4.7209,4.7399,4.7593,4.7827,4.813,4.8439,4.8767,4.9044,4.9257,4.9449,4.9566,4.9611,4.9692,4.9802,4.9965,5.012,5.0314,5.0534,5.0692,5.083,5.0954,5.1043,5.1111,5.1185,5.1234,5.1261,5.1327,5.1398,5.1385,5.1362,5.1325,5.13,5.1235,5.1113,5.0988,5.0814,5.0644,5.0525,5.0359,5.0126,4.9893,4.9625,4.9286,4.8939,4.855,4.8134,4.7708,4.7276,4.6713,4.6235,4.5684,4.5167,4.492,4.4886,4.5589,4.6223,4.6597,4.6927,4.706,4.6728,4.5985,4.5221,4.4427,4.3669,4.3036,4.2688,4.2295,4.1924,4.1577,4.1395,4.1269,4.11,3.6253,3.6443,3.7258,3.7562,3.7676,3.8251,3.8546,3.876,3.9126,3.9379,3.9358,3.8424,3.8029,3.7945,3.7279,3.6876,3.7387,3.7857,3.8116,3.827,3.8595,3.8849,3.9013,3.9394,4.0207,4.1538,4.1877,4.2629,4.3627,4.3981,4.4097,4.4196,4.431,4.4423,4.4536,4.4776,4.5032,4.5363,4.5684,4.6161,4.6695,4.7102,4.7363,4.7385,4.7615,4.7824,4.803,4.8324,4.866,4.8993,4.9257,4.9495,4.9721,4.9871,4.9898,4.9862,4.9978,5.0101,5.0267,5.0492,5.0693,5.0819,5.094,5.1043,5.1122,5.1181,5.1228,5.1281,5.1326,5.1339,5.1389,5.1386,5.1359,5.1318,5.1285,5.1234,5.1089,5.0929,5.0764,5.0615,5.0513,5.0302,5.0044,4.9824,4.957,4.9324,4.8959,4.8641,4.823,4.7809,4.732,4.669,4.6137,4.5624,4.522,4.5005,4.5122,4.5624,4.6258,4.6736,4.708,4.7374,4.6957,4.6585,4.5893,4.5089,4.4297,4.3591,4.3195,4.2809,4.2363,4.1993,4.1744,4.1521,4.1367,3.6757,3.6627,3.7221,3.7514,3.7587,3.8172,3.8764,3.9313,3.9814,4.0076,4.0034,3.8971,3.8608,3.8512,3.8032,3.7743,3.7956,3.8371,3.8694,3.8788,3.9148,3.9352,3.9448,3.9677,4.0654,4.186,4.2169,4.2947,4.3848,4.4155,4.4253,4.4406,4.4547,4.4686,4.5015,4.515,4.5363,4.5709,4.6013,4.6525,4.7102,4.7385,4.7511,4.7657,4.7783,4.7968,4.8189,4.8495,4.8785,4.9179,4.9498,4.9721,4.9871,5.0005,5.0108,5.0139,5.0212,5.0302,5.0404,5.0615,5.0801,5.0898,5.101,5.1092,5.1167,5.1241,5.13,5.1287,5.1344,5.1377,5.14,5.1386,5.1361,5.1307,5.1248,5.1161,5.1029,5.0882,5.071,5.0504,5.0371,5.0133,4.9876,4.9688,4.9495,4.926,4.8995,4.866,4.8249,4.7788,4.7254,4.6572,4.6087,4.5598,4.522,4.5005,4.5086,4.5535,4.6097,4.6692,4.6965,4.722,4.7507,4.7067,4.641,4.5765,4.5008,4.4328,4.3786,4.3235,4.2769,4.2363,4.1993,4.1785,4.166,3.6939,3.6621,3.7178,3.744,3.7554,3.8456,3.8996,3.9454,4.0305,4.0715,4.0504,3.9621,3.8968,3.8575,3.8293,3.8371,3.8567,3.8931,3.9175,3.9265,3.952,3.9668,3.972,3.9933,4.0744,4.1941,4.2545,4.3294,4.4107,4.4536,4.4581,4.4659,4.4906,4.5133,4.545,4.558,4.5837,4.6161,4.6566,4.6985,4.7341,4.7554,4.7696,4.7801,4.7907,4.813,4.8401,4.8642,4.8974,4.9337,4.9644,4.9821,4.9952,5.0063,5.0194,5.0267,5.0412,5.05,5.0535,5.0701,5.085,5.0995,5.1101,5.1185,5.1261,5.1307,5.1355,5.1372,5.1373,5.1395,5.1387,5.1355,5.1311,5.1257,5.1196,5.1088,5.0978,5.0844,5.0664,5.044,5.0231,4.9992,4.9778,4.9615,4.9449,4.9246,4.896,4.8642,4.8152,4.7621,4.7012,4.6357,4.598,4.5615,4.5274,4.4978,4.4831,4.519,4.5647,4.6199,4.6653,4.6947,4.7224,4.7324,4.6878,4.623,4.5635,4.4949,4.4212,4.3669,4.317,4.2875,4.2552,4.2254,4.2034,3.6856,3.6502,3.7109,3.7353,3.7432,3.847,3.9118,3.957,4.0573,4.1184,4.1095,4.0387,3.936,3.8557,3.8655,3.8942,3.9104,3.9352,3.9563,3.9703,3.9807,3.991,3.9986,4.018,4.0849,4.233,4.2543,4.3363,4.4348,4.4922,4.5042,4.4978,4.5292,4.558,4.5811,4.6038,4.6284,4.6666,4.7098,4.7407,4.7578,4.7744,4.7884,4.7986,4.8126,4.8287,4.8624,4.8874,4.9158,4.9488,4.9741,4.9925,5.005,5.0151,5.0278,5.0379,5.05,5.0634,5.0701,5.0814,5.0937,5.1063,5.12,5.1252,5.1303,5.1375,5.1391,5.139,5.1394,5.1386,5.138,5.1332,5.1271,5.1215,5.1122,5.101,5.0914,5.0782,5.0615,5.0385,5.017,4.9879,4.9702,4.957,4.9387,4.9197,4.8927,4.8606,4.8092,4.7472,4.6898,4.6284,4.5887,4.5572,4.522,4.4951,4.4803,4.4862,4.5309,4.5643,4.6083,4.6522,4.6886,4.693,4.6941,4.6641,4.5977,4.5316,4.4632,4.4212,4.3825,4.3457,4.314,4.2809,4.2377,3.6526,3.6252,3.6957,3.7216,3.7248,3.7807,3.8807,3.99,4.0705,4.1422,4.1773,4.114,4.003,3.9166,3.9185,3.9432,3.9501,3.9746,3.9858,3.9961,4.0113,4.023,4.028,4.0481,4.0912,4.1875,4.2568,4.3434,4.4354,4.5424,4.5459,4.5424,4.5735,4.6013,4.6284,4.6525,4.6829,4.7169,4.7518,4.7689,4.7832,4.799,4.8128,4.8207,4.8362,4.8569,4.8787,4.9046,4.934,4.9688,4.9871,5.0044,5.0163,5.0267,5.0379,5.0489,5.0584,5.072,5.0866,5.0925,5.1017,5.1097,5.1215,5.1326,5.1352,5.1379,5.1392,5.1402,5.1383,5.1385,5.1385,5.1341,5.1245,5.1185,5.1088,5.0969,5.0866,5.0718,5.0546,5.034,5.012,4.9857,4.9615,4.948,4.9343,4.915,4.8822,4.8476,4.7931,4.7359,4.6829,4.6308,4.587,4.5477,4.5113,4.4913,4.4776,4.48,4.5089,4.526,4.5433,4.5918,4.6362,4.6499,4.6503,4.6428,4.6443,4.5941,4.5426,4.488,4.4427,4.4105,4.3678,4.326,4.2754,3.6722,3.6739,3.7279,3.7312,3.708,3.8118,3.9105,4.0086,4.1139,4.1703,4.1901,4.1529,4.0773,3.9943,3.9729,3.991,4.0003,4.0104,4.0188,4.0263,4.0387,4.0412,4.0461,4.0678,4.1074,4.1926,4.279,4.3759,4.4699,4.5674,4.6105,4.6211,4.6259,4.6435,4.6713,4.7057,4.7385,4.7539,4.7731,4.7854,4.805,4.813,4.8267,4.8458,4.8532,4.8784,4.9077,4.9289,4.9566,4.9811,5.0005,5.0158,5.029,5.0371,5.047,5.0566,5.0654,5.0797,5.094,5.101,5.1069,5.1205,5.1303,5.1364,5.1391,5.1392,5.1389,5.1401,5.1387,5.1374,5.134,5.1277,5.1211,5.115,5.1056,5.0956,5.0825,5.0701,5.0516,5.0337,5.0108,4.9843,4.9615,4.9406,4.9265,4.9101,4.8733,4.8324,4.7785,4.7249,4.6737,4.6259,4.5837,4.545,4.5086,4.4913,4.4765,4.4806,4.4891,4.4973,4.5056,4.5239,4.5657,4.5868,4.6109,4.6175,4.6283,4.6463,4.6166,4.5551,4.5089,4.4699,4.4243,4.3732,4.318,3.7029,3.7315,3.7714,3.7653,3.7419,3.8427,3.9476,4.0478,4.1501,4.1991,4.1946,4.1933,4.13,4.046,4.0213,4.0238,4.0313,4.0337,4.0412,4.0461,4.051,4.0583,4.0655,4.082,4.1218,4.2007,4.2846,4.3763,4.4747,4.5911,4.6435,4.6699,4.6921,4.7039,4.7147,4.7557,4.7868,4.7911,4.7994,4.8093,4.8305,4.8438,4.855,4.8784,4.8905,4.9106,4.9384,4.9581,4.9778,4.9999,5.0158,5.0267,5.0382,5.05,5.0565,5.0635,5.0735,5.0867,5.0984,5.1105,5.1171,5.13,5.1358,5.1381,5.1392,5.1387,5.1399,5.1386,5.1381,5.1353,5.1304,5.1228,5.1178,5.1108,5.102,5.0913,5.081,5.0692,5.0504,5.0325,5.0082,4.9788,4.9491,4.9244,4.8995,4.8822,4.8495,4.8072,4.76,4.7098,4.6643,4.6211,4.5803,4.5415,4.5059,4.4913,4.4748,4.4671,4.4739,4.4727,4.4807,4.4926,4.5063,4.5327,4.5577,4.5862,4.5947,4.5993,4.6157,4.6234,4.5769,4.5295,4.4655,4.4135,4.363,3.7447,3.7899,3.8173,3.8214,3.8157,3.8583,3.9764,4.1224,4.1822,4.2152,4.2286,4.2342,4.1622,4.0593,4.0461,4.0534,4.0558,4.0541,4.0566,4.0638,4.0752,4.0799,4.0935,4.1134,4.1371,4.1748,4.2652,4.3678,4.4609,4.5799,4.6557,4.7209,4.7539,4.7627,4.7554,4.7949,4.8168,4.8207,4.8381,4.8495,4.8624,4.8803,4.8976,4.9176,4.9315,4.9518,4.9683,4.9838,5.0025,5.0182,5.029,5.0382,5.0489,5.0563,5.0625,5.0701,5.0769,5.0901,5.1099,5.1228,5.1314,5.1364,5.1386,5.1398,5.139,5.14,5.1386,5.1386,5.1343,5.1322,5.1261,5.1201,5.1139,5.1048,5.0952,5.0863,5.0757,5.0693,5.0521,5.0278,4.9973,4.9688,4.9384,4.9077,4.8786,4.8513,4.8228,4.785,4.7472,4.7075,4.6643,4.6235,4.5854,4.5494,4.515,4.4923,4.4748,4.4637,4.4575,4.4581,4.4466,4.4423,4.4582,4.482,4.5036,4.5281,4.5384,4.5421,4.575,4.6063,4.6192,4.5805,4.5142,4.4572,4.4135,3.7943,3.8399,3.865,3.898,3.9292,3.9388,4.0284,4.1732,4.2564,4.2904,4.2612,4.2296,4.1601,4.0944,4.0817,4.0888,4.0888,4.0971,4.0977,4.1088,4.1129,4.1244,4.1358,4.1471,4.1648,4.2039,4.2821,4.3804,4.4892,4.5895,4.6892,4.765,4.8034,4.8151,4.8131,4.8325,4.8458,4.8476,4.8606,4.875,4.889,4.9075,4.9305,4.9529,4.9683,4.9824,4.9933,5.0076,5.0219,5.0314,5.0412,5.0468,5.0563,5.0634,5.072,5.0816,5.0917,5.1097,5.1245,5.1364,5.1377,5.139,5.14,5.1391,5.1401,5.1386,5.1385,5.1373,5.1318,5.128,5.122,5.1105,5.1042,5.0963,5.0877,5.0773,5.0682,5.0644,5.0519,5.0219,4.9925,4.9506,4.916,4.8925,4.8642,4.8438,4.817,4.7949,4.7597,4.7205,4.6778,4.6332,4.5938,4.558,4.5283,4.5086,4.4869,4.4776,4.4609,4.4491,4.4332,4.4155,4.4098,4.4291,4.4486,4.4679,4.4849,4.5083,4.5548,4.5832,4.5953,4.6086,4.5663,4.5174,4.4799,3.85,3.8914,3.9185,3.9556,3.991,3.9884,4.0751,4.2269,4.3343,4.3537,4.2978,4.2263,4.1595,4.1202,4.1146,4.1192,4.1233,4.134,4.1396,4.1503,4.1565,4.1653,4.1762,4.187,4.2016,4.2326,4.291,4.3834,4.5176,4.6037,4.7051,4.7973,4.8457,4.8495,4.8532,4.8587,4.866,4.8696,4.8821,4.9012,4.9158,4.9349,4.96,4.9802,4.9959,5.0095,5.0194,5.029,5.0371,5.0457,5.0511,5.0553,5.0644,5.073,5.0808,5.0937,5.1093,5.1237,5.1355,5.139,5.14,5.139,5.1393,5.1398,5.1386,5.1386,5.1396,5.1373,5.1304,5.1233,5.1139,5.1037,5.0959,5.0874,5.0808,5.072,5.0635,5.0575,5.0435,5.0145,4.9778,4.9365,4.8959,4.875,4.8513,4.8363,4.817,4.7949,4.7699,4.7272,4.6888,4.6477,4.6087,4.576,4.5494,4.5274,4.5086,4.4896,4.472,4.4542,4.4298,4.4167,4.3952,4.3747,4.4006,4.4244,4.444,4.4726,4.508,4.5449,4.5669,4.5841,4.5996,4.5524,4.4888,3.9104,3.9537,3.9798,3.9995,4.0138,4.0349,4.1409,4.3091,4.3898,4.3861,4.3269,4.2438,4.173,4.1313,4.1358,4.1426,4.1493,4.1657,4.1749,4.1817,4.1941,4.2044,4.2107,4.2187,4.2371,4.2571,4.3,4.3863,4.5403,4.625,4.7224,4.8237,4.8697,4.8751,4.8787,4.8821,4.8839,4.8909,4.9061,4.9257,4.943,4.9669,4.9866,5.0038,5.0207,5.0302,5.0393,5.0481,5.0553,5.0614,5.0673,5.0692,5.0766,5.0833,5.091,5.103,5.12,5.1294,5.1364,5.1385,5.1397,5.1383,5.1384,5.1385,5.1387,5.1381,5.1361,5.1319,5.1253,5.1162,5.1081,5.0983,5.0901,5.0836,5.0775,5.0673,5.0586,5.0483,5.0325,5.0038,4.9646,4.9236,4.8802,4.855,4.8438,4.8305,4.8149,4.7949,4.766,4.7249,4.6888,4.6637,4.6259,4.5955,4.5701,4.5494,4.5283,4.5096,4.4869,4.4692,4.4423,4.4167,4.3952,4.3776,4.3687,4.3794,4.4042,4.4274,4.4556,4.4851,4.4977,4.531,4.5365,4.5008,4.4499,3.9738,4.0213,4.0313,4.051,4.0972,4.2009,4.3192,4.4141,4.394,4.3583,4.3381,4.2043,4.1493,4.134,4.1475,4.1613,4.1805,4.2019,4.219,4.2333,4.2436,4.2536,4.2614,4.2671,4.2825,4.2957,4.3287,4.3816,4.513,4.6172,4.7549,4.8673,4.8837,4.8909,4.9013,4.9115,4.9096,4.9144,4.9337,4.9521,4.9712,4.9933,5.0101,5.0248,5.0363,5.047,5.0545,5.0586,5.0654,5.073,5.0776,5.0803,5.0866,5.0945,5.1035,5.1191,5.128,5.1311,5.1367,5.1401,5.1386,5.1386,5.1385,5.1384,5.1378,5.1345,5.1327,5.1273,5.1191,5.1093,5.0997,5.0906,5.0827,5.0766,5.0721,5.0654,5.0535,5.0418,5.0243,4.9874,4.9503,4.909,4.866,4.8458,4.8343,4.8228,4.809,4.7929,4.7702,4.7316,4.7025,4.676,4.6501,4.6211,4.5988,4.576,4.5546,4.531,4.5069,4.4786,4.4452,4.4167,4.3981,4.3805,4.3658,4.3645,4.3664,4.3896,4.4158,4.3872,4.397,4.4394,4.4691,4.4369,4.4158,4.0288,4.0655,4.0721,4.1246,4.22,4.3171,4.4063,4.4666,4.3975,4.362,4.3476,4.2113,4.1498,4.1666,4.1823,4.1977,4.2127,4.2416,4.2652,4.2806,4.2957,4.3032,4.3105,4.3142,4.3232,4.3356,4.3588,4.404,4.5221,4.6724,4.8141,4.8472,4.8803,4.9077,4.9214,4.9358,4.9449,4.9506,4.9607,4.9797,4.9986,5.0175,5.0317,5.0399,5.0514,5.0606,5.0673,5.0673,5.0729,5.0801,5.0819,5.0869,5.0968,5.1056,5.1169,5.1307,5.1321,5.1348,5.1402,5.1387,5.1385,5.14,5.1391,5.1385,5.1353,5.1313,5.1268,5.1204,5.1097,5.1016,5.0914,5.0827,5.0766,5.0702,5.0654,5.0603,5.0489,5.039,5.0076,4.9693,4.9315,4.894,4.8624,4.842,4.8286,4.8189,4.8108,4.7988,4.7804,4.7511,4.7294,4.7098,4.6801,4.6518,4.6284,4.6062,4.5786,4.5546,4.523,4.4906,4.4491,4.4196,4.3981,4.3776,4.3645,4.3615,4.3615,4.3615,4.3714,4.3509,4.3402,4.3732,4.4039,4.3896,4.377,4.0704,4.0959,4.1163,4.2183,4.3593,4.3722,4.436,4.5129,4.4115,4.3728,4.3529,4.241,4.1884,4.2012,4.2184,4.2333,4.2536,4.2789,4.3032,4.3232,4.3392,4.3478,4.3513,4.3548,4.3597,4.3697,4.3909,4.4286,4.5534,4.6818,4.7727,4.8039,4.8883,4.9286,4.9387,4.96,4.9731,4.9824,4.994,5.0114,5.0212,5.0374,5.0525,5.0586,5.0654,5.072,5.0784,5.0801,5.081,5.0836,5.0877,5.0941,5.1056,5.1161,5.1292,5.1355,5.137,5.1382,5.1387,5.1384,5.1397,5.139,5.1398,5.1338,5.1297,5.1271,5.1241,5.1152,5.1056,5.0959,5.0869,5.0794,5.0721,5.0673,5.0614,5.0551,5.0424,5.0243,4.9933,4.9562,4.9239,4.8873,4.8642,4.8439,4.8229,4.8169,4.8068,4.7947,4.7824,4.7636,4.749,4.732,4.7053,4.6819,4.6613,4.6374,4.6062,4.5786,4.545,4.5096,4.4714,4.4338,4.3981,4.3805,4.3674,4.3615,4.3615,4.3615,4.3615,4.3568,4.3462,4.3312,4.3332,4.3426,4.3299,4.1076,4.1342,4.209,4.3015,4.3944,4.4014,4.4558,4.5372,4.4046,4.3509,4.327,4.2534,4.2163,4.2331,4.2472,4.2632,4.2883,4.3123,4.3355,4.3546,4.3732,4.3814,4.3862,4.3862,4.3926,4.3986,4.416,4.4485,4.5447,4.6513,4.7479,4.8109,4.8908,4.9386,4.9611,4.9843,4.9986,5.0108,5.0264,5.0344,5.0396,5.0504,5.0606,5.0682,5.0738,5.081,5.0863,5.088,5.0913,5.0941,5.0975,5.1049,5.1139,5.1241,5.1316,5.14,5.1401,5.1386,5.1385,5.1398,5.1387,5.1373,5.1352,5.1278,5.1242,5.1237,5.1206,5.1099,5.1004,5.0906,5.081,5.073,5.0664,5.0624,5.0573,5.0468,5.0356,5.0082,4.9769,4.9476,4.916,4.8889,4.866,4.8439,4.8248,4.809,4.8006,4.7902,4.7822,4.7657,4.7593,4.7446,4.729,4.7066,4.6888,4.6684,4.6357,4.6062,4.576,4.5372,4.4934,4.4491,4.408,4.391,4.375,4.3674,4.3645,4.3615,4.3615,4.3598,4.3509,4.3372,4.319,4.3193,4.2958,4.142,4.1652,4.2216,4.2979,4.3682,4.3842,4.4227,4.4543,4.3957,4.3504,4.3216,4.2687,4.2494,4.2671,4.2787,4.2976,4.3232,4.3442,4.3629,4.3828,4.3974,4.4085,4.4116,4.4131,4.4158,4.4218,4.4306,4.4697,4.525,4.6022,4.6887,4.7834,4.8711,4.9446,4.9806,5.0101,5.0236,5.0317,5.0526,5.0596,5.0567,5.0682,5.0756,5.081,5.0861,5.0921,5.096,5.0983,5.1,5.1037,5.1063,5.1166,5.1257,5.1322,5.1359,5.1381,5.1387,5.1384,5.1398,5.1389,5.1392,5.135,5.1297,5.123,5.1136,5.1136,5.1075,5.0995,5.0871,5.0764,5.0701,5.0635,5.0594,5.0553,5.0489,5.0401,5.0219,4.9992,4.9731,4.9461,4.916,4.8873,4.8624,4.8382,4.8208,4.8052,4.7947,4.7861,4.7759,4.7699,4.7636,4.7572,4.7421,4.729,4.712,4.6916,4.6684,4.6357,4.6062,4.5555,4.5096,4.4631,4.4253,4.4039,4.3881,4.3734,4.3674,4.3645,4.3615,4.3615,4.3509,4.3402,4.3221,4.3021,4.2855,4.1732,4.1866,4.2161,4.2693,4.3323,4.357,4.3753,4.384,4.3856,4.3668,4.3306,4.303,4.2994,4.3087,4.3196,4.3375,4.3565,4.3747,4.3908,4.4067,4.424,4.4285,4.43,4.4329,4.4354,4.4426,4.451,4.4565,4.4807,4.57,4.6631,4.7467,4.8358,4.9286,5.0004,5.0407,5.0514,5.0566,5.0692,5.0808,5.0841,5.0885,5.0901,5.0933,5.0998,5.1053,5.1069,5.1095,5.1076,5.1122,5.1162,5.1261,5.1322,5.1379,5.138,5.1387,5.1402,5.1395,5.1385,5.139,5.1344,5.1291,5.1226,5.1157,5.1082,5.0988,5.0937,5.0858,5.0738,5.0664,5.0596,5.0545,5.0513,5.0478,5.0412,5.0314,5.012,4.9925,4.9702,4.9446,4.9176,4.889,4.8624,4.8401,4.8208,4.807,4.7929,4.7863,4.7777,4.7738,4.7678,4.7636,4.7551,4.7446,4.7341,4.7165,4.6916,4.6661,4.6332,4.576,4.5257,4.4807,4.4435,4.4196,4.4039,4.3852,4.3704,4.3674,4.3645,4.3615,4.3509,4.3402,4.3221,4.3021,4.2867,4.197,4.2094,4.2793,4.3319,4.3676,4.3798,4.398,4.4141,4.367,4.3484,4.3565,4.3562,4.3512,4.341,4.3546,4.3699,4.3832,4.4005,4.4173,4.4325,4.4373,4.4416,4.4444,4.4444,4.4501,4.4551,4.4619,4.4672,4.4827,4.5672,4.6642,4.756,4.8589,4.948,5.0274,5.0577,5.0739,5.0784,5.0852,5.0956,5.0963,5.099,5.1005,5.1041,5.1075,5.1076,5.1095,5.1081,5.1122,5.1181,5.1257,5.1313,5.1351,5.1396,5.1386,5.1386,5.1395,5.1384,5.139,5.1372,5.1323,5.123,5.1172,5.1093,5.0988,5.0841,5.0782,5.0701,5.0606,5.0614,5.0563,5.0513,5.0478,5.0412,5.0325,5.0243,5.0089,4.9925,4.9731,4.9525,4.9308,4.901,4.8768,4.855,4.8362,4.8187,4.7988,4.7884,4.784,4.778,4.7699,4.7678,4.7657,4.7593,4.749,4.7341,4.7125,4.6916,4.6613,4.6112,4.558,4.5008,4.4669,4.4463,4.4184,4.3939,4.3822,4.3734,4.3674,4.3598,4.3479,4.3342,4.3143,4.299,4.2836]}]]